[[{"header":{"parameterUnit":"m.s-1","parameterCategory":1,"la1":31.0,"la2":29.5877,"lo1":-88.7671,"lo2":-86.6584,"dy":0.0162,"dx":0.0185,"nx":115,"ny":88,"refTime":"2024-06-02T18:00:00:Z","depth":0,"parameterNumber":2,"parameterNumberName":"U-component_of_WINDS"},"data":[0.0,0.0,0.0,0.0,0.0,0.0,0.0,0.0,0.0,0.0,0.0,0.0,0.0,0.0,0.0,0.0,0.0,0.0,0.0,0.0,0.0,0.0,0.0,0.0,0.0,0.0,0.0,0.0,0.0,0.0,0.0,0.0,0.0,0.0,0.0,0.0,0.0,0.0,0.0,0.0,0.0,0.0,0.0,0.0,0.0,0.0,0.0,0.0,0.0,0.0,0.0,0.0,0.0,0.0,0.0,0.0,0.0,0.0,0.0,0.0,0.0,0.0,0.0,0.0,0.0,0.0,0.0,0.0,0.0,0.0,0.0,0.0,0.0,0.0,0.0,0.0,0.0,0.0,0.0,0.0,0.0,0.0,0.0,0.0,0.0,0.0,0.0,0.0,0.0,0.0,0.0,0.0,0.0,0.0,0.0,0.0,0.0,0.0,0.0,0.0,0.0,0.0,0.0,0.0,0.0,0.0,0.0,0.0,0.0,0.0,0.0,0.0,0.0,0.0,0.0,0.0,0.0,0.0,0.0,0.0,0.0,0.0,0.0,0.0,0.0,0.0,0.0,0.0,0.0,0.0,0.0,0.0,0.0,0.0,0.0,0.0,0.0,0.0,0.0,0.0,0.0,0.0,0.0,0.0,0.0,0.0,0.0,0.0,0.0,0.0,0.0,0.0,0.0,0.0,0.0,0.0,0.0,0.0,0.0,0.0,0.0,0.0,0.0,0.0,0.0,0.0,0.0,0.0,0.0,0.0,0.0,0.0,0.0,0.0,0.0,0.0,0.0,0.0,0.0,0.0,0.0,0.0,0.0,0.0,0.0,0.0,0.0,0.0,0.0,0.0,0.0,0.0,0.0,0.0,0.0,0.0,0.0,0.0,0.0,0.0,0.0,0.0,0.0,0.0,0.0,0.0,0.0,0.0,0.0,0.0,0.0,0.0,0.0,0.0,0.0,0.0,0.0,0.0,0.0,0.0,0.0,0.0,0.0,0.0,0.0,0.0,0.0,0.0,0.0,0.0,0.0,0.0,0.0,0.0,0.0,0.0,0.0,0.0,0.0,0.0,0.0,0.0,0.0,0.0,0.0,0.0,0.0,0.0,0.0,0.0,0.0,0.0,0.0,0.0,0.0,0.0,0.0,0.0,0.0,0.0,0.0,0.0,0.0,0.0,0.0,0.0,0.0,0.0,0.0,0.0,0.0,0.0,0.0,0.0,0.0,0.0,0.0,0.0,0.0,0.0,0.0,0.0,0.0,0.0,0.0,0.0,0.0,0.0,0.0,0.0,0.0,0.0,0.0,0.0,0.0,0.0,0.0,0.0,0.0,0.0,0.0,0.0,0.0,0.0,0.0,0.0,0.0,0.0,0.0,0.0,0.0,0.0,0.0,0.0,0.0,0.0,0.0,0.0,0.0,0.0,0.0,0.0,0.0,0.0,0.0,0.0,0.0,0.0,0.0,0.0,0.0,0.0,0.0,0.0,0.0,0.0,0.0,0.0,0.0,0.0,0.0,0.0,0.0,0.0,0.0,0.0,0.0,0.0,0.0,0.0,0.0,0.0,0.0,0.0,0.0,0.0,0.0,0.0,0.0,0.0,0.0,0.0,0.0,0.0,0.0,0.0,0.0,0.0,0.0,0.0,0.0,0.0,0.0,0.0,0.0,0.0,0.0,0.0,0.0,0.0,0.0,0.0,0.0,0.0,0.0,0.0,0.0,0.0,0.0,0.0,0.0,0.0,0.0,0.0,0.0,0.0,0.0,0.0,0.0,0.0,0.0,0.0,0.0,0.0,0.0,0.0,0.0,0.0,0.0,0.0,0.0,0.0,0.0,0.0,0.0,0.0,0.0,0.0,0.0,0.0,0.0,0.0,0.0,0.0,0.0,0.0,0.0,0.0,0.0,0.0,0.0,0.0,0.0,0.0,0.0,0.0,0.0,0.0,0.0,0.0,0.0,0.0,0.0,0.0,0.0,0.0,0.0,0.0,0.0,0.0,0.0,0.0,0.0,0.0,0.0,0.0,0.0,0.0,0.0,0.0,0.0,0.0,0.0,0.0,0.0,0.0,0.0,0.0,0.0,0.0,0.0,0.0,0.0,0.0,0.0,0.0,0.0,0.0,0.0,0.0,0.0,0.0,0.0,0.0,0.0,0.0,0.0,0.0,0.0,0.0,0.0,0.0,0.0,0.0,0.0,0.0,0.0,0.0,0.0,0.0,0.0,0.0,0.0,0.0,0.0,0.0,0.0,0.0,0.0,0.0,0.0,0.0,0.0,0.0,0.0,0.0,0.0,0.0,0.0,0.0,0.0,0.0,0.0,0.0,0.0,0.0,0.0,0.0,0.0,0.0,0.0,0.0,0.0,0.0,0.0,0.0,0.0,0.0,0.0,0.0,0.0,0.0,0.0,0.0,0.0,0.0,0.0,0.0,0.0,0.0,0.0,0.0,0.0,0.0,0.0,0.0,0.0,0.0,0.0,0.0,0.0,0.0,0.0,0.0,0.0,0.0,0.0,0.0,0.0,0.0,0.0,0.0,0.0,0.0,0.0,0.0,0.0,0.0,0.0,0.0,0.0,0.0,0.0,0.0,0.0,0.0,0.0,0.0,0.0,0.0,0.0,0.0,0.0,0.0,0.0,0.0,0.0,0.0,0.0,0.0,0.0,0.0,0.0,0.0,0.0,0.0,0.0,0.0,0.0,0.0,0.0,0.0,0.0,0.0,0.0,0.0,0.0,0.0,0.0,0.0,0.0,0.0,0.0,0.0,0.0,0.0,0.0,0.0,0.0,0.0,0.0,0.0,0.0,0.0,0.0,0.0,0.0,0.0,0.0,0.0,0.0,0.0,0.0,0.0,0.0,0.0,0.0,0.0,0.0,0.0,0.0,0.0,0.0,0.0,0.0,0.0,0.0,0.0,0.0,0.0,0.0,0.0,0.0,0.0,0.0,0.0,0.0,0.0,0.0,0.0,0.0,0.0,0.0,0.0,0.0,0.0,0.0,0.0,0.0,0.0,0.0,0.0,0.0,0.0,0.0,0.0,0.0,0.0,0.0,0.0,0.0,0.0,0.0,0.0,0.0,0.0,0.0,0.0,0.0,0.0,0.0,0.0,0.0,0.0,0.0,0.0,0.0,0.0,0.0,0.0,0.0,0.0,0.0,0.0,0.0,0.0,0.0,0.0,0.0,0.0,0.0,0.0,0.0,0.0,0.0,0.0,0.0,0.0,0.0,0.0,0.0,0.0,0.0,0.0,0.0,0.0,0.0,0.0,0.0,0.0,0.0,0.0,0.0,0.0,0.0,0.0,0.0,0.0,0.0,0.0,0.0,0.0,0.0,0.0,0.0,0.0,0.0,0.0,0.0,0.0,0.0,0.0,0.0,0.0,0.0,0.0,0.0,0.0,0.0,0.0,0.0,0.0,0.0,0.0,0.0,0.0,0.0,0.0,0.0,0.0,0.0,0.0,0.0,0.0,0.0,0.0,0.0,0.0,0.0,0.0,0.0,0.0,0.0,0.0,0.0,0.0,0.0,0.0,0.0,0.0,0.0,0.0,0.0,0.0,0.0,0.0,0.0,0.0,0.0,0.0,0.0,0.0,0.0,0.0,0.0,0.0,0.0,0.0,0.0,0.0,0.0,0.0,0.0,0.0,0.0,0.0,0.0,0.0,0.0,0.0,0.0,0.0,0.0,0.0,0.0,0.0,0.0,0.0,0.0,0.0,0.0,0.0,0.0,0.0,0.0,0.0,0.0,0.0,0.0,0.0,0.0,0.0,0.0,0.0,0.0,0.0,0.0,0.0,0.0,0.0,0.0,0.0,0.0,0.0,0.0,0.0,0.0,0.0,0.0,0.0,0.0,0.0,0.0,0.0,0.0,0.0,0.0,0.0,0.0,0.0,0.0,0.0,0.0,0.0,0.0,0.0,0.0,0.0,0.0,0.0,0.0,0.0,0.0,0.0,0.0,0.0,0.0,0.0,0.0,0.0,0.0,0.0,0.0,0.0,0.0,0.0,0.0,0.0,0.0,0.0,0.0,0.0,0.0,0.0,0.0,0.0,0.0,0.0,0.0,0.0,0.0,0.0,0.0,0.0,0.0,0.0,0.0,0.0,0.0,0.0,0.0,0.0,0.0,0.0,0.0,0.0,0.0,0.0,0.0,0.0,0.0,0.0,0.0,0.0,0.0,0.0,0.0,0.0,0.0,0.0,0.0,0.0,0.0,0.0,0.0,0.0,0.0,0.0,0.0,0.0,0.0,0.0,0.0,0.0,0.0,0.0,-2.0699,0.0,0.0,0.0,0.0,0.0,0.0,0.0,0.0,0.0,0.0,0.0,0.0,0.0,0.0,0.0,0.0,0.0,0.0,0.0,0.0,0.0,0.0,0.0,0.0,0.0,0.0,0.0,0.0,0.0,0.0,0.0,0.0,0.0,0.0,0.0,0.0,0.0,0.0,0.0,0.0,0.0,0.0,0.0,0.0,0.0,0.0,0.0,0.0,0.0,0.0,0.0,0.0,0.0,0.0,0.0,0.0,0.0,0.0,0.0,0.0,0.0,0.0,0.0,0.0,0.0,0.0,0.0,0.0,0.0,0.0,0.0,0.0,0.0,0.0,0.0,0.0,0.0,0.0,0.0,0.0,0.0,0.0,0.0,0.0,0.0,0.0,0.0,0.0,0.0,0.0,0.0,0.0,0.0,0.0,0.0,0.0,0.0,0.0,0.0,0.0,0.0,0.0,0.0,0.0,0.0,0.0,0.0,0.0,0.0,0.0,-2.2418,-2.2041,-2.1984,-2.1752,-2.1315,0.0,0.0,0.0,0.0,0.0,0.0,0.0,0.0,0.0,0.0,0.0,0.0,0.0,0.0,0.0,0.0,0.0,0.0,0.0,0.0,0.0,0.0,0.0,0.0,0.0,0.0,0.0,0.0,0.0,0.0,0.0,0.0,0.0,0.0,0.0,0.0,0.0,0.0,0.0,0.0,0.0,0.0,0.0,0.0,0.0,0.0,0.0,0.0,0.0,0.0,0.0,0.0,0.0,0.0,0.0,0.0,0.0,0.0,0.0,0.0,0.0,0.0,0.0,0.0,0.0,0.0,0.0,0.0,0.0,0.0,0.0,0.0,0.0,0.0,0.0,0.0,0.0,0.0,0.0,0.0,0.0,0.0,0.0,0.0,0.0,0.0,0.0,0.0,0.0,0.0,0.0,0.0,0.0,0.0,0.0,0.0,0.0,0.0,0.0,0.0,0.0,0.0,0.0,0.0,0.0,0.0,0.0,0.0,0.0,0.0,0.0,0.0,-2.2575,-2.2337,-2.1817,0.0,0.0,0.0,0.0,0.0,0.0,0.0,0.0,0.0,0.0,0.0,0.0,0.0,0.0,0.0,0.0,0.0,0.0,0.0,0.0,0.0,0.0,0.0,0.0,0.0,0.0,0.0,0.0,0.0,0.0,0.0,0.0,0.0,0.0,0.0,0.0,0.0,0.0,0.0,0.0,0.0,0.0,0.0,0.0,0.0,0.0,0.0,0.0,0.0,0.0,0.0,0.0,0.0,0.0,0.0,0.0,0.0,0.0,0.0,0.0,0.0,0.0,0.0,0.0,0.0,0.0,0.0,0.0,0.0,0.0,0.0,0.0,0.0,0.0,0.0,0.0,0.0,0.0,0.0,0.0,0.0,0.0,0.0,0.0,0.0,0.0,0.0,0.0,0.0,0.0,0.0,0.0,0.0,0.0,0.0,0.0,0.0,0.0,0.0,0.0,0.0,0.0,0.0,0.0,0.0,0.0,0.0,0.0,0.0,0.0,-2.3473,-2.3902,-2.3981,0.0,-2.1988,0.0,0.0,0.0,0.0,0.0,0.0,0.0,0.0,0.0,0.0,0.0,0.0,0.0,0.0,0.0,0.0,0.0,0.0,0.0,0.0,0.0,0.0,0.0,0.0,0.0,0.0,0.0,0.0,0.0,0.0,0.0,0.0,0.0,0.0,0.0,0.0,0.0,0.0,0.0,0.0,0.0,0.0,0.0,0.0,0.0,0.0,0.0,0.0,0.0,0.0,0.0,0.0,0.0,0.0,0.0,0.0,0.0,0.0,0.0,0.0,0.0,0.0,0.0,0.0,0.0,0.0,0.0,0.0,0.0,0.0,0.0,0.0,0.0,0.0,0.0,0.0,0.0,0.0,0.0,0.0,0.0,0.0,0.0,0.0,0.0,0.0,0.0,0.0,0.0,0.0,0.0,0.0,0.0,0.0,0.0,0.0,0.0,0.0,0.0,0.0,0.0,0.0,0.0,0.0,0.0,0.0,0.0,0.0,0.0,0.0,0.0,-2.4212,-2.4521,-2.3918,0.0,0.0,0.0,0.0,0.0,0.0,0.0,0.0,0.0,0.0,0.0,0.0,0.0,0.0,0.0,0.0,0.0,0.0,0.0,0.0,0.0,0.0,0.0,0.0,0.0,0.0,0.0,0.0,0.0,0.0,0.0,0.0,0.0,0.0,0.0,0.0,0.0,0.0,0.0,0.0,0.0,0.0,0.0,0.0,0.0,0.0,0.0,0.0,0.0,0.0,0.0,0.0,0.0,0.0,0.0,0.0,0.0,0.0,0.0,0.0,0.0,0.0,0.0,0.0,0.0,0.0,0.0,0.0,0.0,0.0,0.0,0.0,0.0,0.0,0.0,0.0,0.0,0.0,0.0,0.0,0.0,0.0,0.0,0.0,0.0,0.0,0.0,0.0,0.0,0.0,0.0,0.0,0.0,0.0,0.0,0.0,0.0,0.0,0.0,0.0,0.0,0.0,0.0,0.0,0.0,0.0,0.0,0.0,0.0,0.0,-2.374,0.0,-2.4716,-2.5068,-2.4364,-2.2528,0.0,0.0,0.0,0.0,0.0,0.0,0.0,0.0,0.0,0.0,0.0,0.0,0.0,0.0,0.0,0.0,0.0,0.0,0.0,0.0,0.0,0.0,0.0,0.0,0.0,0.0,0.0,0.0,0.0,0.0,0.0,0.0,0.0,0.0,0.0,0.0,0.0,0.0,0.0,0.0,0.0,0.0,0.0,0.0,0.0,0.0,0.0,0.0,0.0,0.0,0.0,0.0,0.0,0.0,0.0,0.0,0.0,0.0,0.0,0.0,0.0,0.0,0.0,0.0,0.0,0.0,0.0,0.0,0.0,0.0,0.0,0.0,0.0,0.0,0.0,0.0,0.0,0.0,0.0,0.0,0.0,0.0,0.0,0.0,0.0,0.0,0.0,0.0,0.0,0.0,0.0,0.0,0.0,0.0,0.0,0.0,0.0,0.0,0.0,0.0,0.0,0.0,0.0,0.0,0.0,0.0,0.0,0.0,0.0,-2.4519,-2.4965,-2.5788,-2.5861,-2.4748,0.0,0.0,0.0,0.0,0.0,0.0,0.0,0.0,0.0,0.0,0.0,0.0,0.0,0.0,0.0,0.0,0.0,0.0,0.0,0.0,0.0,0.0,0.0,0.0,0.0,0.0,0.0,0.0,0.0,0.0,0.0,0.0,0.0,0.0,0.0,0.0,0.0,0.0,0.0,0.0,0.0,0.0,0.0,0.0,0.0,0.0,0.0,0.0,0.0,0.0,0.0,0.0,0.0,0.0,0.0,0.0,0.0,0.0,0.0,0.0,0.0,0.0,0.0,0.0,0.0,0.0,0.0,0.0,0.0,0.0,0.0,0.0,0.0,0.0,0.0,0.0,0.0,0.0,0.0,0.0,0.0,0.0,0.0,0.0,0.0,0.0,0.0,0.0,0.0,0.0,0.0,0.0,0.0,0.0,0.0,0.0,0.0,0.0,0.0,0.0,0.0,0.0,0.0,0.0,0.0,0.0,0.0,0.0,0.0,-2.3233,-2.4094,-2.5176,-2.6427,-2.5219,-2.4024,0.0,0.0,0.0,0.0,0.0,0.0,0.0,0.0,0.0,0.0,0.0,0.0,0.0,0.0,0.0,0.0,0.0,0.0,0.0,0.0,0.0,0.0,0.0,0.0,0.0,0.0,0.0,0.0,0.0,0.0,0.0,0.0,0.0,0.0,0.0,0.0,0.0,0.0,0.0,0.0,0.0,0.0,0.0,0.0,0.0,0.0,0.0,0.0,0.0,0.0,0.0,0.0,0.0,0.0,0.0,0.0,0.0,0.0,0.0,0.0,0.0,0.0,0.0,0.0,0.0,0.0,0.0,0.0,0.0,0.0,0.0,0.0,0.0,0.0,0.0,0.0,0.0,0.0,0.0,0.0,0.0,0.0,0.0,0.0,0.0,0.0,0.0,0.0,0.0,0.0,0.0,0.0,0.0,0.0,0.0,0.0,0.0,0.0,0.0,0.0,0.0,0.0,0.0,0.0,0.0,0.0,0.0,0.0,0.0,-2.3434,0.0,-2.5614,0.0,-2.5081,-2.3806,0.0,0.0,0.0,0.0,0.0,0.0,0.0,0.0,0.0,0.0,0.0,0.0,0.0,0.0,0.0,0.0,0.0,0.0,0.0,0.0,0.0,0.0,0.0,0.0,0.0,0.0,0.0,0.0,0.0,0.0,0.0,0.0,0.0,0.0,0.0,0.0,0.0,0.0,0.0,0.0,0.0,0.0,0.0,0.0,0.0,0.0,0.0,0.0,0.0,0.0,0.0,0.0,0.0,0.0,0.0,0.0,0.0,0.0,0.0,0.0,0.0,0.0,0.0,0.0,0.0,0.0,0.0,0.0,0.0,0.0,0.0,0.0,0.0,0.0,0.0,0.0,0.0,0.0,0.0,0.0,0.0,0.0,0.0,0.0,0.0,0.0,0.0,0.0,0.0,0.0,0.0,0.0,0.0,0.0,0.0,0.0,0.0,0.0,0.0,0.0,0.0,0.0,0.0,0.0,0.0,0.0,0.0,0.0,-2.3654,-2.5283,-2.6165,-2.629,-2.5579,-2.5517,-2.4115,0.0,0.0,0.0,0.0,0.0,0.0,0.0,0.0,0.0,0.0,0.0,0.0,0.0,0.0,0.0,0.0,0.0,0.0,0.0,0.0,0.0,0.0,0.0,0.0,0.0,0.0,0.0,0.0,0.0,0.0,0.0,0.0,0.0,0.0,0.0,0.0,0.0,0.0,0.0,0.0,0.0,0.0,0.0,0.0,0.0,0.0,0.0,0.0,0.0,0.0,0.0,0.0,0.0,0.0,0.0,0.0,0.0,0.0,0.0,0.0,0.0,0.0,0.0,0.0,0.0,0.0,0.0,0.0,0.0,0.0,0.0,0.0,0.0,0.0,0.0,0.0,0.0,0.0,0.0,0.0,0.0,0.0,0.0,0.0,0.0,0.0,0.0,0.0,0.0,0.0,0.0,0.0,0.0,0.0,0.0,0.0,0.0,0.0,0.0,0.0,0.0,0.0,0.0,0.0,0.0,0.0,0.0,0.0,0.0,-2.485,-2.5828,-2.6433,-2.655,-2.5003,-2.3673,0.0,0.0,0.0,0.0,0.0,0.0,0.0,0.0,0.0,0.0,0.0,0.0,0.0,0.0,0.0,0.0,0.0,0.0,0.0,0.0,0.0,0.0,0.0,0.0,0.0,0.0,0.0,0.0,0.0,0.0,0.0,0.0,0.0,0.0,0.0,0.0,0.0,0.0,0.0,0.0,0.0,0.0,0.0,0.0,0.0,0.0,0.0,0.0,0.0,0.0,0.0,0.0,0.0,0.0,0.0,0.0,0.0,0.0,0.0,0.0,0.0,0.0,0.0,0.0,0.0,0.0,0.0,0.0,0.0,0.0,0.0,0.0,0.0,0.0,0.0,0.0,0.0,0.0,0.0,0.0,0.0,0.0,0.0,0.0,0.0,0.0,0.0,0.0,0.0,0.0,0.0,0.0,0.0,0.0,0.0,0.0,0.0,0.0,0.0,0.0,0.0,0.0,0.0,0.0,0.0,0.0,0.0,0.0,0.0,-2.547,-2.6734,-2.7399,-2.7317,-2.5638,-2.4093,-2.2729,0.0,0.0,0.0,0.0,0.0,0.0,0.0,0.0,0.0,0.0,0.0,0.0,0.0,0.0,0.0,0.0,0.0,0.0,0.0,0.0,0.0,0.0,0.0,0.0,0.0,0.0,0.0,0.0,0.0,0.0,0.0,0.0,0.0,0.0,0.0,0.0,0.0,0.0,0.0,0.0,0.0,0.0,0.0,0.0,0.0,0.0,0.0,0.0,0.0,0.0,0.0,0.0,0.0,0.0,0.0,0.0,0.0,0.0,0.0,0.0,0.0,0.0,0.0,0.0,0.0,0.0,0.0,0.0,0.0,0.0,0.0,0.0,0.0,0.0,0.0,0.0,0.0,0.0,0.0,0.0,0.0,0.0,0.0,0.0,0.0,0.0,0.0,0.0,0.0,0.0,0.0,0.0,0.0,0.0,0.0,0.0,0.0,0.0,0.0,0.0,0.0,0.0,0.0,0.0,0.0,0.0,0.0,0.0,-2.6854,-2.8665,-2.9087,-2.7941,-2.7203,-2.5213,0.0,0.0,0.0,0.0,0.0,0.0,0.0,0.0,0.0,0.0,0.0,0.0,0.0,0.0,0.0,0.0,0.0,0.0,0.0,0.0,0.0,0.0,0.0,0.0,0.0,0.0,0.0,0.0,0.0,0.0,0.0,0.0,0.0,0.0,0.0,0.0,0.0,0.0,0.0,0.0,0.0,0.0,0.0,0.0,0.0,0.0,0.0,0.0,0.0,0.0,0.0,0.0,0.0,0.0,0.0,0.0,0.0,0.0,0.0,0.0,0.0,0.0,0.0,0.0,0.0,0.0,0.0,0.0,0.0,0.0,0.0,0.0,0.0,0.0,0.0,0.0,0.0,0.0,0.0,0.0,0.0,0.0,0.0,0.0,0.0,0.0,0.0,0.0,0.0,0.0,0.0,0.0,0.0,0.0,0.0,0.0,0.0,0.0,0.0,0.0,0.0,0.0,0.0,0.0,0.0,0.0,0.0,0.0,0.0,-2.7528,-2.9943,-3.0866,-2.9994,-2.8247,-2.623,0.0,0.0,0.0,0.0,0.0,0.0,0.0,0.0,0.0,0.0,0.0,0.0,0.0,0.0,0.0,0.0,0.0,0.0,0.0,0.0,0.0,0.0,0.0,0.0,0.0,0.0,0.0,0.0,0.0,0.0,0.0,0.0,0.0,0.0,0.0,0.0,0.0,0.0,0.0,0.0,0.0,0.0,0.0,0.0,0.0,0.0,0.0,0.0,0.0,0.0,0.0,0.0,0.0,0.0,0.0,0.0,0.0,0.0,0.0,0.0,0.0,0.0,0.0,0.0,0.0,0.0,0.0,0.0,0.0,0.0,0.0,0.0,0.0,0.0,0.0,0.0,0.0,0.0,0.0,0.0,0.0,0.0,0.0,0.0,0.0,0.0,0.0,0.0,0.0,0.0,0.0,0.0,0.0,0.0,0.0,0.0,0.0,0.0,0.0,0.0,0.0,0.0,0.0,0.0,0.0,0.0,0.0,0.0,-2.717,-2.7886,-3.0425,-3.1515,-3.0927,-2.8801,-2.678,0.0,0.0,0.0,0.0,0.0,0.0,0.0,0.0,0.0,0.0,0.0,0.0,0.0,0.0,0.0,0.0,0.0,0.0,0.0,0.0,0.0,0.0,0.0,0.0,0.0,0.0,0.0,0.0,0.0,0.0,0.0,0.0,0.0,0.0,0.0,0.0,0.0,0.0,0.0,0.0,0.0,0.0,0.0,0.0,0.0,0.0,0.0,0.0,0.0,0.0,0.0,0.0,0.0,0.0,0.0,0.0,0.0,0.0,0.0,0.0,0.0,0.0,0.0,0.0,0.0,0.0,0.0,0.0,0.0,0.0,0.0,0.0,0.0,0.0,0.0,0.0,0.0,0.0,0.0,0.0,0.0,0.0,0.0,0.0,0.0,0.0,0.0,0.0,0.0,0.0,0.0,0.0,0.0,0.0,0.0,0.0,0.0,0.0,0.0,0.0,0.0,0.0,0.0,0.0,0.0,0.0,0.0,0.0,-2.7573,-2.8058,-3.0334,-3.1386,-3.0981,-2.9079,-2.7088,0.0,0.0,0.0,0.0,0.0,0.0,0.0,0.0,0.0,0.0,0.0,0.0,0.0,0.0,0.0,0.0,0.0,0.0,0.0,0.0,0.0,0.0,0.0,0.0,0.0,0.0,0.0,0.0,0.0,0.0,0.0,0.0,0.0,0.0,0.0,0.0,0.0,0.0,0.0,0.0,0.0,0.0,0.0,0.0,0.0,0.0,0.0,0.0,0.0,0.0,0.0,0.0,0.0,0.0,0.0,0.0,0.0,0.0,0.0,0.0,0.0,0.0,0.0,0.0,0.0,0.0,0.0,0.0,0.0,0.0,0.0,0.0,0.0,0.0,0.0,0.0,0.0,0.0,0.0,0.0,0.0,0.0,0.0,0.0,0.0,0.0,0.0,0.0,0.0,0.0,0.0,0.0,0.0,0.0,0.0,0.0,0.0,0.0,0.0,0.0,0.0,0.0,0.0,0.0,0.0,0.0,0.0,0.0,-2.7772,-2.7684,-2.9977,-3.102,-3.0644,-2.9458,-2.7787,0.0,0.0,0.0,0.0,0.0,0.0,0.0,0.0,0.0,0.0,0.0,0.0,0.0,0.0,0.0,0.0,0.0,0.0,0.0,0.0,0.0,0.0,0.0,0.0,0.0,0.0,0.0,0.0,0.0,0.0,0.0,0.0,0.0,0.0,0.0,0.0,0.0,0.0,0.0,0.0,0.0,0.0,0.0,0.0,0.0,0.0,0.0,0.0,-2.2299,0.0,0.0,0.0,0.0,0.0,0.0,0.0,0.0,0.0,0.0,0.0,0.0,0.0,0.0,0.0,0.0,0.0,0.0,0.0,0.0,0.0,0.0,0.0,0.0,0.0,0.0,0.0,0.0,0.0,0.0,0.0,0.0,0.0,0.0,0.0,0.0,0.0,0.0,0.0,0.0,0.0,0.0,0.0,0.0,0.0,0.0,0.0,0.0,0.0,0.0,0.0,0.0,0.0,0.0,0.0,0.0,0.0,0.0,0.0,-2.7714,-2.795,-2.9386,-2.9751,-2.8938,-2.8521,-2.7664,0.0,0.0,0.0,0.0,0.0,0.0,0.0,0.0,0.0,0.0,0.0,0.0,0.0,0.0,0.0,0.0,0.0,0.0,0.0,0.0,0.0,0.0,0.0,0.0,0.0,0.0,0.0,0.0,0.0,0.0,0.0,0.0,0.0,0.0,0.0,0.0,0.0,0.0,0.0,0.0,0.0,0.0,0.0,0.0,0.0,0.0,0.0,0.0,0.0,0.0,0.0,0.0,0.0,0.0,0.0,0.0,0.0,0.0,0.0,0.0,0.0,0.0,0.0,0.0,0.0,0.0,0.0,0.0,0.0,0.0,0.0,0.0,0.0,0.0,0.0,0.0,0.0,0.0,0.0,0.0,0.0,0.0,0.0,0.0,0.0,0.0,0.0,0.0,0.0,0.0,0.0,0.0,0.0,0.0,0.0,0.0,0.0,0.0,0.0,0.0,0.0,0.0,0.0,0.0,0.0,0.0,0.0,-2.6248,-2.7849,-2.8523,-2.9004,-2.8689,-2.7544,-2.7474,-2.7295,-2.686,0.0,0.0,0.0,0.0,0.0,0.0,0.0,0.0,0.0,0.0,0.0,0.0,0.0,0.0,0.0,0.0,0.0,0.0,0.0,0.0,0.0,0.0,0.0,0.0,0.0,0.0,0.0,0.0,0.0,0.0,0.0,0.0,0.0,0.0,0.0,0.0,0.0,0.0,-2.1933,-2.4292,0.0,0.0,0.0,0.0,0.0,0.0,0.0,0.0,-2.3526,0.0,0.0,0.0,0.0,0.0,0.0,0.0,0.0,0.0,0.0,0.0,0.0,0.0,0.0,0.0,0.0,0.0,0.0,0.0,0.0,0.0,0.0,0.0,0.0,0.0,0.0,0.0,0.0,0.0,0.0,0.0,0.0,0.0,0.0,0.0,0.0,0.0,0.0,0.0,0.0,0.0,0.0,0.0,0.0,0.0,0.0,0.0,0.0,0.0,0.0,0.0,0.0,0.0,0.0,0.0,0.0,-2.4858,-2.7499,-2.896,-2.9163,-2.9709,-2.9752,-2.9179,-2.8306,-2.7213,-2.5938,0.0,0.0,0.0,0.0,0.0,0.0,0.0,0.0,0.0,0.0,0.0,0.0,0.0,0.0,0.0,0.0,0.0,0.0,0.0,0.0,0.0,0.0,0.0,0.0,0.0,0.0,0.0,0.0,0.0,0.0,0.0,0.0,0.0,0.0,0.0,0.0,0.0,0.0,0.0,-2.5147,-2.5826,0.0,0.0,0.0,0.0,0.0,0.0,0.0,0.0,-2.4649,0.0,0.0,0.0,0.0,0.0,0.0,0.0,0.0,0.0,0.0,0.0,0.0,0.0,0.0,0.0,0.0,0.0,0.0,0.0,0.0,0.0,0.0,0.0,0.0,0.0,0.0,0.0,0.0,0.0,0.0,0.0,0.0,0.0,0.0,0.0,0.0,0.0,0.0,0.0,0.0,0.0,0.0,0.0,0.0,0.0,0.0,0.0,0.0,0.0,0.0,0.0,0.0,0.0,0.0,0.0,-2.5245,-2.8285,-2.9756,-2.9452,-3.0106,-2.9907,-2.8743,-2.7777,-2.6451,0.0,0.0,0.0,0.0,0.0,0.0,0.0,0.0,0.0,0.0,0.0,0.0,0.0,0.0,0.0,0.0,0.0,0.0,0.0,0.0,0.0,0.0,0.0,0.0,0.0,0.0,0.0,0.0,0.0,0.0,0.0,0.0,0.0,0.0,0.0,0.0,0.0,0.0,0.0,0.0,-2.635,-2.7179,-2.6575,0.0,0.0,0.0,0.0,0.0,0.0,-2.4529,-2.478,0.0,0.0,0.0,0.0,0.0,0.0,0.0,0.0,0.0,0.0,0.0,0.0,0.0,0.0,0.0,0.0,0.0,0.0,0.0,0.0,0.0,0.0,0.0,0.0,0.0,0.0,0.0,0.0,0.0,0.0,0.0,0.0,0.0,0.0,0.0,0.0,0.0,0.0,0.0,0.0,0.0,0.0,0.0,0.0,0.0,0.0,0.0,0.0,0.0,0.0,0.0,0.0,0.0,0.0,0.0,-2.5296,-2.8784,-3.0328,-2.9808,-3.0372,-3.0007,-2.8516,-2.7656,-2.6177,0.0,0.0,0.0,0.0,0.0,0.0,0.0,0.0,0.0,0.0,0.0,0.0,0.0,0.0,0.0,0.0,0.0,0.0,0.0,0.0,0.0,0.0,0.0,0.0,0.0,0.0,0.0,0.0,0.0,0.0,0.0,0.0,0.0,0.0,0.0,0.0,0.0,0.0,0.0,0.0,0.0,-2.8415,-2.7896,-2.7785,0.0,0.0,0.0,0.0,-2.4313,-2.4961,0.0,0.0,0.0,0.0,0.0,0.0,0.0,0.0,0.0,0.0,0.0,0.0,0.0,0.0,0.0,0.0,0.0,0.0,0.0,0.0,0.0,0.0,0.0,0.0,0.0,0.0,0.0,0.0,0.0,0.0,0.0,0.0,0.0,0.0,0.0,0.0,0.0,0.0,0.0,0.0,0.0,0.0,0.0,0.0,0.0,0.0,0.0,0.0,0.0,0.0,0.0,0.0,0.0,0.0,0.0,0.0,-2.5419,-2.8847,-3.0678,-3.0659,-3.0735,-3.0658,-3.0372,-2.9431,-2.7701,0.0,0.0,0.0,0.0,0.0,0.0,0.0,0.0,0.0,0.0,0.0,0.0,0.0,0.0,0.0,0.0,0.0,0.0,0.0,0.0,0.0,0.0,0.0,0.0,0.0,0.0,0.0,0.0,0.0,0.0,0.0,0.0,0.0,0.0,0.0,0.0,0.0,0.0,0.0,0.0,0.0,-2.8412,-2.7867,-2.7896,-2.748,0.0,0.0,-2.5823,-2.584,-2.6519,0.0,0.0,0.0,0.0,0.0,0.0,0.0,0.0,0.0,0.0,0.0,0.0,0.0,0.0,0.0,0.0,0.0,0.0,0.0,0.0,0.0,0.0,0.0,0.0,0.0,0.0,0.0,0.0,0.0,0.0,0.0,0.0,0.0,0.0,0.0,0.0,0.0,0.0,0.0,0.0,0.0,0.0,0.0,0.0,0.0,0.0,0.0,0.0,0.0,0.0,0.0,0.0,0.0,0.0,0.0,-2.522,-2.5913,-2.9385,-3.1,-3.0614,-3.1087,-3.1111,-3.0602,-2.9684,-2.7967,0.0,0.0,0.0,0.0,0.0,0.0,0.0,0.0,0.0,0.0,0.0,0.0,0.0,0.0,0.0,0.0,0.0,0.0,0.0,0.0,0.0,0.0,0.0,0.0,0.0,0.0,0.0,0.0,0.0,0.0,0.0,0.0,0.0,0.0,0.0,0.0,0.0,0.0,0.0,0.0,0.0,0.0,-2.7856,-2.8347,0.0,0.0,0.0,-2.6573,-2.6123,0.0,0.0,0.0,0.0,0.0,0.0,0.0,0.0,0.0,0.0,0.0,0.0,0.0,0.0,0.0,0.0,0.0,0.0,0.0,0.0,0.0,0.0,0.0,0.0,0.0,0.0,0.0,0.0,0.0,0.0,0.0,0.0,0.0,0.0,0.0,0.0,0.0,0.0,0.0,0.0,0.0,0.0,0.0,0.0,0.0,0.0,0.0,0.0,0.0,0.0,0.0,0.0,0.0,0.0,0.0,0.0,0.0,-2.614,-2.9487,-3.0964,-3.0404,-3.1096,-3.1153,-3.053,-2.9878,0.0,0.0,0.0,0.0,0.0,0.0,0.0,0.0,0.0,0.0,0.0,0.0,0.0,0.0,0.0,0.0,0.0,0.0,0.0,0.0,0.0,0.0,0.0,0.0,0.0,0.0,0.0,-1.5265,0.0,0.0,0.0,0.0,0.0,0.0,0.0,0.0,0.0,0.0,0.0,0.0,0.0,0.0,-2.8396,-2.7808,-2.8569,-2.8798,0.0,0.0,-2.7029,-2.6374,-2.6327,-2.6103,0.0,0.0,0.0,0.0,0.0,0.0,0.0,0.0,0.0,0.0,0.0,0.0,0.0,0.0,0.0,0.0,0.0,0.0,0.0,0.0,0.0,0.0,0.0,0.0,0.0,0.0,0.0,0.0,0.0,0.0,0.0,0.0,0.0,0.0,0.0,0.0,0.0,0.0,0.0,0.0,0.0,0.0,0.0,0.0,0.0,0.0,0.0,0.0,0.0,0.0,0.0,0.0,0.0,0.0,0.0,-2.5872,-2.8776,-3.0304,-3.0296,-3.0436,-3.0525,-3.0572,-3.0467,-2.9192,0.0,0.0,0.0,0.0,0.0,0.0,0.0,0.0,0.0,0.0,0.0,0.0,0.0,0.0,0.0,0.0,0.0,0.0,0.0,0.0,0.0,0.0,0.0,0.0,0.0,0.0,0.0,0.0,0.0,0.0,0.0,0.0,0.0,0.0,0.0,0.0,0.0,0.0,0.0,0.0,0.0,-2.8203,-2.7604,-2.8326,-2.8796,0.0,0.0,-2.7095,-2.7028,-2.7079,-2.6669,-2.5328,0.0,0.0,0.0,0.0,0.0,0.0,0.0,0.0,0.0,0.0,0.0,0.0,0.0,0.0,0.0,0.0,0.0,0.0,0.0,0.0,0.0,0.0,0.0,0.0,0.0,0.0,0.0,0.0,0.0,0.0,0.0,0.0,0.0,0.0,0.0,0.0,0.0,0.0,0.0,0.0,0.0,0.0,0.0,0.0,0.0,0.0,0.0,0.0,0.0,0.0,0.0,0.0,0.0,-2.4413,-2.6095,-2.8435,-2.9704,-2.9867,-3.0132,-3.0303,-3.0358,-3.034,-2.9142,0.0,0.0,0.0,0.0,0.0,0.0,0.0,0.0,0.0,0.0,0.0,0.0,0.0,0.0,0.0,0.0,0.0,0.0,0.0,0.0,0.0,0.0,0.0,0.0,0.0,0.0,0.0,0.0,-1.7231,-1.7805,-1.8155,0.0,0.0,0.0,0.0,0.0,0.0,0.0,0.0,0.0,0.0,-2.7587,-2.757,-2.8361,0.0,0.0,-2.8175,-2.7939,-2.7918,-2.7112,-2.6409,-2.6135,-2.502,0.0,0.0,0.0,0.0,0.0,0.0,0.0,0.0,0.0,0.0,0.0,0.0,0.0,0.0,0.0,0.0,0.0,0.0,0.0,0.0,0.0,0.0,0.0,0.0,0.0,0.0,0.0,0.0,0.0,0.0,0.0,0.0,0.0,0.0,0.0,0.0,0.0,0.0,0.0,0.0,0.0,0.0,0.0,0.0,0.0,0.0,0.0,0.0,0.0,0.0,0.0,0.0,-2.4334,-2.6105,-2.8103,-2.9262,-2.9542,-2.9864,-3.0066,-3.0182,-3.0189,-2.9238,0.0,0.0,0.0,0.0,0.0,0.0,0.0,0.0,0.0,0.0,0.0,0.0,0.0,0.0,0.0,0.0,0.0,0.0,0.0,0.0,0.0,0.0,0.0,0.0,0.0,0.0,0.0,0.0,-1.811,-1.8831,-1.9594,0.0,0.0,0.0,0.0,0.0,0.0,0.0,0.0,0.0,0.0,-2.7062,-2.7476,-2.8298,-2.8779,-2.8531,-2.851,-2.8304,-2.7759,-2.7,-2.6317,-2.5913,0.0,0.0,0.0,0.0,0.0,0.0,0.0,0.0,0.0,0.0,0.0,0.0,0.0,0.0,0.0,0.0,0.0,0.0,0.0,0.0,0.0,0.0,0.0,0.0,0.0,0.0,0.0,0.0,0.0,0.0,-2.0171,0.0,0.0,0.0,0.0,0.0,0.0,0.0,0.0,0.0,0.0,0.0,0.0,0.0,0.0,0.0,0.0,0.0,0.0,0.0,0.0,0.0,0.0,-2.4029,-2.5711,-2.7641,-2.8883,-2.936,-2.9523,-2.9782,-3.0162,-3.0126,-2.9699,-2.8779,0.0,0.0,0.0,0.0,0.0,0.0,0.0,0.0,0.0,0.0,0.0,0.0,0.0,0.0,0.0,0.0,0.0,0.0,0.0,0.0,0.0,0.0,0.0,0.0,0.0,0.0,-1.7377,-1.8012,-1.8784,0.0,0.0,0.0,0.0,0.0,0.0,0.0,0.0,0.0,0.0,-2.5573,-2.6706,-2.7236,-2.805,-2.86,-2.8505,-2.851,-2.7944,-2.6411,-2.6765,-2.6501,0.0,0.0,0.0,0.0,0.0,0.0,0.0,0.0,0.0,0.0,0.0,0.0,0.0,0.0,0.0,0.0,0.0,0.0,0.0,0.0,0.0,0.0,0.0,0.0,0.0,0.0,0.0,-2.2276,-2.1219,0.0,0.0,0.0,0.0,0.0,0.0,0.0,0.0,0.0,0.0,0.0,-2.2879,-2.2952,0.0,0.0,0.0,0.0,0.0,0.0,0.0,0.0,0.0,0.0,0.0,0.0,-2.3452,-2.5129,-2.6216,-2.7181,-2.7974,-2.831,-2.8791,-2.9439,-2.9569,-2.8816,-2.7098,0.0,0.0,0.0,0.0,0.0,0.0,0.0,0.0,0.0,0.0,0.0,0.0,0.0,0.0,0.0,0.0,0.0,0.0,0.0,0.0,0.0,0.0,0.0,0.0,0.0,-1.7614,0.0,0.0,0.0,0.0,0.0,0.0,0.0,0.0,0.0,0.0,0.0,-2.4503,-2.5087,-2.6411,-2.7316,-2.7363,-2.8062,-2.8587,0.0,0.0,0.0,0.0,0.0,0.0,0.0,0.0,0.0,0.0,0.0,0.0,0.0,0.0,-2.4869,-2.3295,-2.3286,-2.3648,-2.4046,0.0,0.0,0.0,0.0,0.0,0.0,0.0,0.0,0.0,0.0,0.0,0.0,0.0,0.0,-2.2801,0.0,-2.2026,0.0,0.0,0.0,0.0,0.0,0.0,0.0,0.0,-2.3188,-2.3609,-2.3607,-2.3705,-2.3713,0.0,-2.2909,-2.1898,0.0,0.0,0.0,0.0,0.0,0.0,0.0,0.0,-2.3255,-2.4291,-2.51,-2.5903,-2.673,-2.7367,-2.8003,-2.863,-2.913,-2.8587,-2.6906,-2.6227,-2.4645,0.0,0.0,0.0,0.0,0.0,0.0,0.0,0.0,0.0,0.0,0.0,0.0,0.0,0.0,0.0,0.0,0.0,0.0,0.0,0.0,0.0,0.0,0.0,-1.8731,0.0,0.0,0.0,0.0,0.0,0.0,0.0,0.0,0.0,-2.4182,-2.4673,-2.5383,-2.634,-2.7106,-2.7656,-2.7791,0.0,0.0,0.0,0.0,0.0,0.0,0.0,-2.7943,-2.8317,-2.8195,-2.8052,-2.818,-2.7803,-2.7403,-2.7177,0.0,0.0,-2.4809,-2.4718,-2.5123,-2.5634,-2.6098,-2.6553,-2.7091,-2.7614,-2.7886,0.0,0.0,0.0,0.0,0.0,0.0,0.0,0.0,-2.3945,-2.3535,0.0,-2.2849,0.0,0.0,0.0,0.0,0.0,0.0,0.0,0.0,-2.3842,-2.42,-2.4183,-2.4201,-2.4087,-2.3907,-2.3706,-2.2936,-2.1734,-2.1343,0.0,0.0,0.0,0.0,0.0,0.0,-2.3358,-2.3217,-2.4245,-2.506,-2.5636,-2.665,-2.7415,-2.7848,-2.8814,-2.8984,-2.8185,-2.7532,-2.6593,-2.5225,-2.2672,0.0,0.0,0.0,0.0,0.0,0.0,0.0,0.0,0.0,0.0,0.0,0.0,0.0,0.0,0.0,0.0,0.0,0.0,0.0,0.0,-1.9149,0.0,0.0,0.0,0.0,0.0,0.0,0.0,0.0,0.0,0.0,-2.5132,-2.5477,-2.6237,-2.78,0.0,0.0,0.0,0.0,-2.86,-2.86,-2.86,-2.8328,-2.7586,-2.8093,-2.8341,-2.7634,0.0,0.0,-2.8685,-2.8667,-2.8445,-2.7844,-2.8172,-2.8239,-2.7054,-2.671,-2.695,-2.7902,-2.8059,-2.845,-2.9297,-2.9354,-2.9409,-2.7925,0.0,0.0,0.0,0.0,-2.4918,-2.4598,-2.44,-2.4568,-2.4132,-2.3316,-2.329,0.0,0.0,0.0,0.0,0.0,0.0,-2.3915,-2.4062,-2.4164,-2.4229,-2.4275,-2.4375,-2.4294,-2.4039,-2.3923,-2.34,-2.2494,-2.2282,-2.1709,-2.089,0.0,0.0,0.0,0.0,-2.2423,-2.2684,-2.2785,-2.3278,-2.4185,-2.5252,-2.6595,-2.8252,-2.8646,-2.8512,-2.788,-2.7837,-2.7118,-2.5536,-2.3851,0.0,0.0,0.0,0.0,0.0,0.0,0.0,0.0,0.0,0.0,0.0,0.0,0.0,0.0,0.0,0.0,0.0,0.0,0.0,-1.8564,-1.9626,-2.0207,0.0,0.0,0.0,0.0,0.0,0.0,0.0,0.0,0.0,-2.6284,-2.6879,-2.7116,0.0,0.0,-2.8197,-2.787,-2.8257,-2.86,-2.86,0.0,0.0,0.0,-2.8487,-2.8784,-2.911,-2.9906,-3.0459,-3.0459,-2.9968,-2.9344,-2.8567,-2.8543,-2.853,-2.8197,-2.7997,-2.8094,-2.8496,-2.864,-2.8856,-2.9217,-2.9453,-2.9539,-2.9748,-2.8427,-2.6767,-2.6079,-2.6061,-2.5623,-2.547,-2.5558,-2.5689,-2.5262,-2.4496,-2.4482,-2.3971,-2.3119,-2.298,0.0,0.0,0.0,-2.4247,-2.4373,-2.4266,-2.422,-2.4312,-2.4456,-2.433,-2.4029,-2.3981,-2.353,-2.2734,-2.2552,-2.2155,-2.1536,0.0,0.0,-2.203,-2.1659,-2.1495,-2.1631,-2.1798,-2.2231,-2.2957,-2.4175,-2.5619,-2.7271,-2.7805,-2.787,-2.753,-2.8011,-2.7761,-2.659,-2.5134,-2.3637,0.0,0.0,0.0,0.0,0.0,0.0,0.0,0.0,0.0,0.0,0.0,-1.598,-1.5654,0.0,0.0,0.0,-1.7415,-1.8528,-1.9529,-2.0618,0.0,0.0,0.0,0.0,0.0,0.0,0.0,-2.4372,-2.5005,-2.5866,-2.7147,-2.7862,-2.8084,-2.7685,-2.8276,-2.8567,-2.8094,0.0,-2.8675,-2.8675,-2.8675,-2.8675,-2.8675,-2.8712,-2.8913,-2.9373,-3.0176,-3.0578,-3.0256,-2.9818,-2.935,-2.8864,-2.8676,-2.8687,-2.8612,-2.8574,-2.8582,-2.8743,-2.8885,-2.906,-2.923,-2.9463,-2.956,-3.1374,-3.0789,-2.821,-2.6994,-2.6802,-2.6718,-2.6791,-2.6972,-2.6982,-2.6605,-2.5949,-2.5946,-2.5525,-2.482,-2.4574,0.0,-2.4594,-2.4329,-2.4289,-2.4402,-2.4339,-2.434,-2.4395,-2.4549,-2.4358,-2.3907,-2.3893,-2.3488,-2.272,-2.2501,-2.2343,-2.2159,-2.161,-2.1168,-2.0906,-2.0992,-2.0819,-2.0423,-2.1375,-2.198,-2.2212,-2.3488,-2.4607,-2.5557,-2.6545,-2.7069,-2.7087,-2.7965,-2.8273,-2.7793,-2.6307,-2.4892,-2.3594,0.0,0.0,0.0,0.0,0.0,0.0,0.0,0.0,0.0,0.0,0.0,0.0,0.0,0.0,0.0,-1.9524,0.0,-2.0597,-2.1927,0.0,0.0,0.0,-2.3121,-2.3919,-2.3988,-2.4499,-2.5808,0.0,0.0,-2.7713,0.0,-2.8968,-2.9155,-2.895,-2.881,-2.881,-2.8779,-2.8816,-2.8785,-2.8804,-2.8804,-2.8785,-2.8706,-2.87,-2.8883,-2.9387,-2.9564,-2.9059,-2.8895,-2.8816,-2.8749,-2.8706,-2.8682,-2.8643,-2.8612,-2.8662,-2.8834,-2.8962,-2.9101,-2.9301,-2.9531,-2.9673,-3.3122,-3.2666,-3.0619,-2.8971,-2.7643,-2.6974,-2.6727,-2.6767,-2.6759,-2.6287,-2.5511,-2.6082,-2.6225,-2.598,-2.5876,-2.5972,-2.62,-2.5376,-2.5469,-2.6181,-2.5522,-2.5217,-2.5226,-2.5392,-2.4931,-2.3945,-2.3951,-2.3847,-2.3653,-2.3378,-2.341,-2.3685,-2.2778,-2.1814,-2.0958,-2.1698,-2.1854,-2.129,-2.2519,-2.3357,-2.3813,-2.3887,-2.4351,-2.5279,-2.5689,-2.5901,-2.5919,-2.6809,-2.7013,-2.6357,-2.6023,-2.5243,-2.387,-2.068,0.0,0.0,0.0,0.0,0.0,0.0,0.0,0.0,0.0,-1.7399,-1.6369,0.0,-1.84,0.0,-2.0469,-2.1734,-2.2392,-2.27,0.0,0.0,-2.3736,-2.3987,-2.4724,-2.4683,-2.485,-2.5616,-2.6265,-2.6935,-2.7577,-2.8381,-2.8922,-2.9033,-2.8934,-2.8863,-2.8881,-2.8834,-2.8816,-2.8816,-2.8798,-2.8816,-2.8743,-2.8323,-2.8169,-2.8849,-2.8622,-2.8457,-2.8885,-2.8959,-2.8917,-2.887,-2.881,-2.8761,-2.87,-2.8637,-2.8612,-2.8687,-2.8938,-2.9126,-2.9134,-2.9415,-2.9691,-3.388,-3.3481,-3.1692,-3.0312,-2.9199,-2.813,-2.7677,-2.7666,-2.7644,-2.7142,-2.633,-2.6388,-2.6388,-2.632,-2.6279,-2.6396,-2.6557,-2.6046,-2.6125,-2.6733,-2.6259,-2.5852,-2.5511,-2.5681,-2.5106,-2.3876,-2.3842,-2.3656,-2.3375,-2.3408,-2.3543,-2.3677,-2.3271,-2.272,-2.2014,-2.2248,-2.2297,-2.2066,-2.2845,-2.3471,-2.3829,-2.3405,-2.3457,-2.4077,-2.4561,-2.4847,-2.4892,-2.5684,-2.6012,-2.572,-2.5457,-2.502,-2.4298,-2.1735,-1.9894,0.0,0.0,0.0,0.0,0.0,0.0,0.0,0.0,0.0,0.0,0.0,-2.0082,-2.0336,-2.1912,-2.3118,-2.3591,-2.3886,-2.4215,-2.4586,-2.4577,-2.4695,-2.5062,-2.5018,-2.5227,-2.6042,-2.6515,-2.7124,-2.8006,-2.8624,-2.8998,-2.9033,-2.8727,-2.8624,-2.8932,-2.8952,-2.8929,-2.8929,-2.8929,-2.877,-2.8436,-2.7698,-2.7365,-2.7801,-2.7879,-2.786,-2.7959,-2.8546,-2.8872,-2.8484,-2.8608,-2.8792,-2.8706,-2.8632,-2.86,-2.865,-2.8887,-2.9023,-2.8943,-2.9262,-2.9551,-3.4213,-3.3861,-3.229,-3.1404,-3.0997,-2.9701,-2.9072,-2.894,-2.8846,-2.8397,-2.7704,-2.6834,-2.6467,-2.6512,-2.6512,-2.657,-2.6695,-2.6585,-2.6688,-2.6866,-2.6857,-2.6428,-2.5685,-2.5764,-2.5112,-2.3813,-2.3638,-2.3324,-2.2863,-2.3298,-2.3459,-2.3338,-2.377,-2.3863,-2.362,-2.3012,-2.2795,-2.2896,-2.3096,-2.3197,-2.3194,-2.2764,-2.2576,-2.2693,-2.3408,-2.3817,-2.3932,-2.4719,-2.5222,-2.5362,-2.4977,-2.4728,-2.4692,-2.2825,-2.1297,0.0,-1.9143,0.0,0.0,0.0,0.0,0.0,0.0,0.0,0.0,-2.1238,-2.1871,-2.2098,-2.3567,-2.4472,-2.4488,-2.5102,-2.5457,-2.534,-2.5269,-2.5195,-2.5099,-2.5107,-2.5511,-2.6562,-2.687,-2.7434,-2.8494,-2.8906,-2.9119,-2.9064,-2.8478,-2.8267,-2.8773,-2.8787,-2.8647,-2.8787,-2.8787,-2.8338,-2.7728,-2.6982,-2.6468,-2.6542,-2.6975,-2.7258,-2.6605,-2.7798,-2.859,-2.7983,-2.8346,-2.8779,-2.8737,-2.8662,-2.863,-2.86,-2.8798,-2.8922,-2.8915,-2.9174,-2.9373,-3.5217,-3.506,-3.3846,-3.2888,-3.2104,-3.0932,-2.9934,-2.9141,-2.8917,-2.8682,-2.8415,-2.7574,-2.7544,-2.8129,-2.8165,-2.8197,-2.8227,-2.7656,-2.778,-2.8453,-2.793,-2.7256,-2.6483,-2.6509,-2.5529,-2.3779,-2.3526,-2.3666,-2.4122,-2.4201,-2.4609,-2.5402,-2.5636,-2.5631,-2.5399,0.0,0.0,0.0,-2.4763,-2.4309,-2.3263,-2.3197,-2.2974,-2.2494,-2.2665,0.0,-2.2917,-2.4221,-2.4723,-2.4298,-2.5342,0.0,0.0,0.0,0.0,0.0,0.0,0.0,0.0,0.0,0.0,0.0,-2.4243,-2.3881,-2.2312,-2.3126,-2.3791,-2.3919,-2.4829,-2.5445,-2.5429,-2.5524,-2.5582,-2.5549,-2.5379,-2.5245,-2.5201,-2.5131,-2.537,-2.5992,-2.6605,-2.7298,-2.8019,-2.8702,-2.9093,-2.9027,-2.8484,-2.8088,-2.8167,-2.7645,-2.7198,-2.7161,-2.7263,-2.7124,-2.6929,-2.6247,-2.5713,-2.5751,-2.5806,-2.5916,-2.5913,-2.7061,-2.8088,-2.7813,-2.8379,-2.8839,-2.8798,-2.8737,-2.8662,-2.8594,-2.865,-2.8755,-2.8982,-2.9272,-2.9502,-3.55,0.0,-3.4376,-3.3436,0.0,-3.1421,-3.0396,-2.9475,-2.906,-2.8815,-2.8614,-2.8178,-2.8219,-2.86,-2.86,-2.8637,-2.8676,-2.8312,-2.8397,-2.8821,-2.8514,-2.7724,-2.6612,-2.6628,-2.5581,-2.3635,-2.3807,-2.3898,-2.3932,-2.4535,-2.5063,-2.5465,-2.5951,-2.6114,-2.5954,-2.5917,-2.5664,-2.5183,-2.5261,-2.4728,-2.366,-2.3828,-2.3638,-2.3025,0.0,0.0,0.0,0.0,0.0,0.0,0.0,0.0,0.0,0.0,0.0,-2.3395,-2.3837,-2.3981,-2.3645,-2.4465,-2.5269,-2.5931,-2.671,-2.642,-2.4618,-2.5127,-2.5371,-2.5035,-2.5405,-2.5661,-2.57,-2.5636,-2.5605,-2.56,-2.5415,-2.5283,-2.5215,-2.5153,-2.5316,-2.5869,-2.6306,-2.6769,-2.7342,-2.8196,-2.8452,-2.8077,-2.7807,-2.7428,-2.6989,-2.6887,-2.686,-2.6841,-2.6365,-2.6111,-2.6037,-2.5457,-2.4921,-2.4958,-2.5577,-2.5853,-2.5556,-2.6825,-2.7889,-2.7835,-2.8079,-2.8388,-2.8754,-2.8755,-2.8682,-2.8662,-2.8625,-2.8731,-2.9049,-2.9262,-2.9343,-3.55,-3.5423,-3.4658,-3.3747,-3.2727,-3.1802,-3.0801,-2.9748,0.0,0.0,0.0,-2.86,-2.86,-2.86,-2.86,-2.8637,-2.8694,-2.8724,-2.8743,-2.881,-2.8822,-2.8091,-2.6768,-2.6804,-2.5848,-2.4084,-2.4433,-2.4327,-2.381,-2.4808,-2.5212,-2.5118,-2.5799,-2.6096,-2.6008,-2.6117,-2.5903,-2.5478,-2.5454,-2.498,-2.405,-2.4438,-2.4369,-2.3728,-2.4364,-2.478,-2.4903,-2.5082,-2.518,-2.5192,-2.5458,-2.5558,-2.5478,-2.5733,-2.5833,-2.5748,-2.5956,-2.6115,-2.6206,-2.6512,-2.7101,-2.8023,-2.8459,-2.8108,-2.6693,-2.6718,-2.6428,-2.5671,-2.56,-2.5619,-2.569,-2.5661,-2.5614,-2.5614,-2.5434,-2.5299,-2.5255,-2.5149,-2.5291,-2.5754,-2.6,-2.6261,-2.6709,-2.753,-2.7848,-2.714,-2.703,-2.6672,-2.5928,-2.6126,-2.6435,-2.6362,-2.58,-2.5356,-2.5245,-2.4866,-2.4358,-2.445,-2.5708,-2.6399,-2.5981,-2.6827,-2.7771,-2.7838,-2.7772,-2.8075,-2.8722,-2.8791,-2.8706,-2.8694,-2.87,-2.8767,-2.9086,-2.922,-2.9262,-3.55,-3.5474,-3.5285,-3.4278,-3.2772,-3.2632,-3.1508,-2.9786,-2.9227,-2.885,-2.86,-2.86,-2.86,-2.86,-2.86,-2.8619,-2.8712,-2.8743,-2.8803,0.0,-2.8929,-2.8487,-2.7647,-2.7684,-2.7115,-2.6023,-2.5602,-2.5459,-2.5517,-2.5326,-2.5325,-2.5599,-2.5832,-2.5934,-2.5917,-2.599,-2.5901,-2.5682,-2.5984,-2.5428,-2.3968,-2.4861,-2.4958,-2.4188,-2.4566,-2.4814,-2.4905,-2.5536,-2.5924,-2.6041,-2.6755,-2.6976,-2.6532,-2.6796,-2.6741,-2.6294,-2.6808,-2.723,-2.7373,-2.7943,-2.8537,-2.9067,-2.8879,-2.8334,-2.7504,-2.6935,-2.6352,-2.5685,-2.5598,-2.5618,-2.5687,-2.5684,-2.5676,-2.5666,-2.5503,-2.5363,-2.5352,-2.5222,-2.5152,-2.5273,-2.5763,-2.6133,-2.6332,-2.6995,-2.7395,-2.7195,-2.662,-2.6075,-2.5444,-2.5078,-2.5027,-2.5011,-2.4912,-2.4775,-2.474,-2.4585,-2.4483,-2.4464,-2.582,-2.6636,-2.5921,-2.6954,-2.7909,-2.7882,-2.7827,-2.8065,-2.8697,-2.8846,-2.8737,-2.87,-2.8767,-2.8902,-2.9016,-2.9262,-2.9465,-3.55,-3.5493,-3.542,-3.4393,-3.2734,-3.1797,-3.0784,-2.9794,-2.9379,-2.9064,-2.8815,-2.8706,-2.8662,-2.8657,-2.8737,-2.8743,-2.8779,-2.929,-2.9515,-2.9533,-2.999,-2.9557,-2.8476,-2.8477,-2.7743,-2.6428,-2.6626,-2.6532,-2.6144,-2.6183,-2.6135,-2.5926,-2.583,-2.5846,-2.5954,-2.5954,-2.5901,-2.5883,-2.6118,-2.564,-2.4495,-2.5548,-2.5764,-2.4991,-2.5648,-2.6059,-2.609,-2.666,-2.6999,-2.7055,-2.7664,-2.7873,-2.77,-2.7879,-2.79,-2.7679,-2.8047,-2.8301,-2.8359,-2.8776,-2.9227,-2.9616,-2.9044,-2.835,-2.7586,-2.6998,-2.6326,-2.5635,-2.5568,-2.5607,-2.5644,-2.5677,-2.5703,-2.5698,-2.5522,-2.5392,-2.5372,-2.5254,-2.5168,-2.5175,-2.5417,-2.5609,-2.5583,-2.6313,-2.6559,-2.6163,-2.569,-2.5449,-2.5288,-2.5101,-2.4949,-2.4923,-2.4799,-2.4678,-2.461,-2.4549,-2.4675,-2.5039,-2.6117,-2.6822,-2.682,-2.7631,-2.7875,-2.7922,-2.7838,-2.7934,-2.8292,-2.8235,-2.8359,-2.8706,-2.8471,-2.8522,-2.8946,-2.9385,-2.9608,-3.525,-3.4923,-3.5259,-3.4371,-3.2668,-3.1157,-3.0373,-3.0143,-2.9626,-2.939,-2.9333,-2.8906,-2.8676,-2.8706,-2.8858,-2.8973,-2.9205,-2.9801,-3.018,-3.0399,-3.0984,-3.0594,-2.9545,-2.9384,-2.8572,-2.7419,-2.7935,-2.779,-2.7088,-2.7386,-2.7097,-2.6262,-2.5858,-2.5775,-2.5937,-2.5899,-2.5936,-2.6008,-2.6099,-2.5781,-2.5129,-2.6047,-2.6286,-2.5915,-2.66,-2.7119,-2.7197,-2.7612,-2.7815,-2.7858,-2.8197,-2.844,-2.8554,-2.8712,-2.8819,-2.8918,-2.9008,-2.9093,-2.9137,-2.9307,-2.9561,-2.9839,-2.892,-2.8104,-2.7553,-2.6801,-2.614,-2.5584,-2.5544,-2.5598,-2.5603,-2.5667,-2.5702,-2.57,-2.5557,-2.5444,-2.5388,-2.5288,-2.5206,-2.5214,-2.5204,-2.5174,-2.5231,-2.5719,-2.5876,-2.5307,-2.5072,-2.5184,-2.5359,-2.5322,-2.5239,-2.5118,-2.4917,-2.4708,-2.4678,-2.4564,-2.475,-2.5373,-2.6247,-2.6943,-2.7469,-2.7781,-2.8136,-2.8164,-2.7981,-2.7993,-2.8026,-2.786,-2.8066,-2.8548,-2.8191,-2.7937,-2.8814,-2.9401,-2.9681,-3.4584,-3.3474,-3.4693,-3.4293,-3.2657,-3.1732,-3.1336,-3.1154,-2.9973,-2.9847,-3.0336,-2.9239,-2.8724,-2.8718,-2.8827,-2.9307,-3.0002,-3.0143,-3.0619,-3.1281,-3.1372,-3.1292,-3.1085,-3.0567,-3.0196,-2.9952,-2.995,-2.9575,-2.893,-2.8905,-2.8107,-2.6584,-2.5951,-2.5719,-2.5756,-2.5828,-2.5917,-2.5992,-2.5954,-2.5809,-2.5591,-2.5885,-2.6139,-2.6352,-2.6774,-2.7168,-2.7419,-2.776,-2.7911,-2.7996,-2.825,-2.8491,-2.8688,-2.8941,-2.9126,-2.9251,-2.9322,-2.9385,-2.9447,-2.9485,-2.9626,-2.9761,-2.8436,-2.7566,-2.7501,-2.6219,-2.538,-2.538,-2.5466,-2.5543,-2.56,-2.5665,-2.5702,-2.57,-2.5621,-2.5534,-2.5421,-2.532,-2.5269,-2.5217,-2.5209,-2.5212,-2.5255,-2.5461,-2.5476,-2.5351,-2.534,-2.5387,-2.5412,-2.5421,-2.5364,-2.5208,-2.5005,-2.4799,-2.4602,-2.4525,-2.463,-2.4816,-2.5912,-2.6767,-2.7138,-2.7673,-2.8207,-2.8226,-2.8319,-2.8099,-2.8253,-2.8288,-2.7858,-2.8164,-2.7845,-2.7373,-2.8396,-2.9238,-2.9652,-3.3853,-3.368,-3.3772,-3.3405,-3.2623,-3.1806,-3.1737,-3.2077,-3.0934,-3.0537,-3.0663,-3.0035,-2.9395,-2.8785,-2.8987,-2.9485,-3.0228,-3.0759,-3.1434,-3.2156,-3.259,-3.2585,-3.2157,-3.2085,-3.1734,-3.1217,-3.1266,-3.1023,-3.0386,-2.9292,-2.8082,-2.6994,-2.611,-2.5661,-2.5682,-2.5513,-2.5473,-2.5516,-2.5457,-2.5378,-2.5359,-2.5828,-2.6118,-2.6189,-2.647,-2.6825,-2.7181,-2.7502,-2.7833,-2.821,-2.8565,-2.8855,-2.9104,-2.9262,-2.9373,-2.9472,-2.9532,-2.9626,-2.9726,-2.9726,-2.9779,-2.9907,-2.8392,-2.746,-2.7402,-2.6091,-2.5238,-2.5274,-2.5414,-2.5534,-2.5591,-2.5632,-2.5638,-2.5681,-2.5611,-2.5504,-2.5402,-2.5301,-2.5217,-2.522,-2.5209,-2.5217,-2.5257,-2.5337,-2.5393,-2.5393,-2.5429,-2.5452,-2.5456,-2.5484,-2.54,-2.5239,-2.5066,-2.4876,-2.4665,-2.4549,-2.4703,-2.516,-2.5717,-2.6238,-2.6878,-2.7526,-2.8022,-2.7851,-2.7825,-2.7687,-2.7438,-2.6995,-2.6559,-2.7123,-2.7786,-2.7625,-2.8351,-2.9054,-2.9486,-3.3327,-3.341,-3.2992,-3.2747,-3.2638,-3.226,-3.2439,-3.2832,-3.1889,-3.1326,-3.1109,-3.0704,-2.9917,-2.899,-2.9096,-2.9664,-3.057,-3.1267,-3.2066,-3.2934,-3.3563,-3.3503,-3.3073,-3.2992,-3.2705,-3.2218,-3.2257,-3.2165,-3.1652,-3.0011,-2.8647,-2.7781,-2.6634,-2.5968,-2.5775,-2.5419,-2.5266,-2.5326,-2.5285,-2.5266,-2.5343,-2.5775,-2.6046,-2.603,-2.6209,-2.6505,-2.6924,-2.7239,-2.7625,-2.8148,-2.8609,-2.8989,-2.9262,-2.9404,-2.9531,-2.9626,-2.9682,-2.9717,-2.9771,-2.9851,-2.9876,-2.9689,-2.8358,-2.7464,-2.7161,-2.6047,-2.5248,-2.5185,-2.5393,-2.5525,-2.5589,-2.5598,-2.563,-2.5682,-2.5586,-2.5487,-2.5418,-2.5287,-2.5217,-2.5201,-2.5204,-2.5198,-2.5219,-2.5322,-2.5402,-2.5385,-2.5425,-2.5433,-2.5488,-2.5488,-2.5432,-2.523,-2.5113,-2.4962,-2.4749,-2.4588,-2.486,-2.5169,-2.5485,-2.5959,-2.6535,-2.7174,-2.7596,-2.7307,-2.7438,-2.7366,-2.699,-2.6227,-2.5558,-2.6148,-2.6936,-2.7632,-2.7754,-2.8659,-2.9212,-3.3237,-3.2036,-3.2538,-3.2732,-3.2648,-3.338,-3.377,-3.3789,-3.2707,-3.2156,-3.1881,-3.1102,-3.002,-2.9078,-2.9214,-2.9985,-3.128,-3.152,-3.2385,-3.3666,-3.3778,-3.381,-3.3802,-3.3154,-3.2941,-3.3089,-3.306,-3.2988,-3.2799,-3.1582,-3.0346,-2.9093,-2.7798,-2.6819,-2.615,-2.5754,-2.5619,-2.5666,-2.5649,-2.5666,-2.5701,-2.5703,-2.5905,-2.6068,-2.6087,-2.6245,-2.6607,-2.6935,-2.7247,-2.7613,-2.8103,-2.8585,-2.8986,-2.9314,-2.9541,-2.9672,-2.9699,-2.9598,-2.9495,-2.9699,-2.9761,-2.9419,-2.8326,-2.7456,-2.7244,-2.6111,-2.5294,-2.5121,-2.5351,-2.5518,-2.558,-2.5609,-2.5624,-2.5683,-2.5637,-2.5537,-2.5409,-2.5324,-2.5269,-2.5225,-2.5209,-2.5228,-2.5298,-2.5351,-2.5382,-2.54,-2.5444,-2.5488,-2.5507,-2.5507,-2.5423,-2.5279,-2.5173,-2.5066,-2.4778,-2.461,-2.4551,-2.4741,-2.5206,-2.5633,-2.5968,-2.6284,-2.6543,-2.6706,-2.6722,-2.6643,-2.646,-2.6109,-2.5615,-2.598,-2.6955,-2.7477,-2.7483,-2.8545,-2.9108,-3.2557,-3.2487,-3.2663,-3.2997,-3.3429,-3.3543,-3.4024,-3.4598,-3.3469,-3.2656,-3.2317,-3.2252,-3.1362,-2.9865,-3.0396,-3.0918,-3.1452,-3.201,-3.2838,-3.3773,-3.382,-3.3855,-3.3935,-3.3808,-3.3773,-3.3839,-3.3968,-3.3839,-3.3387,-3.2311,-3.1057,-2.9732,-2.8526,-2.7454,-2.6571,-2.6071,-2.5875,-2.5878,-2.5895,-2.5895,-2.5931,-2.6176,-2.6263,-2.6086,-2.5596,-2.5357,-2.5478,-2.5487,-2.5906,-2.6797,-2.7198,-2.7765,-2.8555,-2.9172,-2.9569,-2.9645,-2.9541,-2.9435,-2.9424,-2.9377,-2.9436,-2.9429,-2.8639,-2.7829,-2.7289,-2.6517,-2.5778,-2.5319,-2.5346,-2.5498,-2.554,-2.5572,-2.5616,-2.5663,-2.5594,-2.5515,-2.5418,-2.5318,-2.5238,-2.5212,-2.5204,-2.5228,-2.5303,-2.5361,-2.5393,-2.5391,-2.5417,-2.5456,-2.5507,-2.5507,-2.5468,-2.5354,-2.5235,-2.5141,-2.5061,-2.4782,-2.4623,-2.4579,-2.4778,-2.4899,-2.5159,-2.5745,-2.6089,-2.5938,-2.5946,-2.5889,-2.5725,-2.5853,-2.5426,-2.5688,-2.667,-2.7412,-2.7372,-2.8453,-2.8938,-3.2198,-3.2832,-3.2749,-3.3165,-3.3843,-3.3904,-3.4188,-3.4599,-3.4055,-3.322,-3.2475,-3.292,-3.2284,-3.105,-3.1568,-3.1875,-3.1837,-3.2408,-3.3075,-3.377,-3.3807,-3.3887,-3.3992,-3.4148,-3.4255,-3.4321,-3.4506,-3.4269,-3.3522,-3.2692,-3.151,-3.0087,-2.9052,-2.8103,-2.7198,-2.6687,-2.6471,-2.6488,-2.6488,-2.6488,-2.6521,-2.6804,-2.6706,-2.6215,-2.5664,-2.5195,-2.4843,-2.4585,-2.4939,-2.5976,-2.6437,-2.722,-2.8494,-2.9183,-2.956,-2.9655,-2.955,-2.9404,-2.9363,-2.9251,-2.9225,-2.9301,-2.8736,-2.8049,-2.729,-2.673,-2.6039,-2.5428,-2.5313,-2.5445,-2.5509,-2.5569,-2.5629,-2.5661,-2.5576,-2.5482,-2.5451,-2.5311,-2.5222,-2.5217,-2.5209,-2.5238,-2.5313,-2.5365,-2.5397,-2.54,-2.5421,-2.5456,-2.5488,-2.5507,-2.5634,-2.5768,-2.5794,-2.5931,-2.5964,-2.5836,-2.5142,-2.4972,-2.5028,-2.4883,-2.482,-2.538,-2.5579,-2.5319,-2.5142,-2.5085,-2.5164,-2.5364,-2.552,-2.5634,-2.6445,-2.7397,-2.7755,-2.836,-2.8706,-3.2279,-3.2897,-3.2776,-3.3112,-3.3855,-3.45,-3.4368,-3.3913,-3.4443,-3.3689,-3.2408,-3.2983,-3.2735,-3.194,-3.2447,-3.2723,-3.2658,-3.2737,-3.3128,-3.3752,-3.382,-3.39,-3.3998,-3.4036,-3.4221,-3.4506,-3.4534,-3.405,-3.3189,-3.2686,-3.1689,-3.0369,-2.9575,-2.8784,-2.7972,-2.7624,-2.7476,-2.7461,-2.7446,-2.7476,-2.7505,-2.7523,-2.7187,-2.6602,-2.6403,-2.5925,-2.5028,-2.4446,-2.4632,-2.5473,-2.5977,-2.7108,-2.8734,-2.9324,-2.9541,-2.9664,-2.9692,-2.9569,-2.9334,-2.9343,-2.923,-2.9116,-2.8639,-2.8053,-2.7216,-2.6696,-2.6104,-2.5378,-2.5268,-2.536,-2.5484,-2.5563,-2.5639,-2.5675,-2.5586,-2.5498,-2.546,-2.5329,-2.5212,-2.5212,-2.5212,-2.5273,-2.5356,-2.5393,-2.5395,-2.5412,-2.5452,-2.5488,-2.5488,-2.5507,-2.5847,-2.6387,-2.6482,-2.6487,-2.6798,-2.6973,-2.611,-2.5469,-2.5582,-2.5566,-2.5319,-2.5585,-2.5773,-2.5569,-2.5096,-2.5029,-2.5419,-2.5664,-2.6166,-2.6431,-2.7084,-2.7507,-2.7931,-2.8377,-2.8481,-3.3081,-3.3653,-3.3003,-3.3126,-3.3812,-3.4281,-3.4387,-3.4354,-3.4274,-3.3629,-3.3055,-3.3598,-3.3366,-3.2827,-3.3284,-3.3578,-3.3487,-3.3466,-3.3568,-3.3765,-3.3842,-3.3908,-3.3985,-3.4049,-3.4161,-3.42,-3.3738,-3.3652,-3.3587,-3.2616,-3.1651,-3.1047,-3.0283,-2.9397,-2.8402,-2.8283,-2.8244,-2.8205,-2.8174,-2.8187,-2.8174,-2.8187,-2.7964,-2.7531,-2.719,-2.6661,-2.5942,-2.4978,-2.4823,-2.5486,-2.576,-2.6807,-2.8469,-2.9262,-2.956,-2.9655,-2.9531,-2.9404,-2.9332,-2.9251,-2.9241,-2.9246,-2.9203,-2.851,-2.7433,-2.7135,-2.6505,-2.5444,-2.5262,-2.5351,-2.5476,-2.554,-2.5609,-2.5629,-2.5555,-2.5498,-2.5483,-2.5329,-2.5243,-2.5257,-2.5257,-2.5307,-2.5365,-2.5397,-2.54,-2.5401,-2.546,-2.5507,-2.5507,-2.5569,-2.5824,-2.6504,-2.6679,-2.7186,-2.7692,-2.7865,-2.7292,-2.6668,-2.6564,-2.6329,-2.6049,-2.6047,-2.6162,-2.5866,-2.5372,-2.5276,-2.5635,-2.6165,-2.6738,-2.7131,-2.761,-2.788,-2.8046,-2.8288,-2.8528,-3.2869,-3.4052,-3.3121,-3.3153,-3.3857,-3.4199,-3.4446,-3.4545,-3.4142,-3.3926,-3.3973,-3.4146,-3.4111,-3.3889,-3.4006,-3.3985,-3.3913,-3.3829,-3.3642,-3.3476,-3.3795,-3.3934,-3.4011,-3.408,-3.3956,-3.3696,-3.3243,-3.2939,-3.2854,-3.192,-3.1166,-3.0676,-3.0224,-2.9647,-2.8909,-2.8906,-2.8888,-2.8842,-2.883,-2.8837,-2.8844,-2.8844,-2.8706,-2.8361,-2.8084,-2.76,-2.6997,-2.6236,-2.5782,-2.5863,-2.6269,-2.7376,-2.8723,-2.9283,-2.9579,-2.9636,-2.956,-2.9463,-2.9443,-2.9293,-2.923,-2.9363,-2.9474,-2.8811,-2.7585,-2.7308,-2.6735,-2.5467,-2.5185,-2.5293,-2.54,-2.5549,-2.5595,-2.5605,-2.5539,-2.5471,-2.5429,-2.5312,-2.5248,-2.5268,-2.5287,-2.5322,-2.5374,-2.5402,-2.5408,-2.5433,-2.5464,-2.5515,-2.5573,-2.5801,-2.6333,-2.6968,-2.761,-2.8164,-2.8725,-2.8681,-2.8433,-2.8027,-2.7701,-2.7304,-2.6911,-2.7159,-2.7326,-2.6568,-2.6003,-2.5886,-2.619,-2.7016,-2.7645,-2.7937,-2.787,-2.8051,-2.8172,-2.8625,-2.8894,-3.1996,-3.3853,-3.3098,-3.3116,-3.3777,-3.4204,-3.4431,-3.4421,-3.4296,-3.4604,-3.4945,-3.4816,-3.4828,-3.5094,-3.4574,-3.4197,-3.3921,-3.3842,-3.3398,-3.3067,-3.3372,-3.3749,-3.3833,-3.3926,-3.3584,-3.299,-3.2743,-3.2075,-3.1214,-3.0753,-3.0246,-2.9736,-2.9663,-2.9481,-2.9343,-2.9453,-2.9412,-2.9322,-2.9332,-2.933,-2.9347,-2.9347,-2.9243,-2.8984,-2.892,-2.8609,-2.8063,-2.767,-2.716,-2.6471,-2.7382,-2.8337,-2.902,-2.9404,-2.9626,-2.9692,-2.9701,-2.9664,-2.9636,-2.9464,-2.9363,-2.9384,-2.9409,-2.8736,-2.7379,-2.7175,-2.6699,-2.5235,-2.5091,-2.5179,-2.5322,-2.5496,-2.5593,-2.5605,-2.5537,-2.5459,-2.5332,-2.5297,-2.5297,-2.5292,-2.5297,-2.5322,-2.5397,-2.5391,-2.5417,-2.5472,-2.5499,-2.5499,-2.5639,-2.6052,-2.6951,-2.7624,-2.8208,-2.893,-2.9432,-2.9459,-2.9226,-2.9115,-2.8759,-2.8326,-2.7902,-2.8113,-2.8361,-2.7574,-2.6738,-2.6646,-2.6787,-2.7499,-2.7604,-2.7338,-2.7489,-2.7907,-2.8316,-2.8669,-2.914,-3.2926,-3.2414,-3.2654,-3.2876,-3.3048,-3.3313,-3.4124,-3.5056,-3.4892,-3.5261,-3.5974,-3.6147,-3.5864,-3.5547,-3.5274,-3.4741,-3.417,-3.3913,-3.3406,-3.2755,-3.2862,-3.3112,-3.3234,-3.3275,-3.2878,-3.2094,-3.1424,-3.1045,-3.1129,-3.0068,-2.968,-3.0039,-2.9685,-2.954,-2.9482,-2.9492,-2.9463,-2.9402,-2.939,-2.9399,-2.9388,-2.9388,-2.9376,-2.9304,-2.9265,-2.9086,-2.8646,-2.7912,-2.7552,-2.7589,-2.8255,-2.8835,-2.9107,-2.9414,-2.9626,-2.9692,-2.9701,-2.9701,-2.9683,-2.9636,-2.9608,-2.9608,-2.9672,-2.901,-2.7397,-2.7301,-2.6585,-2.5425,-2.5105,-2.5204,-2.5313,-2.5473,-2.5585,-2.5585,-2.5549,-2.5456,-2.5335,-2.5298,-2.5298,-2.5293,-2.5293,-2.5332,-2.5369,-2.5395,-2.5417,-2.548,-2.5507,-2.5519,-2.5666,-2.6192,-2.7004,-2.7822,-2.8521,-2.9382,-2.9971,-3.0075,-3.0088,-3.0063,-2.9805,-2.9436,-2.9057,-2.8908,-2.9086,-2.8933,-2.7717,-2.7296,-2.7302,-2.7622,-2.7253,-2.6873,-2.7359,-2.7866,-2.8143,-2.8476,-2.9108,-3.2841,-3.2306,-3.2717,-3.2766,-3.2659,-3.2925,-3.3913,-3.5087,-3.511,-3.5956,-3.7086,-3.6946,-3.6733,-3.6565,-3.5876,-3.5212,-3.4585,-3.4113,-3.3237,-3.2182,-3.1845,-3.1942,-3.2182,-3.2298,-3.1849,-3.0974,-3.0345,-3.0131,-3.0088,-2.9386,-2.9381,-2.9632,-2.9685,-2.9588,-2.9502,-2.956,-2.9522,-2.9453,-2.9431,-2.9429,-2.9407,-2.9388,-2.9388,-2.9388,-2.937,-2.9188,-2.8642,-2.8015,-2.7915,-2.8294,-2.8526,-2.8764,-2.9275,-2.9521,-2.9673,-2.9701,-2.9701,-2.9701,-2.971,-2.9745,-2.96,-2.9422,-2.9609,-2.8836,-2.746,-2.7131,-2.6711,-2.5224,-2.5138,-2.5201,-2.5262,-2.545,-2.5582,-2.5597,-2.5563,-2.5495,-2.5339,-2.5322,-2.5313,-2.5308,-2.5317,-2.5341,-2.5387,-2.5395,-2.5437,-2.5491,-2.5518,-2.5518,-2.5607,-2.6304,-2.7024,-2.7821,-2.8661,-2.9496,-3.0084,-3.0248,-3.0275,-3.0327,-3.0265,-2.9998,-2.9766,-2.9464,-2.9317,-2.9148,-2.8433,-2.7986,-2.7947,-2.7694,-2.709,-2.6999,-2.7429,-2.7662,-2.7856,-2.8546,-2.9147,-3.2428,-3.296,-3.3072,-3.2941,-3.2776,-3.3014,-3.3913,-3.4947,-3.5,-3.6281,-3.7893,-3.7379,-3.7329,-3.7906,-3.6634,-3.5721,-3.5303,-3.4552,-3.3098,-3.182,-3.0844,-3.0508,-3.0888,-3.1201,-3.0711,-2.9841,-2.9647,-2.9215,-2.8941,-2.8915,-2.9012,-2.9178,-2.946,-2.9598,-2.954,-2.9569,-2.956,-2.9443,-2.9363,-2.9359,-2.9336,-2.9347,-2.9285,-2.9072,-2.8879,-2.862,-2.8164,-2.7874,-2.8046,-2.8736,-2.8247,-2.8521,-2.9316,-2.9533,-2.9701,-2.9701,-2.9701,-2.9701,-2.971,-2.9787,-2.952,-2.9039,-2.954,-2.9005,-2.7335,-2.7141,-2.684,-2.5372,-2.5176,-2.5225,-2.5255,-2.5444,-2.5573,-2.5602,-2.5605,-2.5545,-2.5447,-2.5354,-2.5308,-2.5303,-2.5351,-2.5384,-2.5387,-2.5393,-2.5426,-2.549,-2.551,-2.5506,-2.5711,-2.6283,-2.7032,-2.7815,-2.8671,-2.9545,-3.0006,-3.0377,-3.0371,-3.0379,-3.0329,-3.0152,-2.9978,-2.9692,-2.9345,-2.898,-2.8724,-2.8572,-2.8528,-2.8021,-2.7181,-2.7128,-2.7563,-2.7461,-2.7446,-2.8508,-2.9309,-3.371,-3.2179,-3.3476,-3.3846,-3.3586,-3.3393,-3.4009,-3.5175,-3.5106,-3.6103,-3.7501,-3.7708,-3.7782,-3.7931,-3.7385,-3.6826,-3.5501,-3.4894,-3.3851,-3.1549,-2.9819,-2.9156,-2.9366,-2.9978,-2.982,-2.9005,-2.8573,-2.8385,-2.8303,-2.8578,-2.8748,-2.879,-2.9361,-2.9655,-2.956,-2.9373,-2.9212,-2.918,-2.9152,-2.9127,-2.916,-2.923,-2.9006,-2.845,-2.7903,-2.7513,-2.7186,-2.6645,-2.672,-2.7382,-2.7941,-2.8277,-2.8699,-2.9326,-2.9664,-2.9701,-2.9701,-2.9683,-2.9719,-2.9767,-2.9518,-2.8878,-2.9468,-2.9385,-2.772,-2.7571,-2.724,-2.6261,-2.5707,-2.5477,-2.5451,-2.5534,-2.5615,-2.5644,-2.5633,-2.5599,-2.5549,-2.545,-2.5379,-2.5379,-2.538,-2.5388,-2.5391,-2.5417,-2.5453,-2.5498,-2.5524,-2.5513,-2.5834,-2.6243,-2.6963,-2.7731,-2.8418,-2.926,-3.0088,-3.0408,-3.0385,-3.0367,-3.0336,-3.028,-3.0105,-2.9975,-2.9661,-2.9446,-2.9269,-2.9135,-2.8867,-2.8118,-2.723,-2.7474,-2.7659,-2.7707,-2.7965,-2.8809,-2.9062,-3.3636,-3.2614,-3.3819,-3.4148,-3.3788,-3.3533,-3.3861,-3.457,-3.4949,-3.5584,-3.6514,-3.7271,-3.7503,-3.7197,-3.705,-3.6436,-3.5554,-3.4172,-3.265,-3.087,-2.9537,-2.8798,-2.8414,-2.8884,-2.8922,-2.8183,-2.7996,-2.7908,-2.8034,-2.8376,-2.864,-2.8652,-2.9312,-2.9589,-2.9569,-2.9312,-2.9177,-2.9115,-2.9045,-2.8996,-2.9019,-2.8817,-2.8442,-2.7764,-2.7242,-2.6915,-2.6465,-2.6119,-2.5955,-2.6272,-2.7118,-2.7933,-2.84,-2.9167,-2.9626,-2.9673,-2.9692,-2.9738,-2.9789,-2.9864,-2.9665,-2.8895,-2.973,-2.915,-2.8423,-2.8132,-2.7731,-2.6813,-2.6174,-2.5917,-2.5643,-2.5639,-2.5666,-2.5682,-2.5684,-2.5644,-2.5625,-2.5513,-2.5447,-2.5438,-2.5439,-2.5433,-2.5449,-2.5437,-2.5464,-2.5508,-2.5541,-2.5554,-2.5525,-2.5997,-2.6796,-2.7516,-2.8141,-2.8965,-3.0011,-3.04,-3.0379,-3.0355,-3.0324,-3.0267,-3.0176,-3.0092,-2.9988,-2.9756,-2.9476,-2.9217,-2.8879,-2.8061,-2.7573,-2.7621,-2.7779,-2.8025,-2.825,-2.8531,-2.8585,-3.3188,-3.3282,-3.4202,-3.4352,-3.3968,-3.3845,-3.3867,-3.4041,-3.4586,-3.5058,-3.5371,-3.6519,-3.6679,-3.6332,-3.6142,-3.5989,-3.4981,-3.2994,-3.1075,-3.0331,-2.952,-2.881,-2.8391,-2.8383,-2.8327,-2.776,-2.7745,-2.7745,-2.7883,-2.8272,-2.8591,-2.87,-2.9272,-2.9569,-2.9531,-2.9351,-2.9166,-2.9104,-2.902,-2.9,-2.8975,-2.8614,-2.8126,-2.7289,-2.6625,-2.6268,-2.5816,-2.5589,-2.5432,-2.494,-2.6284,-2.7359,-2.8192,-2.9092,-2.9645,-2.9607,-2.9683,-2.9622,-2.9634,-2.9832,-2.9787,-2.9091,-2.9687,-2.955,-2.868,-2.8476,-2.8186,-2.7514,-2.6846,-2.6279,-2.5738,-2.5671,-2.5694,-2.5703,-2.5703,-2.5703,-2.5684,-2.5599,-2.5549,-2.5517,-2.5521,-2.5508,-2.5506,-2.5492,-2.5511,-2.5515,-2.5544,-2.557,-2.5541,-2.5729,-2.6489,-2.7261,-2.7892,-2.9,-3.008,-3.0451,-3.0428,-3.0365,-3.0329,-3.026,-3.0214,-3.013,-3.0026,-2.9845,-2.9588,-2.9318,-2.906,-2.8566,-2.8165,-2.7929,-2.8132,-2.8583,-2.8518,-2.8217,-2.8154,-3.3736,-3.3324,-3.4846,-3.5347,-3.5104,-3.4964,-3.463,-3.4337,-3.4398,-3.4711,-3.5164,-3.5568,-3.5924,-3.5973,-3.6209,-3.5515,-3.3889,-3.1862,-3.0672,-3.0205,-2.9503,-2.8761,-2.8509,-2.8285,-2.8061,-2.7786,-2.7716,-2.7716,-2.7883,-2.8324,-2.8615,-2.8724,-2.9293,-2.9608,-2.9492,-2.9293,-2.9158,-2.9104,-2.902,-2.9,-2.8968,-2.8894,-2.8258,-2.7072,-2.6042,-2.5338,-2.507,-2.4944,-2.4866,-2.4958,-2.645,-2.732,-2.7979,-2.8946,-2.9533,-2.9645,-2.965,-2.9485,-2.9315,-2.9741,-2.9338,-2.8676,-2.9086,-2.9582,-2.9114,-2.874,-2.8691,-2.8476,-2.7511,-2.6532,-2.5775,-2.5729,-2.5696,-2.5703,-2.5703,-2.5703,-2.5703,-2.5664,-2.5625,-2.5595,-2.5584,-2.5588,-2.5556,-2.5538,-2.5523,-2.5534,-2.5541,-2.5551,-2.5538,-2.5673,-2.6044,-2.683,-2.7611,-2.8914,-3.0253,-3.0417,-3.0487,-3.0414,-3.0371,-3.026,-3.02,-3.0161,-3.003,-2.9888,-2.9697,-2.9465,-2.9184,-2.8907,-2.8841,-2.8651,-2.8923,-2.9196,-2.9003,-2.8698,-2.8051,-3.4147,-3.4002,-3.519,-3.5593,-3.5399,-3.5329,-3.4975,-3.4488,-3.4416,-3.4218,-3.4264,-3.4705,-3.4959,-3.496,-3.5236,-3.4324,-3.2548,-3.1281,-3.0368,-2.9911,-2.9396,-2.9014,-2.8718,-2.844,-2.8166,-2.7954,-2.7786,-2.78,-2.7982,-2.842,-2.87,-2.8975,-2.9404,-2.9626,-2.9531,-2.9293,-2.9169,-2.9104,-2.9056,-2.9007,-2.8952,-2.8926,-2.797,-2.667,-2.5816,-2.5166,-2.4804,-2.5214,-2.5457,-2.591,-2.7167,-2.7942,-2.8472,-2.9027,-2.9748,-2.9723,-2.952,-2.9436,-2.9324,-2.9766,-2.944,-2.9486,-2.9728,-2.9984,-3.0003,-2.9808,-2.9457,-2.9058,-2.8036,-2.6788,-2.6385,-2.5957,-2.5742,-2.57,-2.5699,-2.5701,-2.5703,-2.5703,-2.5684,-2.5644,-2.5645,-2.5627,-2.5619,-2.5603,-2.5556,-2.5554,-2.5549,-2.5541,-2.5511,-2.5622,-2.5809,-2.6726,-2.7623,-2.8907,-3.0118,-3.042,-3.0531,-3.0482,-3.0409,-3.0304,-3.02,-3.0142,-3.0083,-3.0007,-2.9796,-2.958,-2.9387,-2.913,-2.9246,-2.926,-2.9092,-2.903,-2.9283,-2.9115,-2.8303,-3.439,-3.4569,-3.5364,-3.563,-3.5496,-3.5475,-3.517,-3.4756,-3.4617,-3.4102,-3.337,-3.4126,-3.4293,-3.3885,-3.3759,-3.3154,-3.1513,-3.0964,-3.0296,-2.9842,-2.9469,-2.9232,-2.8973,-2.8676,-2.835,-2.8098,-2.7876,-2.7901,-2.8156,-2.8496,-2.8825,-2.9115,-2.9443,-2.9617,-2.9569,-2.9636,-2.9371,-2.9192,-2.9326,-2.9307,-2.9012,-2.8483,-2.7587,-2.6274,-2.602,-2.552,-2.4869,-2.5466,-2.5988,-2.6553,-2.7501,-2.846,-2.8815,-2.9302,-2.9664,-2.9735,-2.9359,-2.9519,-2.9413,-2.9847,-2.9713,-2.9513,-3.016,-3.0354,-3.0475,-3.0303,-3.0342,-2.9462,-2.8277,-2.7148,-2.6756,-2.6144,-2.5785,-2.5683,-2.5686,-2.5693,-2.57,-2.5703,-2.5703,-2.5684,-2.5703,-2.5675,-2.5666,-2.5643,-2.5606,-2.557,-2.5569,-2.5529,-2.5515,-2.548,-2.5816,-2.6777,-2.7787,-2.8975,-2.991,-3.0441,-3.0547,-3.0571,-3.0458,-3.0367,-3.0235,-3.0118,-3.0079,-3.0019,-2.988,-2.9672,-2.9494,-2.9385,-2.9474,-2.9355,-2.8951,-2.9039,-2.9608,-2.9009,-2.7962,-3.4425,-3.4589,-3.5421,-3.578,-3.5741,-3.5674,-3.5529,-3.5259,-3.4958,-3.4659,-3.4147,-3.4185,-3.405,-3.3693,-3.3111,-3.2721,-3.2139,-3.1268,-3.066,-3.0381,-2.9842,-2.9424,-2.9048,-2.867,-2.8478,-2.8272,-2.8003,-2.8003,-2.8224,-2.8529,-2.883,-2.9166,-2.9547,-2.9683,-2.9794,-3.0307,-3.0213,-2.9692,-3.0073,-3.0112,-2.9478,-2.8762,-2.7923,-2.7058,-2.6378,-2.5684,-2.512,-2.5681,-2.6257,-2.6645,-2.7357,-2.7877,-2.8078,-2.8173,-2.87,-2.9283,-2.963,-2.9555,-2.892,-2.9322,-2.9611,-2.9164,-2.924,-2.9501,-2.9895,-3.0331,-3.0368,-2.9666,-2.863,-2.7688,-2.6917,-2.6155,-2.5792,-2.565,-2.5651,-2.5683,-2.5694,-2.5703,-2.5703,-2.5703,-2.5703,-2.5701,-2.5677,-2.5677,-2.5654,-2.5612,-2.5559,-2.5544,-2.5514,-2.5479,-2.5793,-2.6729,-2.768,-2.8838,-2.9801,-3.0329,-3.0586,-3.062,-3.0539,-3.0409,-3.0296,-3.0176,-3.0056,-2.9988,-2.9878,-2.9786,-2.9653,-2.9617,-2.9681,-2.9585,-2.9341,-2.9669,-3.0196,-2.913,-2.7725,-3.5137,-3.5228,-3.562,-3.5793,-3.5791,-3.5727,-3.5574,-3.54,-3.5212,-3.4968,-3.4658,-3.4475,-3.4232,-3.3864,-3.3173,-3.2822,-3.2588,-3.173,-3.1292,-3.1069,-3.0456,-3.0007,-2.9798,-2.9187,-2.8688,-2.8428,-2.825,-2.8174,-2.835,-2.8578,-2.8918,-2.9323,-2.995,-3.0396,-3.0346,-3.1144,-3.0907,-3.0387,-3.0087,-3.007,-2.997,-2.9429,-2.8437,-2.7271,-2.6856,-2.6236,-2.5804,-2.6218,-2.7035,-2.7649,-2.8538,-2.9085,-2.9286,-2.94,-2.9573,-2.922,-2.9545,-2.9573,-2.9496,-2.9303,-2.8962,-2.8913,-2.8846,-2.8952,-2.9431,-2.9836,-3.0049,-2.9585,-2.8712,-2.7798,-2.692,-2.6096,-2.5738,-2.5563,-2.5603,-2.5651,-2.5686,-2.5701,-2.5703,-2.5703,-2.5702,-2.5703,-2.5702,-2.5683,-2.5682,-2.5654,-2.5612,-2.56,-2.5543,-2.5478,-2.5957,-2.6683,-2.7612,-2.8612,-2.9524,-3.0253,-3.0587,-3.0684,-3.0613,-3.0494,-3.0356,-3.0228,-3.0136,-3.0041,-2.9942,-2.9861,-2.9786,-2.9787,-2.9787,-2.9796,-2.9777,-3.004,-3.0181,-2.9014,-2.7679,-3.5552,-3.5595,-3.5737,-3.5793,-3.5791,-3.5742,-3.5629,-3.5469,-3.5346,-3.5139,-3.4931,-3.4756,-3.4559,-3.4244,-3.372,-3.3443,-3.325,-3.2258,-3.1886,-3.1515,-3.0894,-3.0291,-2.9893,-2.9326,-2.8849,-2.8628,-2.8407,-2.8308,-2.8347,-2.859,-2.9005,-2.9609,-3.0292,-3.0881,-3.1352,-3.1923,-3.206,-3.1503,-3.0414,-3.0248,-3.0468,-2.9935,-2.8689,-2.7769,-2.7261,-2.7017,-2.632,-2.7035,-2.7937,-2.8529,-2.8779,-2.9014,-2.925,-2.8714,-2.8579,-2.836,-2.8491,-2.8863,-2.8954,-2.8864,-2.8466,-2.8456,-2.8702,-2.86,-2.9061,-2.9305,-2.9256,-2.9086,-2.8227,-2.7462,-2.6815,-2.6025,-2.565,-2.5532,-2.5551,-2.5621,-2.5676,-2.5695,-2.5703,-2.5703,-2.5702,-2.5702,-2.5703,-2.5702,-2.5703,-2.5703,-2.5674,-2.5648,-2.5578,-2.5515,-2.5786,-2.6409,-2.7551,-2.837,-2.9012,-2.9796,-3.0277,-3.0718,-3.0658,-3.0575,-3.0458,-3.0348,-3.0241,-3.0135,-3.0011,-2.9969,-2.9932,-2.9907,-2.9872,-2.988,-2.9913,-3.0041,-2.9794,-2.8695,-2.7579,-3.5151,-3.5361,-3.5674,-3.5788,-3.5786,-3.5742,-3.5698,-3.5639,-3.5425,-3.5285,-3.5197,-3.5047,-3.4813,-3.4566,-3.4414,-3.4211,-3.4017,-3.2518,-3.2091,-3.144,-3.0381,-2.9948,-2.9665,-2.9388,-2.8948,-2.8724,-2.8572,-2.8396,-2.8259,-2.8448,-2.9295,-3.0309,-3.0682,-3.1217,-3.1909,-3.2664,-3.302,-3.2416,-3.1269,-3.054,-3.0534,-2.9954,-2.8858,-2.7806,-2.7778,-2.7628,-2.6244,-2.7355,-2.8233,-2.8593,-2.823,-2.8046,-2.8158,-2.7472,-2.719,-2.7464,-2.7368,-2.7755,-2.7995,-2.8129,-2.777,-2.7567,-2.7717,-2.8184,-2.8543,-2.9171,-2.9051,-2.8367,-2.7671,-2.709,-2.6582,-2.6094,-2.5599,-2.5522,-2.5534,-2.5571,-2.5616,-2.5682,-2.5698,-2.5703,-2.5702,-2.5682,-2.5679,-2.5678,-2.5701,-2.5703,-2.5677,-2.5634,-2.5605,-2.5554,-2.5561,-2.6108,-2.739,-2.8158,-2.849,-2.9266,-3.042,-3.0754,-3.0725,-3.0659,-3.0568,-3.0458,-3.0315,-3.0202,-3.0104,-3.0079,-3.0053,-2.9988,-2.9956,-2.9972,-3.0023,-3.0044,-2.967,-2.8753,-2.7529,-3.512,-3.5328,-3.5437,-3.5579,-3.5732,-3.5708,-3.5713,-3.5693,-3.5587,-3.5457,-3.5304,-3.5224,-3.5049,-3.4851,-3.4663,-3.4559,-3.4353,-3.3711,-3.3006,-3.2332,-3.1459,-3.0692,-3.0243,-2.9564,-2.9191,-2.8952,-2.8796,-2.8626,-2.8419,-2.8406,-2.9442,-3.0356,-3.1004,-3.1952,-3.2753,-3.3208,-3.332,-3.2927,-3.1809,-3.0843,-3.0685,-3.0067,-2.9092,-2.8144,-2.8116,-2.8153,-2.759,-2.7515,-2.7999,-2.816,-2.771,-2.7502,-2.7459,-2.6795,-2.6795,-2.7026,-2.6848,-2.6896,-2.7094,-2.7271,-2.7132,-2.7099,-2.7265,-2.7645,-2.8099,-2.8911,-2.8496,-2.7845,-2.7403,-2.7059,-2.5937,-2.5692,-2.5522,-2.5518,-2.5511,-2.5515,-2.557,-2.5645,-2.5693,-2.5703,-2.5683,-2.568,-2.5675,-2.567,-2.5677,-2.5702,-2.566,-2.5622,-2.5603,-2.5584,-2.559,-2.6022,-2.7261,-2.8028,-2.8378,-2.9485,-3.0702,-3.0765,-3.0747,-3.0642,-3.054,-3.0486,-3.0342,-3.026,-3.018,-3.0128,-3.0076,-3.0046,-3.0038,-3.0046,-2.9968,-2.992,-2.9374,-2.867,-2.7568,-3.4658,-3.5066,-3.5174,-3.54,-3.5689,-3.5707,-3.5697,-3.5702,-3.5695,-3.5595,-3.5418,-3.5423,-3.5304,-3.5073,-3.4915,-3.4705,-3.4488,-3.4005,-3.3347,-3.2515,-3.1645,-3.1035,-3.0352,-2.9793,-2.9304,-2.9115,-2.8952,-2.8749,-2.8466,-2.8304,-2.9346,-3.0574,-3.1433,-3.2221,-3.3388,-3.3685,-3.3612,-3.306,-3.2112,-3.1033,-3.0893,-3.0114,-2.9288,-2.8585,-2.866,-2.8585,-2.8247,-2.7965,-2.7947,-2.7923,-2.7565,-2.7036,-2.6984,-2.7007,-2.7017,-2.6906,-2.6724,-2.6428,-2.6385,-2.6405,-2.6604,-2.6884,-2.7303,-2.7561,-2.7924,-2.8621,-2.8503,-2.6711,-2.6951,-2.6974,-2.5538,-2.5382,-2.5427,-2.54,-2.5421,-2.5432,-2.5534,-2.5607,-2.5665,-2.5701,-2.5664,-2.5635,-2.5645,-2.5636,-2.5661,-2.5675,-2.5684,-2.5658,-2.5651,-2.5643,-2.5641,-2.6247,-2.7204,-2.7813,-2.8363,-2.9348,-3.0253,-3.0615,-3.0574,-3.0492,-3.0404,-3.0399,-3.0386,-3.0297,-3.0215,-3.015,-3.0132,-3.0113,-3.0098,-3.0091,-3.0037,-2.9972,-2.89,-2.8183,-2.7518,-3.3639,-3.4586,-3.4888,-3.5276,-3.5649,-3.5711,-3.5701,-3.5697,-3.5701,-3.5698,-3.5637,-3.5651,-3.5547,-3.5292,-3.5109,-3.4766,-3.4365,-3.3773,-3.2914,-3.1868,-3.1385,-3.0373,-2.9802,-2.945,-2.9334,-2.9071,-2.8906,-2.8749,-2.8492,-2.8291,-2.9296,-3.0464,-3.1219,-3.2236,-3.4011,-3.4416,-3.414,-3.3371,-3.2451,-3.1644,-3.0875,-3.0096,-2.9242,-2.8914,-2.9017,-2.8979,-2.8633,-2.8034,-2.8006,-2.8143,-2.6779,-2.6227,-2.6313,-2.5774,-2.5611,-2.5601,-2.5646,-2.5605,-2.558,-2.562,-2.6194,-2.7049,-2.7649,-2.7884,-2.7634,-2.8161,-2.8547,-2.6809,-2.667,-2.6429,-2.5726,-2.5273,-2.5298,-2.5337,-2.534,-2.5394,-2.5495,-2.5591,-2.5636,-2.5698,-2.5642,-2.5601,-2.5608,-2.5616,-2.5639,-2.5659,-2.568,-2.5684,-2.5682,-2.5679,-2.5675,-2.6122,-2.6961,-2.7468,-2.8052,-2.8978,-2.9767,-3.0188,-3.0501,-3.0484,-3.0457,-3.046,-3.0418,-3.0339,-3.0254,-3.0185,-3.0197,-3.0204,-3.0164,-3.0142,-3.0176,-2.9889,-2.8742,-2.7962,-2.7615,-3.3563,-3.4593,-3.4685,-3.5011,-3.5432,-3.5618,-3.5709,-3.5695,-3.5709,-3.5704,-3.5704,-3.5704,-3.5668,-3.5399,-3.482,-3.4416,-3.4032,-3.3615,-3.2652,-3.1219,-3.1202,-3.0496,-2.9831,-2.9433,-2.9334,-2.9104,-2.8918,-2.8725,-2.851,-2.8277,-2.8758,-2.9825,-3.1279,-3.2659,-3.387,-3.4394,-3.4207,-3.34,-3.2536,-3.171,-3.0902,-2.9989,-2.9312,-2.8975,-2.9134,-2.9079,-2.8808,-2.8118,-2.7746,-2.7902,-2.641,-2.552,-2.5748,-2.5355,-2.5122,-2.5245,-2.5386,-2.5567,-2.5579,-2.573,-2.638,-2.7304,-2.7961,-2.8268,-2.8598,-2.9509,-2.881,-2.7581,-2.7121,-2.6823,-2.6321,-2.5436,-2.5223,-2.5298,-2.5331,-2.5394,-2.5476,-2.5552,-2.5623,-2.567,-2.5664,-2.5625,-2.5597,-2.5554,-2.5566,-2.5595,-2.5634,-2.5681,-2.5684,-2.5683,-2.57,-2.5992,-2.6537,-2.7062,-2.7704,-2.8612,-2.9226,-2.9606,-3.0195,-3.0655,-3.063,-3.0466,-3.0482,-3.0395,-3.0298,-3.0207,-3.0226,-3.0226,-3.0199,-3.0192,-3.0219,-3.0203,-2.9521,-2.89,-2.8508,-3.305,-3.4008,-3.4417,-3.4756,-3.5095,-3.5418,-3.5614,-3.5679,-3.5673,-3.5679,-3.5704,-3.5679,-3.5673,-3.5458,-3.4981,-3.4134,-3.3862,-3.3894,-3.2499,-3.1096,-3.1485,-3.0724,-2.989,-2.9472,-2.9345,-2.9126,-2.8883,-2.8688,-2.8417,-2.8219,-2.8859,-3.0044,-3.1337,-3.2584,-3.3644,-3.4092,-3.4102,-3.3401,-3.2689,-3.1885,-3.0908,-3.0039,-2.9454,-2.9163,-2.9042,-2.896,-2.8635,-2.7939,-2.7026,-2.7056,-2.623,-2.5017,-2.528,-2.5327,-2.5077,-2.5215,-2.5398,-2.5579,-2.561,-2.5644,-2.6365,-2.7497,-2.7963,-2.8423,-2.9095,-2.9813,-2.9285,-2.8415,-2.7906,-2.7222,-2.6478,-2.5564,-2.512,-2.5181,-2.5229,-2.5278,-2.5403,-2.5495,-2.5593,-2.5633,-2.5663,-2.5632,-2.5576,-2.5518,-2.5479,-2.5535,-2.5583,-2.5637,-2.5681,-2.5703,-2.5703,-2.5937,-2.6287,-2.6832,-2.7473,-2.8228,-2.8725,-2.9026,-2.9673,-3.0394,-3.0422,-3.0226,-3.033,-3.0452,-3.0373,-3.031,-3.0273,-3.0266,-3.0241,-3.0254,-3.0286,-3.0232,-3.0114,-2.9711,-2.9191,-3.2047,-3.2998,-3.4039,-3.4548,-3.4676,-3.5135,-3.5464,-3.5668,-3.5631,-3.5637,-3.5698,-3.5637,-3.5643,-3.5684,-3.5582,-3.477,-3.3861,-3.4283,-3.2713,-3.1453,-3.1307,-3.0489,-2.992,-2.9492,-2.9293,-2.9093,-2.8837,-2.8534,-2.8303,-2.8174,-2.8906,-3.024,-3.1236,-3.2368,-3.3218,-3.3771,-3.3819,-3.3424,-3.2791,-3.1901,-3.0884,-3.0058,-2.942,-2.9044,-2.8825,-2.8814,-2.8414,-2.764,-2.7103,-2.6578,-2.5606,-2.5067,-2.49,-2.499,-2.51,-2.5235,-2.546,-2.5534,-2.561,-2.5642,-2.5963,-2.6904,-2.7616,-2.7981,-2.8591,-2.948,-2.931,-2.869,-2.8042,-2.7262,-2.6472,-2.5706,-2.496,-2.5005,-2.5043,-2.5152,-2.5307,-2.5414,-2.5521,-2.558,-2.5605,-2.5587,-2.5549,-2.5486,-2.5453,-2.5499,-2.5554,-2.5561,-2.5615,-2.57,-2.5721,-2.578,-2.6172,-2.6679,-2.7262,-2.7707,-2.8285,-2.8607,-2.9255,-2.986,-2.9889,-3.0157,-3.0405,-3.0546,-3.0458,-3.0411,-3.0377,-3.0336,-3.0317,-3.0342,-3.0364,-3.0297,-3.0182,-3.0005,-2.9502,-3.204,-3.2981,-3.3856,-3.4353,-3.4655,-3.5089,-3.5348,-3.5416,-3.5522,-3.5608,-3.5618,-3.5606,-3.5523,-3.5665,-3.5046,-3.4077,-3.3465,-3.285,-3.1691,-3.0988,-3.0808,-3.0287,-2.9837,-2.9384,-2.9166,-2.8883,-2.8603,-2.8399,-2.8214,-2.8099,-2.8923,-3.0365,-3.0716,-3.1757,-3.2737,-3.3458,-3.3518,-3.34,-3.2778,-3.1959,-3.09,-2.9953,-2.9301,-2.8857,-2.8556,-2.8545,-2.8318,-2.7657,-2.739,-2.7721,-2.6669,-2.6087,-2.6181,-2.5842,-2.5584,-2.5361,-2.543,-2.5475,-2.5582,-2.5627,-2.5839,-2.6254,-2.6848,-2.7594,-2.8223,-2.8816,-2.9256,-2.871,-2.8185,-2.748,-2.6728,-2.5959,-2.5201,-2.4894,-2.4929,-2.5036,-2.5186,-2.5331,-2.5441,-2.5579,-2.5604,-2.5599,-2.5549,-2.5478,-2.5437,-2.5487,-2.5522,-2.5526,-2.5559,-2.5633,-2.5694,-2.5735,-2.5856,-2.6308,-2.6504,-2.6873,-2.759,-2.8224,-2.8934,-2.9661,-3.0122,-3.0422,-3.0607,-3.0625,-3.0556,-3.0506,-3.0465,-3.0439,-3.037,-3.0392,-3.0389,-3.0326,-3.0238,-3.0118,-2.9964,-3.201,-3.2921,-3.3728,-3.4215,-3.4483,-3.487,-3.507,-3.5179,-3.5442,-3.5534,-3.5451,-3.5123,-3.4989,-3.4764,-3.4032,-3.3152,-3.2187,-3.2357,-3.1503,-3.033,-3.0345,-3.0053,-2.9694,-2.9301,-2.9045,-2.8718,-2.8476,-2.8317,-2.814,-2.8177,-2.8809,-2.9828,-2.9947,-3.1026,-3.2098,-3.2693,-3.3031,-3.3053,-3.2793,-3.2177,-3.1206,-3.0115,-2.9453,-2.8815,-2.8482,-2.8336,-2.8298,-2.7648,-2.7725,-2.8087,-2.6947,-2.6554,-2.654,-2.612,-2.6151,-2.5997,-2.5972,-2.6273,-2.6517,-2.624,-2.6154,-2.6123,-2.6298,-2.6561,-2.7313,-2.7965,-2.8421,-2.8472,-2.8167,-2.7759,-2.6994,-2.6236,-2.5513,-2.4821,-2.4872,-2.493,-2.5083,-2.5235,-2.5396,-2.5558,-2.5605,-2.5614,-2.5556,-2.5466,-2.5437,-2.548,-2.5488,-2.546,-2.5511,-2.5563,-2.5606,-2.5661,-2.5671,-2.5834,-2.6014,-2.6347,-2.7087,-2.7958,-2.8885,-2.9595,-3.0242,-3.0583,-3.0682,-3.0675,-3.0639,-3.0459,-3.0171,-3.039,-3.0424,-3.0287,-3.0152,-3.0155,-3.0212,-3.0389,-3.0207,-3.2023,-3.2841,-3.361,-3.3994,-3.4203,-3.4405,-3.4636,-3.4908,-3.5255,-3.5383,-3.517,-3.4474,-3.4127,-3.3997,-3.33,-3.2385,-3.1827,-3.1832,-3.1248,-2.9748,-3.0207,-3.0064,-2.9541,-2.9233,-2.8966,-2.8663,-2.8414,-2.8242,-2.8081,-2.8131,-2.8493,-2.9251,-2.9281,-3.014,-3.14,-3.176,-3.202,-3.2102,-3.2409,-3.2293,-3.1791,-3.0991,-3.011,-2.929,-2.8649,-2.8173,-2.7921,-2.7544,-2.7102,-2.7027,-2.6844,-2.6524,-2.6387,-2.6181,-2.6424,-2.6662,-2.6562,-2.6853,-2.7128,-2.702,-2.6792,-2.6554,-2.6247,-2.6121,-2.6659,-2.7332,-2.7812,-2.7944,-2.7629,-2.7277,-2.659,-2.5995,-2.5324,-2.4833,-2.4689,-2.4871,-2.5111,-2.5286,-2.5474,-2.5597,-2.5604,-2.56,-2.558,-2.5502,-2.5437,-2.5464,-2.5417,-2.5385,-2.541,-2.548,-2.5522,-2.5568,-2.5618,-2.567,-2.5836,-2.6211,-2.6777,-2.7632,-2.8641,-2.9568,-3.0239,-3.0549,-3.0746,-3.0644,-3.0494,-3.002,-2.9776,-2.9835,-2.9714,-2.9495,-2.9473,-2.9808,-3.0022,-3.0083,-3.0139,-3.2469,-3.2741,-3.3056,-3.3525,-3.4031,-3.3761,-3.4033,-3.468,-3.4936,-3.5064,-3.5044,-3.4438,-3.3947,-3.3555,-3.2802,-3.1939,-3.1489,-3.1193,-3.0701,-3.0029,-2.9992,-2.9856,-2.9339,-2.9086,-2.8844,-2.8601,-2.8367,-2.8136,-2.8025,-2.8113,-2.8454,-2.9223,-2.92,-2.9719,-3.0604,-3.082,-3.0866,-3.0957,-3.1338,-3.1773,-3.1635,-3.0736,-2.9759,-2.9117,-2.8496,-2.7906,-2.7644,-2.7392,-2.7368,-2.7459,-2.7245,-2.6988,-2.6731,-2.625,-2.6315,-2.6693,-2.6973,-2.7236,-2.7523,-2.7596,-2.7395,-2.6976,-2.6595,-2.6214,-2.6289,-2.6805,-2.7084,-2.7104,-2.7006,-2.665,-2.6231,-2.5686,-2.5207,-2.4837,-2.452,-2.4835,-2.5124,-2.5344,-2.5549,-2.5592,-2.5599,-2.5587,-2.5572,-2.5529,-2.5479,-2.5404,-2.5298,-2.525,-2.5284,-2.5342,-2.5413,-2.5471,-2.5574,-2.5638,-2.5771,-2.5992,-2.6522,-2.7324,-2.8297,-2.9248,-3.0194,-3.054,-3.0752,-3.0531,-3.0279,-2.9776,-2.9232,-2.8816,-2.8689,-2.8585,-2.8744,-2.9041,-2.8932,-2.8934,-2.9275,-3.1764,-3.2139,-3.2286,-3.3031,-3.3858,-3.341,-3.3687,-3.4435,-3.4305,-3.4254,-3.4232,-3.3617,-3.307,-3.258,-3.1716,-3.1323,-3.0739,-3.0574,-3.0215,-2.9842,-2.9645,-2.9451,-2.9191,-2.8956,-2.8676,-2.844,-2.8041,-2.7832,-2.7821,-2.7839,-2.8118,-2.8695,-2.8784,-2.9024,-2.9635,-2.9647,-2.9648,-2.9658,-3.0056,-3.0521,-3.0946,-3.024,-2.967,-2.9067,-2.8327,-2.7715,-2.7453,-2.7274,-2.738,-2.7487,-2.7372,-2.7328,-2.7021,-2.657,-2.6747,-2.7137,-2.7424,-2.7466,-2.7886,-2.8039,-2.7921,-2.7561,-2.6856,-2.6447,-2.6259,-2.6657,-2.6257,-2.626,-2.6485,-2.6212,-2.5762,-2.5239,-2.5013,-2.4714,-2.4634,-2.4759,-2.5107,-2.5409,-2.5561,-2.5654,-2.5638,-2.5598,-2.5574,-2.5496,-2.5422,-2.5303,-2.521,-2.5159,-2.5184,-2.5214,-2.5297,-2.5387,-2.549,-2.557,-2.5654,-2.586,-2.6199,-2.7048,-2.7969,-2.9118,-3.0107,-3.0509,-3.0737,-3.0561,-3.0147,-2.9427,-2.8894,-2.8389,-2.788,-2.7725,-2.7957,-2.8244,-2.8052,-2.7878,-2.8181,-3.0876,-3.1593,-3.161,-3.2465,-3.3685,-3.3198,-3.3345,-3.3982,-3.3545,-3.3125,-3.2876,-3.2345,-3.158,-3.0866,-3.0058,-2.9842,-2.9793,-2.999,-2.9776,-2.9729,-2.9701,-2.9394,-2.9097,-2.8877,-2.8534,-2.8143,-2.7751,-2.75,-2.738,-2.7396,-2.7519,-2.7806,-2.793,-2.8052,-2.8291,-2.8391,-2.8434,-2.8562,-2.8869,-2.9313,-2.9555,-2.978,-2.9644,-2.9059,-2.8252,-2.7412,-2.7274,-2.7166,-2.723,-2.7433,-2.7518,-2.7407,-2.7226,-2.6821,-2.7166,-2.7495,-2.7622,-2.8006,-2.8526,-2.8614,-2.8528,-2.8205,-2.7296,-2.6763,-2.6566,-2.6125,-2.5718,-2.5663,-2.5886,-2.5721,-2.5278,-2.4896,-2.4697,-2.472,-2.4693,-2.4773,-2.512,-2.5454,-2.5579,-2.5678,-2.5658,-2.5614,-2.5559,-2.5476,-2.5365,-2.524,-2.5143,-2.5122,-2.5105,-2.513,-2.5184,-2.5305,-2.5434,-2.551,-2.5576,-2.5728,-2.5953,-2.667,-2.7623,-2.8925,-2.9939,-3.0152,-3.0402,-3.0671,-3.0158,-2.9347,-2.8642,-2.8107,-2.7602,-2.6996,-2.6982,-2.7165,-2.711,-2.7013,-2.7162,-3.1591,-3.2351,-3.1783,-3.2078,-3.2877,-3.2816,-3.2624,-3.2384,-3.2778,-3.2348,-3.1488,-3.1179,-3.0941,-3.105,-3.0095,-2.9765,-2.9855,-2.979,-2.9701,-2.9701,-2.9701,-2.9363,-2.8997,-2.8766,-2.8327,-2.7869,-2.745,-2.7315,-2.7001,-2.6952,-2.7034,-2.7161,-2.7145,-2.72,-2.7186,-2.7261,-2.7266,-2.7349,-2.7526,-2.7928,-2.8181,-2.8699,-2.979,-2.9414,-2.8863,-2.8012,-2.7423,-2.6892,-2.713,-2.7487,-2.764,-2.7417,-2.7141,-2.6846,-2.7085,-2.7385,-2.7546,-2.7909,-2.827,-2.869,-2.866,-2.8299,-2.7491,-2.6993,-2.6588,-2.592,-2.5602,-2.5451,-2.549,-2.5239,-2.4826,-2.4384,-2.417,-2.4522,-2.4677,-2.4923,-2.5216,-2.5446,-2.5626,-2.5662,-2.5654,-2.56,-2.558,-2.5467,-2.5354,-2.52,-2.5016,-2.4986,-2.4999,-2.5043,-2.5055,-2.5191,-2.5331,-2.5446,-2.5507,-2.5529,-2.58,-2.6463,-2.7154,-2.8245,-2.9059,-2.955,-2.9863,-3.0232,-2.9953,-2.9223,-2.8558,-2.7891,-2.7016,-2.6429,-2.6098,-2.6024,-2.6085,-2.6221,-2.645]},{"header":{"parameterUnit":"m.s-1","parameterCategory":1,"la1":31.0,"la2":29.5877,"lo1":-88.7671,"lo2":-86.6584,"dy":0.0162,"dx":0.0185,"nx":115,"ny":88,"refTime":"2024-06-02T18:00:00:Z","depth":0,"parameterNumber":3,"parameterNumberName":"V-component_of_WINDS"},"data":[0.0,0.0,0.0,0.0,0.0,0.0,0.0,0.0,0.0,0.0,0.0,0.0,0.0,0.0,0.0,0.0,0.0,0.0,0.0,0.0,0.0,0.0,0.0,0.0,0.0,0.0,0.0,0.0,0.0,0.0,0.0,0.0,0.0,0.0,0.0,0.0,0.0,0.0,0.0,0.0,0.0,0.0,0.0,0.0,0.0,0.0,0.0,0.0,0.0,0.0,0.0,0.0,0.0,0.0,0.0,0.0,0.0,0.0,0.0,0.0,0.0,0.0,0.0,0.0,0.0,0.0,0.0,0.0,0.0,0.0,0.0,0.0,0.0,0.0,0.0,0.0,0.0,0.0,0.0,0.0,0.0,0.0,0.0,0.0,0.0,0.0,0.0,0.0,0.0,0.0,0.0,0.0,0.0,0.0,0.0,0.0,0.0,0.0,0.0,0.0,0.0,0.0,0.0,0.0,0.0,0.0,0.0,0.0,0.0,0.0,0.0,0.0,0.0,0.0,0.0,0.0,0.0,0.0,0.0,0.0,0.0,0.0,0.0,0.0,0.0,0.0,0.0,0.0,0.0,0.0,0.0,0.0,0.0,0.0,0.0,0.0,0.0,0.0,0.0,0.0,0.0,0.0,0.0,0.0,0.0,0.0,0.0,0.0,0.0,0.0,0.0,0.0,0.0,0.0,0.0,0.0,0.0,0.0,0.0,0.0,0.0,0.0,0.0,0.0,0.0,0.0,0.0,0.0,0.0,0.0,0.0,0.0,0.0,0.0,0.0,0.0,0.0,0.0,0.0,0.0,0.0,0.0,0.0,0.0,0.0,0.0,0.0,0.0,0.0,0.0,0.0,0.0,0.0,0.0,0.0,0.0,0.0,0.0,0.0,0.0,0.0,0.0,0.0,0.0,0.0,0.0,0.0,0.0,0.0,0.0,0.0,0.0,0.0,0.0,0.0,0.0,0.0,0.0,0.0,0.0,0.0,0.0,0.0,0.0,0.0,0.0,0.0,0.0,0.0,0.0,0.0,0.0,0.0,0.0,0.0,0.0,0.0,0.0,0.0,0.0,0.0,0.0,0.0,0.0,0.0,0.0,0.0,0.0,0.0,0.0,0.0,0.0,0.0,0.0,0.0,0.0,0.0,0.0,0.0,0.0,0.0,0.0,0.0,0.0,0.0,0.0,0.0,0.0,0.0,0.0,0.0,0.0,0.0,0.0,0.0,0.0,0.0,0.0,0.0,0.0,0.0,0.0,0.0,0.0,0.0,0.0,0.0,0.0,0.0,0.0,0.0,0.0,0.0,0.0,0.0,0.0,0.0,0.0,0.0,0.0,0.0,0.0,0.0,0.0,0.0,0.0,0.0,0.0,0.0,0.0,0.0,0.0,0.0,0.0,0.0,0.0,0.0,0.0,0.0,0.0,0.0,0.0,0.0,0.0,0.0,0.0,0.0,0.0,0.0,0.0,0.0,0.0,0.0,0.0,0.0,0.0,0.0,0.0,0.0,0.0,0.0,0.0,0.0,0.0,0.0,0.0,0.0,0.0,0.0,0.0,0.0,0.0,0.0,0.0,0.0,0.0,0.0,0.0,0.0,0.0,0.0,0.0,0.0,0.0,0.0,0.0,0.0,0.0,0.0,0.0,0.0,0.0,0.0,0.0,0.0,0.0,0.0,0.0,0.0,0.0,0.0,0.0,0.0,0.0,0.0,0.0,0.0,0.0,0.0,0.0,0.0,0.0,0.0,0.0,0.0,0.0,0.0,0.0,0.0,0.0,0.0,0.0,0.0,0.0,0.0,0.0,0.0,0.0,0.0,0.0,0.0,0.0,0.0,0.0,0.0,0.0,0.0,0.0,0.0,0.0,0.0,0.0,0.0,0.0,0.0,0.0,0.0,0.0,0.0,0.0,0.0,0.0,0.0,0.0,0.0,0.0,0.0,0.0,0.0,0.0,0.0,0.0,0.0,0.0,0.0,0.0,0.0,0.0,0.0,0.0,0.0,0.0,0.0,0.0,0.0,0.0,0.0,0.0,0.0,0.0,0.0,0.0,0.0,0.0,0.0,0.0,0.0,0.0,0.0,0.0,0.0,0.0,0.0,0.0,0.0,0.0,0.0,0.0,0.0,0.0,0.0,0.0,0.0,0.0,0.0,0.0,0.0,0.0,0.0,0.0,0.0,0.0,0.0,0.0,0.0,0.0,0.0,0.0,0.0,0.0,0.0,0.0,0.0,0.0,0.0,0.0,0.0,0.0,0.0,0.0,0.0,0.0,0.0,0.0,0.0,0.0,0.0,0.0,0.0,0.0,0.0,0.0,0.0,0.0,0.0,0.0,0.0,0.0,0.0,0.0,0.0,0.0,0.0,0.0,0.0,0.0,0.0,0.0,0.0,0.0,0.0,0.0,0.0,0.0,0.0,0.0,0.0,0.0,0.0,0.0,0.0,0.0,0.0,0.0,0.0,0.0,0.0,0.0,0.0,0.0,0.0,0.0,0.0,0.0,0.0,0.0,0.0,0.0,0.0,0.0,0.0,0.0,0.0,0.0,0.0,0.0,0.0,0.0,0.0,0.0,0.0,0.0,0.0,0.0,0.0,0.0,0.0,0.0,0.0,0.0,0.0,0.0,0.0,0.0,0.0,0.0,0.0,0.0,0.0,0.0,0.0,0.0,0.0,0.0,0.0,0.0,0.0,0.0,0.0,0.0,0.0,0.0,0.0,0.0,0.0,0.0,0.0,0.0,0.0,0.0,0.0,0.0,0.0,0.0,0.0,0.0,0.0,0.0,0.0,0.0,0.0,0.0,0.0,0.0,0.0,0.0,0.0,0.0,0.0,0.0,0.0,0.0,0.0,0.0,0.0,0.0,0.0,0.0,0.0,0.0,0.0,0.0,0.0,0.0,0.0,0.0,0.0,0.0,0.0,0.0,0.0,0.0,0.0,0.0,0.0,0.0,0.0,0.0,0.0,0.0,0.0,0.0,0.0,0.0,0.0,0.0,0.0,0.0,0.0,0.0,0.0,0.0,0.0,0.0,0.0,0.0,0.0,0.0,0.0,0.0,0.0,0.0,0.0,0.0,0.0,0.0,0.0,0.0,0.0,0.0,0.0,0.0,0.0,0.0,0.0,0.0,0.0,0.0,0.0,0.0,0.0,0.0,0.0,0.0,0.0,0.0,0.0,0.0,0.0,0.0,0.0,0.0,0.0,0.0,0.0,0.0,0.0,0.0,0.0,0.0,0.0,0.0,0.0,0.0,0.0,0.0,0.0,0.0,0.0,0.0,0.0,0.0,0.0,0.0,0.0,0.0,0.0,0.0,0.0,0.0,0.0,0.0,0.0,0.0,0.0,0.0,0.0,0.0,0.0,0.0,0.0,0.0,0.0,0.0,0.0,0.0,0.0,0.0,0.0,0.0,0.0,0.0,0.0,0.0,0.0,0.0,0.0,0.0,0.0,0.0,0.0,0.0,0.0,0.0,0.0,0.0,0.0,0.0,0.0,0.0,0.0,0.0,0.0,0.0,0.0,0.0,0.0,0.0,0.0,0.0,0.0,0.0,0.0,0.0,0.0,0.0,0.0,0.0,0.0,0.0,0.0,0.0,0.0,0.0,0.0,0.0,0.0,0.0,0.0,0.0,0.0,0.0,0.0,0.0,0.0,0.0,0.0,0.0,0.0,0.0,0.0,0.0,0.0,0.0,0.0,0.0,0.0,0.0,0.0,0.0,0.0,0.0,0.0,0.0,0.0,0.0,0.0,0.0,0.0,0.0,0.0,0.0,0.0,0.0,0.0,0.0,0.0,0.0,0.0,0.0,0.0,0.0,0.0,0.0,0.0,0.0,0.0,0.0,0.0,0.0,0.0,0.0,0.0,0.0,0.0,0.0,0.0,0.0,0.0,0.0,0.0,0.0,0.0,0.0,0.0,0.0,0.0,0.0,0.0,0.0,0.0,0.0,0.0,0.0,0.0,0.0,0.0,0.0,0.0,0.0,0.0,0.0,0.0,0.0,0.0,0.0,0.0,0.0,0.0,0.0,0.0,0.0,0.0,0.0,0.0,0.0,0.0,0.0,0.0,0.0,0.0,0.0,0.0,0.0,0.0,0.0,0.0,0.0,0.0,0.0,0.0,0.0,0.0,0.0,0.0,0.0,0.0,0.0,0.0,0.0,0.0,0.0,0.0,0.0,0.0,0.0,0.0,0.0,0.0,0.0,0.0,0.0,0.0,0.0,0.0,0.0,0.0,0.0,0.0,0.0,0.0,0.0,0.0,0.0,0.0,0.0,1.2872,0.0,0.0,0.0,0.0,0.0,0.0,0.0,0.0,0.0,0.0,0.0,0.0,0.0,0.0,0.0,0.0,0.0,0.0,0.0,0.0,0.0,0.0,0.0,0.0,0.0,0.0,0.0,0.0,0.0,0.0,0.0,0.0,0.0,0.0,0.0,0.0,0.0,0.0,0.0,0.0,0.0,0.0,0.0,0.0,0.0,0.0,0.0,0.0,0.0,0.0,0.0,0.0,0.0,0.0,0.0,0.0,0.0,0.0,0.0,0.0,0.0,0.0,0.0,0.0,0.0,0.0,0.0,0.0,0.0,0.0,0.0,0.0,0.0,0.0,0.0,0.0,0.0,0.0,0.0,0.0,0.0,0.0,0.0,0.0,0.0,0.0,0.0,0.0,0.0,0.0,0.0,0.0,0.0,0.0,0.0,0.0,0.0,0.0,0.0,0.0,0.0,0.0,0.0,0.0,0.0,0.0,0.0,0.0,0.0,0.0,1.2331,1.3146,1.3242,1.3135,1.2839,0.0,0.0,0.0,0.0,0.0,0.0,0.0,0.0,0.0,0.0,0.0,0.0,0.0,0.0,0.0,0.0,0.0,0.0,0.0,0.0,0.0,0.0,0.0,0.0,0.0,0.0,0.0,0.0,0.0,0.0,0.0,0.0,0.0,0.0,0.0,0.0,0.0,0.0,0.0,0.0,0.0,0.0,0.0,0.0,0.0,0.0,0.0,0.0,0.0,0.0,0.0,0.0,0.0,0.0,0.0,0.0,0.0,0.0,0.0,0.0,0.0,0.0,0.0,0.0,0.0,0.0,0.0,0.0,0.0,0.0,0.0,0.0,0.0,0.0,0.0,0.0,0.0,0.0,0.0,0.0,0.0,0.0,0.0,0.0,0.0,0.0,0.0,0.0,0.0,0.0,0.0,0.0,0.0,0.0,0.0,0.0,0.0,0.0,0.0,0.0,0.0,0.0,0.0,0.0,0.0,0.0,0.0,0.0,0.0,0.0,0.0,0.0,1.2772,1.2638,1.2406,0.0,0.0,0.0,0.0,0.0,0.0,0.0,0.0,0.0,0.0,0.0,0.0,0.0,0.0,0.0,0.0,0.0,0.0,0.0,0.0,0.0,0.0,0.0,0.0,0.0,0.0,0.0,0.0,0.0,0.0,0.0,0.0,0.0,0.0,0.0,0.0,0.0,0.0,0.0,0.0,0.0,0.0,0.0,0.0,0.0,0.0,0.0,0.0,0.0,0.0,0.0,0.0,0.0,0.0,0.0,0.0,0.0,0.0,0.0,0.0,0.0,0.0,0.0,0.0,0.0,0.0,0.0,0.0,0.0,0.0,0.0,0.0,0.0,0.0,0.0,0.0,0.0,0.0,0.0,0.0,0.0,0.0,0.0,0.0,0.0,0.0,0.0,0.0,0.0,0.0,0.0,0.0,0.0,0.0,0.0,0.0,0.0,0.0,0.0,0.0,0.0,0.0,0.0,0.0,0.0,0.0,0.0,0.0,0.0,0.0,1.1353,1.2244,1.2088,0.0,1.1053,0.0,0.0,0.0,0.0,0.0,0.0,0.0,0.0,0.0,0.0,0.0,0.0,0.0,0.0,0.0,0.0,0.0,0.0,0.0,0.0,0.0,0.0,0.0,0.0,0.0,0.0,0.0,0.0,0.0,0.0,0.0,0.0,0.0,0.0,0.0,0.0,0.0,0.0,0.0,0.0,0.0,0.0,0.0,0.0,0.0,0.0,0.0,0.0,0.0,0.0,0.0,0.0,0.0,0.0,0.0,0.0,0.0,0.0,0.0,0.0,0.0,0.0,0.0,0.0,0.0,0.0,0.0,0.0,0.0,0.0,0.0,0.0,0.0,0.0,0.0,0.0,0.0,0.0,0.0,0.0,0.0,0.0,0.0,0.0,0.0,0.0,0.0,0.0,0.0,0.0,0.0,0.0,0.0,0.0,0.0,0.0,0.0,0.0,0.0,0.0,0.0,0.0,0.0,0.0,0.0,0.0,0.0,0.0,0.0,0.0,0.0,1.1842,1.1046,1.0431,0.0,0.0,0.0,0.0,0.0,0.0,0.0,0.0,0.0,0.0,0.0,0.0,0.0,0.0,0.0,0.0,0.0,0.0,0.0,0.0,0.0,0.0,0.0,0.0,0.0,0.0,0.0,0.0,0.0,0.0,0.0,0.0,0.0,0.0,0.0,0.0,0.0,0.0,0.0,0.0,0.0,0.0,0.0,0.0,0.0,0.0,0.0,0.0,0.0,0.0,0.0,0.0,0.0,0.0,0.0,0.0,0.0,0.0,0.0,0.0,0.0,0.0,0.0,0.0,0.0,0.0,0.0,0.0,0.0,0.0,0.0,0.0,0.0,0.0,0.0,0.0,0.0,0.0,0.0,0.0,0.0,0.0,0.0,0.0,0.0,0.0,0.0,0.0,0.0,0.0,0.0,0.0,0.0,0.0,0.0,0.0,0.0,0.0,0.0,0.0,0.0,0.0,0.0,0.0,0.0,0.0,0.0,0.0,0.0,0.0,1.226,0.0,1.1558,1.0673,1.003,0.9708,0.0,0.0,0.0,0.0,0.0,0.0,0.0,0.0,0.0,0.0,0.0,0.0,0.0,0.0,0.0,0.0,0.0,0.0,0.0,0.0,0.0,0.0,0.0,0.0,0.0,0.0,0.0,0.0,0.0,0.0,0.0,0.0,0.0,0.0,0.0,0.0,0.0,0.0,0.0,0.0,0.0,0.0,0.0,0.0,0.0,0.0,0.0,0.0,0.0,0.0,0.0,0.0,0.0,0.0,0.0,0.0,0.0,0.0,0.0,0.0,0.0,0.0,0.0,0.0,0.0,0.0,0.0,0.0,0.0,0.0,0.0,0.0,0.0,0.0,0.0,0.0,0.0,0.0,0.0,0.0,0.0,0.0,0.0,0.0,0.0,0.0,0.0,0.0,0.0,0.0,0.0,0.0,0.0,0.0,0.0,0.0,0.0,0.0,0.0,0.0,0.0,0.0,0.0,0.0,0.0,0.0,0.0,0.0,0.0,1.2058,1.1344,1.1515,1.1447,1.0922,0.0,0.0,0.0,0.0,0.0,0.0,0.0,0.0,0.0,0.0,0.0,0.0,0.0,0.0,0.0,0.0,0.0,0.0,0.0,0.0,0.0,0.0,0.0,0.0,0.0,0.0,0.0,0.0,0.0,0.0,0.0,0.0,0.0,0.0,0.0,0.0,0.0,0.0,0.0,0.0,0.0,0.0,0.0,0.0,0.0,0.0,0.0,0.0,0.0,0.0,0.0,0.0,0.0,0.0,0.0,0.0,0.0,0.0,0.0,0.0,0.0,0.0,0.0,0.0,0.0,0.0,0.0,0.0,0.0,0.0,0.0,0.0,0.0,0.0,0.0,0.0,0.0,0.0,0.0,0.0,0.0,0.0,0.0,0.0,0.0,0.0,0.0,0.0,0.0,0.0,0.0,0.0,0.0,0.0,0.0,0.0,0.0,0.0,0.0,0.0,0.0,0.0,0.0,0.0,0.0,0.0,0.0,0.0,0.0,1.2713,1.1817,1.154,1.1904,1.0966,1.0384,0.0,0.0,0.0,0.0,0.0,0.0,0.0,0.0,0.0,0.0,0.0,0.0,0.0,0.0,0.0,0.0,0.0,0.0,0.0,0.0,0.0,0.0,0.0,0.0,0.0,0.0,0.0,0.0,0.0,0.0,0.0,0.0,0.0,0.0,0.0,0.0,0.0,0.0,0.0,0.0,0.0,0.0,0.0,0.0,0.0,0.0,0.0,0.0,0.0,0.0,0.0,0.0,0.0,0.0,0.0,0.0,0.0,0.0,0.0,0.0,0.0,0.0,0.0,0.0,0.0,0.0,0.0,0.0,0.0,0.0,0.0,0.0,0.0,0.0,0.0,0.0,0.0,0.0,0.0,0.0,0.0,0.0,0.0,0.0,0.0,0.0,0.0,0.0,0.0,0.0,0.0,0.0,0.0,0.0,0.0,0.0,0.0,0.0,0.0,0.0,0.0,0.0,0.0,0.0,0.0,0.0,0.0,0.0,0.0,1.2297,0.0,1.1944,0.0,1.1134,1.0444,0.0,0.0,0.0,0.0,0.0,0.0,0.0,0.0,0.0,0.0,0.0,0.0,0.0,0.0,0.0,0.0,0.0,0.0,0.0,0.0,0.0,0.0,0.0,0.0,0.0,0.0,0.0,0.0,0.0,0.0,0.0,0.0,0.0,0.0,0.0,0.0,0.0,0.0,0.0,0.0,0.0,0.0,0.0,0.0,0.0,0.0,0.0,0.0,0.0,0.0,0.0,0.0,0.0,0.0,0.0,0.0,0.0,0.0,0.0,0.0,0.0,0.0,0.0,0.0,0.0,0.0,0.0,0.0,0.0,0.0,0.0,0.0,0.0,0.0,0.0,0.0,0.0,0.0,0.0,0.0,0.0,0.0,0.0,0.0,0.0,0.0,0.0,0.0,0.0,0.0,0.0,0.0,0.0,0.0,0.0,0.0,0.0,0.0,0.0,0.0,0.0,0.0,0.0,0.0,0.0,0.0,0.0,0.0,1.2085,1.2365,1.2515,1.2434,1.2201,1.1967,1.1277,0.0,0.0,0.0,0.0,0.0,0.0,0.0,0.0,0.0,0.0,0.0,0.0,0.0,0.0,0.0,0.0,0.0,0.0,0.0,0.0,0.0,0.0,0.0,0.0,0.0,0.0,0.0,0.0,0.0,0.0,0.0,0.0,0.0,0.0,0.0,0.0,0.0,0.0,0.0,0.0,0.0,0.0,0.0,0.0,0.0,0.0,0.0,0.0,0.0,0.0,0.0,0.0,0.0,0.0,0.0,0.0,0.0,0.0,0.0,0.0,0.0,0.0,0.0,0.0,0.0,0.0,0.0,0.0,0.0,0.0,0.0,0.0,0.0,0.0,0.0,0.0,0.0,0.0,0.0,0.0,0.0,0.0,0.0,0.0,0.0,0.0,0.0,0.0,0.0,0.0,0.0,0.0,0.0,0.0,0.0,0.0,0.0,0.0,0.0,0.0,0.0,0.0,0.0,0.0,0.0,0.0,0.0,0.0,0.0,1.1456,1.123,1.1357,1.1821,1.1165,1.0695,0.0,0.0,0.0,0.0,0.0,0.0,0.0,0.0,0.0,0.0,0.0,0.0,0.0,0.0,0.0,0.0,0.0,0.0,0.0,0.0,0.0,0.0,0.0,0.0,0.0,0.0,0.0,0.0,0.0,0.0,0.0,0.0,0.0,0.0,0.0,0.0,0.0,0.0,0.0,0.0,0.0,0.0,0.0,0.0,0.0,0.0,0.0,0.0,0.0,0.0,0.0,0.0,0.0,0.0,0.0,0.0,0.0,0.0,0.0,0.0,0.0,0.0,0.0,0.0,0.0,0.0,0.0,0.0,0.0,0.0,0.0,0.0,0.0,0.0,0.0,0.0,0.0,0.0,0.0,0.0,0.0,0.0,0.0,0.0,0.0,0.0,0.0,0.0,0.0,0.0,0.0,0.0,0.0,0.0,0.0,0.0,0.0,0.0,0.0,0.0,0.0,0.0,0.0,0.0,0.0,0.0,0.0,0.0,0.0,1.1507,1.1348,1.163,1.2305,1.1515,1.1044,1.0963,0.0,0.0,0.0,0.0,0.0,0.0,0.0,0.0,0.0,0.0,0.0,0.0,0.0,0.0,0.0,0.0,0.0,0.0,0.0,0.0,0.0,0.0,0.0,0.0,0.0,0.0,0.0,0.0,0.0,0.0,0.0,0.0,0.0,0.0,0.0,0.0,0.0,0.0,0.0,0.0,0.0,0.0,0.0,0.0,0.0,0.0,0.0,0.0,0.0,0.0,0.0,0.0,0.0,0.0,0.0,0.0,0.0,0.0,0.0,0.0,0.0,0.0,0.0,0.0,0.0,0.0,0.0,0.0,0.0,0.0,0.0,0.0,0.0,0.0,0.0,0.0,0.0,0.0,0.0,0.0,0.0,0.0,0.0,0.0,0.0,0.0,0.0,0.0,0.0,0.0,0.0,0.0,0.0,0.0,0.0,0.0,0.0,0.0,0.0,0.0,0.0,0.0,0.0,0.0,0.0,0.0,0.0,0.0,1.238,1.2688,1.2988,1.3327,1.2649,1.206,0.0,0.0,0.0,0.0,0.0,0.0,0.0,0.0,0.0,0.0,0.0,0.0,0.0,0.0,0.0,0.0,0.0,0.0,0.0,0.0,0.0,0.0,0.0,0.0,0.0,0.0,0.0,0.0,0.0,0.0,0.0,0.0,0.0,0.0,0.0,0.0,0.0,0.0,0.0,0.0,0.0,0.0,0.0,0.0,0.0,0.0,0.0,0.0,0.0,0.0,0.0,0.0,0.0,0.0,0.0,0.0,0.0,0.0,0.0,0.0,0.0,0.0,0.0,0.0,0.0,0.0,0.0,0.0,0.0,0.0,0.0,0.0,0.0,0.0,0.0,0.0,0.0,0.0,0.0,0.0,0.0,0.0,0.0,0.0,0.0,0.0,0.0,0.0,0.0,0.0,0.0,0.0,0.0,0.0,0.0,0.0,0.0,0.0,0.0,0.0,0.0,0.0,0.0,0.0,0.0,0.0,0.0,0.0,0.0,1.3241,1.3371,1.3261,1.2964,1.1881,1.1235,0.0,0.0,0.0,0.0,0.0,0.0,0.0,0.0,0.0,0.0,0.0,0.0,0.0,0.0,0.0,0.0,0.0,0.0,0.0,0.0,0.0,0.0,0.0,0.0,0.0,0.0,0.0,0.0,0.0,0.0,0.0,0.0,0.0,0.0,0.0,0.0,0.0,0.0,0.0,0.0,0.0,0.0,0.0,0.0,0.0,0.0,0.0,0.0,0.0,0.0,0.0,0.0,0.0,0.0,0.0,0.0,0.0,0.0,0.0,0.0,0.0,0.0,0.0,0.0,0.0,0.0,0.0,0.0,0.0,0.0,0.0,0.0,0.0,0.0,0.0,0.0,0.0,0.0,0.0,0.0,0.0,0.0,0.0,0.0,0.0,0.0,0.0,0.0,0.0,0.0,0.0,0.0,0.0,0.0,0.0,0.0,0.0,0.0,0.0,0.0,0.0,0.0,0.0,0.0,0.0,0.0,0.0,0.0,1.2346,1.3078,1.3586,1.3826,1.385,1.2523,1.1783,0.0,0.0,0.0,0.0,0.0,0.0,0.0,0.0,0.0,0.0,0.0,0.0,0.0,0.0,0.0,0.0,0.0,0.0,0.0,0.0,0.0,0.0,0.0,0.0,0.0,0.0,0.0,0.0,0.0,0.0,0.0,0.0,0.0,0.0,0.0,0.0,0.0,0.0,0.0,0.0,0.0,0.0,0.0,0.0,0.0,0.0,0.0,0.0,0.0,0.0,0.0,0.0,0.0,0.0,0.0,0.0,0.0,0.0,0.0,0.0,0.0,0.0,0.0,0.0,0.0,0.0,0.0,0.0,0.0,0.0,0.0,0.0,0.0,0.0,0.0,0.0,0.0,0.0,0.0,0.0,0.0,0.0,0.0,0.0,0.0,0.0,0.0,0.0,0.0,0.0,0.0,0.0,0.0,0.0,0.0,0.0,0.0,0.0,0.0,0.0,0.0,0.0,0.0,0.0,0.0,0.0,0.0,0.0,1.1316,1.2127,1.3308,1.4304,1.5027,1.3754,1.3029,0.0,0.0,0.0,0.0,0.0,0.0,0.0,0.0,0.0,0.0,0.0,0.0,0.0,0.0,0.0,0.0,0.0,0.0,0.0,0.0,0.0,0.0,0.0,0.0,0.0,0.0,0.0,0.0,0.0,0.0,0.0,0.0,0.0,0.0,0.0,0.0,0.0,0.0,0.0,0.0,0.0,0.0,0.0,0.0,0.0,0.0,0.0,0.0,0.0,0.0,0.0,0.0,0.0,0.0,0.0,0.0,0.0,0.0,0.0,0.0,0.0,0.0,0.0,0.0,0.0,0.0,0.0,0.0,0.0,0.0,0.0,0.0,0.0,0.0,0.0,0.0,0.0,0.0,0.0,0.0,0.0,0.0,0.0,0.0,0.0,0.0,0.0,0.0,0.0,0.0,0.0,0.0,0.0,0.0,0.0,0.0,0.0,0.0,0.0,0.0,0.0,0.0,0.0,0.0,0.0,0.0,0.0,0.0,0.9631,1.0282,1.1507,1.2691,1.3764,1.3542,1.2921,0.0,0.0,0.0,0.0,0.0,0.0,0.0,0.0,0.0,0.0,0.0,0.0,0.0,0.0,0.0,0.0,0.0,0.0,0.0,0.0,0.0,0.0,0.0,0.0,0.0,0.0,0.0,0.0,0.0,0.0,0.0,0.0,0.0,0.0,0.0,0.0,0.0,0.0,0.0,0.0,0.0,0.0,0.0,0.0,0.0,0.0,0.0,0.0,-0.8116,0.0,0.0,0.0,0.0,0.0,0.0,0.0,0.0,0.0,0.0,0.0,0.0,0.0,0.0,0.0,0.0,0.0,0.0,0.0,0.0,0.0,0.0,0.0,0.0,0.0,0.0,0.0,0.0,0.0,0.0,0.0,0.0,0.0,0.0,0.0,0.0,0.0,0.0,0.0,0.0,0.0,0.0,0.0,0.0,0.0,0.0,0.0,0.0,0.0,0.0,0.0,0.0,0.0,0.0,0.0,0.0,0.0,0.0,0.0,0.8078,0.8246,0.9548,1.0828,1.195,1.1887,1.1707,0.0,0.0,0.0,0.0,0.0,0.0,0.0,0.0,0.0,0.0,0.0,0.0,0.0,0.0,0.0,0.0,0.0,0.0,0.0,0.0,0.0,0.0,0.0,0.0,0.0,0.0,0.0,0.0,0.0,0.0,0.0,0.0,0.0,0.0,0.0,0.0,0.0,0.0,0.0,0.0,0.0,0.0,0.0,0.0,0.0,0.0,0.0,0.0,0.0,0.0,0.0,0.0,0.0,0.0,0.0,0.0,0.0,0.0,0.0,0.0,0.0,0.0,0.0,0.0,0.0,0.0,0.0,0.0,0.0,0.0,0.0,0.0,0.0,0.0,0.0,0.0,0.0,0.0,0.0,0.0,0.0,0.0,0.0,0.0,0.0,0.0,0.0,0.0,0.0,0.0,0.0,0.0,0.0,0.0,0.0,0.0,0.0,0.0,0.0,0.0,0.0,0.0,0.0,0.0,0.0,0.0,0.0,0.6211,0.6397,0.6063,0.7433,0.8771,0.9923,0.983,1.0036,1.0682,0.0,0.0,0.0,0.0,0.0,0.0,0.0,0.0,0.0,0.0,0.0,0.0,0.0,0.0,0.0,0.0,0.0,0.0,0.0,0.0,0.0,0.0,0.0,0.0,0.0,0.0,0.0,0.0,0.0,0.0,0.0,0.0,0.0,0.0,0.0,0.0,0.0,0.0,-0.7632,-0.7717,0.0,0.0,0.0,0.0,0.0,0.0,0.0,0.0,-0.9446,0.0,0.0,0.0,0.0,0.0,0.0,0.0,0.0,0.0,0.0,0.0,0.0,0.0,0.0,0.0,0.0,0.0,0.0,0.0,0.0,0.0,0.0,0.0,0.0,0.0,0.0,0.0,0.0,0.0,0.0,0.0,0.0,0.0,0.0,0.0,0.0,0.0,0.0,0.0,0.0,0.0,0.0,0.0,0.0,0.0,0.0,0.0,0.0,0.0,0.0,0.0,0.0,0.0,0.0,0.0,0.0,0.4776,0.454,0.4167,0.3678,0.4938,0.629,0.7614,0.8553,0.8777,0.8147,0.0,0.0,0.0,0.0,0.0,0.0,0.0,0.0,0.0,0.0,0.0,0.0,0.0,0.0,0.0,0.0,0.0,0.0,0.0,0.0,0.0,0.0,0.0,0.0,0.0,0.0,0.0,0.0,0.0,0.0,0.0,0.0,0.0,0.0,0.0,0.0,0.0,0.0,0.0,-0.7598,-0.7711,0.0,0.0,0.0,0.0,0.0,0.0,0.0,0.0,-0.9741,0.0,0.0,0.0,0.0,0.0,0.0,0.0,0.0,0.0,0.0,0.0,0.0,0.0,0.0,0.0,0.0,0.0,0.0,0.0,0.0,0.0,0.0,0.0,0.0,0.0,0.0,0.0,0.0,0.0,0.0,0.0,0.0,0.0,0.0,0.0,0.0,0.0,0.0,0.0,0.0,0.0,0.0,0.0,0.0,0.0,0.0,0.0,0.0,0.0,0.0,0.0,0.0,0.0,0.0,0.0,0.4395,0.3912,0.3325,0.2641,0.353,0.4436,0.536,0.6094,0.6534,0.0,0.0,0.0,0.0,0.0,0.0,0.0,0.0,0.0,0.0,0.0,0.0,0.0,0.0,0.0,0.0,0.0,0.0,0.0,0.0,0.0,0.0,0.0,0.0,0.0,0.0,0.0,0.0,0.0,0.0,0.0,0.0,0.0,0.0,0.0,0.0,0.0,0.0,0.0,0.0,-0.7868,-0.789,-0.9443,0.0,0.0,0.0,0.0,0.0,0.0,-0.9724,-0.9886,0.0,0.0,0.0,0.0,0.0,0.0,0.0,0.0,0.0,0.0,0.0,0.0,0.0,0.0,0.0,0.0,0.0,0.0,0.0,0.0,0.0,0.0,0.0,0.0,0.0,0.0,0.0,0.0,0.0,0.0,0.0,0.0,0.0,0.0,0.0,0.0,0.0,0.0,0.0,0.0,0.0,0.0,0.0,0.0,0.0,0.0,0.0,0.0,0.0,0.0,0.0,0.0,0.0,0.0,0.0,0.4091,0.3566,0.292,0.2117,0.2657,0.3187,0.3659,0.4041,0.4734,0.0,0.0,0.0,0.0,0.0,0.0,0.0,0.0,0.0,0.0,0.0,0.0,0.0,0.0,0.0,0.0,0.0,0.0,0.0,0.0,0.0,0.0,0.0,0.0,0.0,0.0,0.0,0.0,0.0,0.0,0.0,0.0,0.0,0.0,0.0,0.0,0.0,0.0,0.0,0.0,0.0,-0.8114,-0.9571,-0.9771,0.0,0.0,0.0,0.0,-0.9947,-1.0117,0.0,0.0,0.0,0.0,0.0,0.0,0.0,0.0,0.0,0.0,0.0,0.0,0.0,0.0,0.0,0.0,0.0,0.0,0.0,0.0,0.0,0.0,0.0,0.0,0.0,0.0,0.0,0.0,0.0,0.0,0.0,0.0,0.0,0.0,0.0,0.0,0.0,0.0,0.0,0.0,0.0,0.0,0.0,0.0,0.0,0.0,0.0,0.0,0.0,0.0,0.0,0.0,0.0,0.0,0.0,0.0,0.3941,0.3191,0.2515,0.1976,0.2284,0.275,0.3259,0.4038,0.4636,0.0,0.0,0.0,0.0,0.0,0.0,0.0,0.0,0.0,0.0,0.0,0.0,0.0,0.0,0.0,0.0,0.0,0.0,0.0,0.0,0.0,0.0,0.0,0.0,0.0,0.0,0.0,0.0,0.0,0.0,0.0,0.0,0.0,0.0,0.0,0.0,0.0,0.0,0.0,0.0,0.0,-0.798,-0.9595,-0.9571,-0.9697,0.0,0.0,-1.0995,-1.0703,-1.0951,0.0,0.0,0.0,0.0,0.0,0.0,0.0,0.0,0.0,0.0,0.0,0.0,0.0,0.0,0.0,0.0,0.0,0.0,0.0,0.0,0.0,0.0,0.0,0.0,0.0,0.0,0.0,0.0,0.0,0.0,0.0,0.0,0.0,0.0,0.0,0.0,0.0,0.0,0.0,0.0,0.0,0.0,0.0,0.0,0.0,0.0,0.0,0.0,0.0,0.0,0.0,0.0,0.0,0.0,0.0,0.5534,0.4978,0.449,0.3944,0.3387,0.337,0.351,0.3825,0.4205,0.4461,0.0,0.0,0.0,0.0,0.0,0.0,0.0,0.0,0.0,0.0,0.0,0.0,0.0,0.0,0.0,0.0,0.0,0.0,0.0,0.0,0.0,0.0,0.0,0.0,0.0,0.0,0.0,0.0,0.0,0.0,0.0,0.0,0.0,0.0,0.0,0.0,0.0,0.0,0.0,0.0,0.0,0.0,-0.9626,-0.9519,0.0,0.0,0.0,-1.1177,-1.0988,0.0,0.0,0.0,0.0,0.0,0.0,0.0,0.0,0.0,0.0,0.0,0.0,0.0,0.0,0.0,0.0,0.0,0.0,0.0,0.0,0.0,0.0,0.0,0.0,0.0,0.0,0.0,0.0,0.0,0.0,0.0,0.0,0.0,0.0,0.0,0.0,0.0,0.0,0.0,0.0,0.0,0.0,0.0,0.0,0.0,0.0,0.0,0.0,0.0,0.0,0.0,0.0,0.0,0.0,0.0,0.0,0.0,0.6155,0.5732,0.5251,0.468,0.4405,0.4274,0.4223,0.4365,0.0,0.0,0.0,0.0,0.0,0.0,0.0,0.0,0.0,0.0,0.0,0.0,0.0,0.0,0.0,0.0,0.0,0.0,0.0,0.0,0.0,0.0,0.0,0.0,0.0,0.0,0.0,-0.1807,0.0,0.0,0.0,0.0,0.0,0.0,0.0,0.0,0.0,0.0,0.0,0.0,0.0,0.0,-0.8109,-0.9882,-0.9837,-1.0127,0.0,0.0,-1.1403,-1.1297,-1.1107,-1.0679,0.0,0.0,0.0,0.0,0.0,0.0,0.0,0.0,0.0,0.0,0.0,0.0,0.0,0.0,0.0,0.0,0.0,0.0,0.0,0.0,0.0,0.0,0.0,0.0,0.0,0.0,0.0,0.0,0.0,0.0,0.0,0.0,0.0,0.0,0.0,0.0,0.0,0.0,0.0,0.0,0.0,0.0,0.0,0.0,0.0,0.0,0.0,0.0,0.0,0.0,0.0,0.0,0.0,0.0,0.0,0.7054,0.6281,0.5617,0.5104,0.4855,0.4528,0.4059,0.4519,0.4591,0.0,0.0,0.0,0.0,0.0,0.0,0.0,0.0,0.0,0.0,0.0,0.0,0.0,0.0,0.0,0.0,0.0,0.0,0.0,0.0,0.0,0.0,0.0,0.0,0.0,0.0,0.0,0.0,0.0,0.0,0.0,0.0,0.0,0.0,0.0,0.0,0.0,0.0,0.0,0.0,0.0,-0.8757,-1.0493,-1.0626,-1.0874,0.0,0.0,-1.1746,-1.1752,-1.1634,-1.1149,-0.9881,0.0,0.0,0.0,0.0,0.0,0.0,0.0,0.0,0.0,0.0,0.0,0.0,0.0,0.0,0.0,0.0,0.0,0.0,0.0,0.0,0.0,0.0,0.0,0.0,0.0,0.0,0.0,0.0,0.0,0.0,0.0,0.0,0.0,0.0,0.0,0.0,0.0,0.0,0.0,0.0,0.0,0.0,0.0,0.0,0.0,0.0,0.0,0.0,0.0,0.0,0.0,0.0,0.0,0.8645,0.8922,0.8255,0.7613,0.7033,0.6096,0.5514,0.5319,0.5418,0.5237,0.0,0.0,0.0,0.0,0.0,0.0,0.0,0.0,0.0,0.0,0.0,0.0,0.0,0.0,0.0,0.0,0.0,0.0,0.0,0.0,0.0,0.0,0.0,0.0,0.0,0.0,0.0,0.0,-0.4196,-0.4938,-0.555,0.0,0.0,0.0,0.0,0.0,0.0,0.0,0.0,0.0,0.0,-0.8632,-1.0308,-1.0533,0.0,0.0,-1.1851,-1.1859,-1.1958,-1.1508,-1.0704,-0.9512,-0.886,0.0,0.0,0.0,0.0,0.0,0.0,0.0,0.0,0.0,0.0,0.0,0.0,0.0,0.0,0.0,0.0,0.0,0.0,0.0,0.0,0.0,0.0,0.0,0.0,0.0,0.0,0.0,0.0,0.0,0.0,0.0,0.0,0.0,0.0,0.0,0.0,0.0,0.0,0.0,0.0,0.0,0.0,0.0,0.0,0.0,0.0,0.0,0.0,0.0,0.0,0.0,0.0,1.0204,1.0415,0.9986,0.9296,0.8436,0.7377,0.6597,0.6141,0.6108,0.5882,0.0,0.0,0.0,0.0,0.0,0.0,0.0,0.0,0.0,0.0,0.0,0.0,0.0,0.0,0.0,0.0,0.0,0.0,0.0,0.0,0.0,0.0,0.0,0.0,0.0,0.0,0.0,0.0,-0.4705,-0.54,-0.592,0.0,0.0,0.0,0.0,0.0,0.0,0.0,0.0,0.0,0.0,-0.8989,-1.0444,-1.0756,-1.1083,-1.1709,-1.1809,-1.1796,-1.1783,-1.1322,-1.0566,-0.9495,0.0,0.0,0.0,0.0,0.0,0.0,0.0,0.0,0.0,0.0,0.0,0.0,0.0,0.0,0.0,0.0,0.0,0.0,0.0,0.0,0.0,0.0,0.0,0.0,0.0,0.0,0.0,0.0,0.0,0.0,0.3807,0.0,0.0,0.0,0.0,0.0,0.0,0.0,0.0,0.0,0.0,0.0,0.0,0.0,0.0,0.0,0.0,0.0,0.0,0.0,0.0,0.0,0.0,1.095,1.1447,1.1097,1.0299,0.9046,0.864,0.7702,0.6239,0.6507,0.6448,0.5888,0.0,0.0,0.0,0.0,0.0,0.0,0.0,0.0,0.0,0.0,0.0,0.0,0.0,0.0,0.0,0.0,0.0,0.0,0.0,0.0,0.0,0.0,0.0,0.0,0.0,0.0,-0.4172,-0.5207,-0.5698,0.0,0.0,0.0,0.0,0.0,0.0,0.0,0.0,0.0,0.0,-0.9056,-1.0051,-1.1108,-1.144,-1.1591,-1.1771,-1.1809,-1.1646,-1.1211,-1.1224,-1.0943,0.0,0.0,0.0,0.0,0.0,0.0,0.0,0.0,0.0,0.0,0.0,0.0,0.0,0.0,0.0,0.0,0.0,0.0,0.0,0.0,0.0,0.0,0.0,0.0,0.0,0.0,0.0,0.3304,0.3242,0.0,0.0,0.0,0.0,0.0,0.0,0.0,0.0,0.0,0.0,0.0,0.7132,0.6826,0.0,0.0,0.0,0.0,0.0,0.0,0.0,0.0,0.0,0.0,0.0,0.0,1.2306,1.2632,1.1706,1.0879,1.0285,0.9507,0.8905,0.8511,0.8339,0.7688,0.66,0.0,0.0,0.0,0.0,0.0,0.0,0.0,0.0,0.0,0.0,0.0,0.0,0.0,0.0,0.0,0.0,0.0,0.0,0.0,0.0,0.0,0.0,0.0,0.0,0.0,-0.2378,0.0,0.0,0.0,0.0,0.0,0.0,0.0,0.0,0.0,0.0,0.0,-0.7229,-0.8242,-0.932,-1.0315,-1.1055,-1.1409,-1.1622,0.0,0.0,0.0,0.0,0.0,0.0,0.0,0.0,0.0,0.0,0.0,0.0,0.0,0.0,-0.7367,-0.6625,-0.7203,-0.7741,-0.7524,0.0,0.0,0.0,0.0,0.0,0.0,0.0,0.0,0.0,0.0,0.0,0.0,0.0,0.0,0.3739,0.0,0.3513,0.0,0.0,0.0,0.0,0.0,0.0,0.0,0.0,0.7702,0.7671,0.7614,0.7304,0.7278,0.0,0.7916,0.8516,0.0,0.0,0.0,0.0,0.0,0.0,0.0,0.0,1.3664,1.3465,1.2514,1.1736,1.1106,1.0403,0.9916,0.9718,0.9325,0.857,0.7493,0.6297,0.5238,0.0,0.0,0.0,0.0,0.0,0.0,0.0,0.0,0.0,0.0,0.0,0.0,0.0,0.0,0.0,0.0,0.0,0.0,0.0,0.0,0.0,0.0,0.0,-0.3092,0.0,0.0,0.0,0.0,0.0,0.0,0.0,0.0,0.0,-0.5611,-0.6698,-0.776,-0.8495,-0.9699,-1.0685,-1.1193,0.0,0.0,0.0,0.0,0.0,0.0,0.0,-1.1183,-1.087,-1.0753,-1.0523,-1.0118,-0.9778,-0.9503,-0.9258,0.0,0.0,-0.8151,-0.8481,-0.8804,-0.8391,-0.8606,-0.8724,-0.8186,-0.8278,-0.8659,0.0,0.0,0.0,0.0,0.0,0.0,0.0,0.0,0.4763,0.4415,0.0,0.3926,0.0,0.0,0.0,0.0,0.0,0.0,0.0,0.0,0.856,0.8718,0.8593,0.854,0.8856,0.9387,0.9729,1.0332,1.1164,1.1528,0.0,0.0,0.0,0.0,0.0,0.0,1.5025,1.3882,1.3508,1.2768,1.1615,1.1347,1.0765,0.9827,0.9536,0.9139,0.855,0.7862,0.6692,0.4932,0.5026,0.0,0.0,0.0,0.0,0.0,0.0,0.0,0.0,0.0,0.0,0.0,0.0,0.0,0.0,0.0,0.0,0.0,0.0,0.0,0.0,-0.3312,0.0,0.0,0.0,0.0,0.0,0.0,0.0,0.0,0.0,0.0,-0.6005,-0.7305,-0.843,-0.8866,0.0,0.0,0.0,0.0,-1.1591,-1.1591,-1.1591,-1.1481,-1.118,-1.1386,-1.145,-1.1165,0.0,0.0,-1.1589,-1.1582,-1.1241,-1.041,-1.092,-1.1017,-0.9316,-0.9295,-0.9378,-0.8932,-0.9083,-0.9141,-0.8922,-0.88,-0.8886,0.7157,0.0,0.0,0.0,0.0,0.7057,0.6677,0.651,0.6012,0.5738,0.5624,0.5645,0.0,0.0,0.0,0.0,0.0,0.0,0.8293,0.7731,0.835,0.858,0.8448,0.8215,0.8395,0.8988,0.9183,1.0054,1.1523,1.2929,1.3797,1.419,0.0,0.0,0.0,0.0,1.5339,1.4521,1.3691,1.3036,1.259,1.2384,1.1911,1.12,1.0996,1.0519,0.9736,0.8877,0.8097,0.7383,0.6447,0.0,0.0,0.0,0.0,0.0,0.0,0.0,0.0,0.0,0.0,0.0,0.0,0.0,0.0,0.0,0.0,0.0,0.0,0.0,-0.1604,-0.2933,-0.3722,0.0,0.0,0.0,0.0,0.0,0.0,0.0,0.0,0.0,-0.7537,-0.8669,-0.9436,0.0,0.0,-1.1178,-1.1049,-1.1345,-1.1591,-1.1591,0.0,0.0,0.0,-1.1401,-1.1447,-1.1577,-1.1743,-1.1883,-1.1883,-1.1692,-1.1411,-1.1037,-1.1207,-1.1238,-1.0965,-1.0993,-1.096,-1.0619,-1.0283,-0.9901,-0.9564,-0.9145,-0.8996,0.752,0.8353,0.8633,0.8726,0.8657,0.8171,0.7878,0.7722,0.7275,0.6917,0.6679,0.6732,0.6676,0.6602,0.7136,0.0,0.0,0.0,0.8586,0.8037,0.8415,0.8547,0.8401,0.8035,0.8289,0.9014,0.9086,1.0049,1.1866,1.3086,1.4115,1.4905,0.0,0.0,1.6752,1.6433,1.5869,1.5111,1.4021,1.3324,1.3088,1.2652,1.2254,1.1929,1.1624,1.126,1.074,1.0126,0.9423,0.8672,0.7774,0.6778,0.0,0.0,0.0,0.0,0.0,0.0,0.0,0.0,0.0,0.0,0.0,0.38,0.3096,0.0,0.0,0.0,0.0494,-0.0505,-0.1773,-0.2898,0.0,0.0,0.0,0.0,0.0,0.0,0.0,-0.6616,-0.7526,-0.8311,-0.8853,-0.973,-1.0153,-0.9702,-1.0537,-1.1145,-1.096,0.0,-1.1404,-1.1404,-1.1404,-1.1404,-1.1404,-1.131,-1.128,-1.1496,-1.1697,-1.1738,-1.1652,-1.1483,-1.134,-1.1297,-1.1296,-1.1373,-1.156,-1.1654,-1.1584,-1.1178,-1.0692,-1.0148,-0.9709,-0.9113,-0.8861,0.7532,0.8974,0.8996,0.913,0.9327,0.933,0.8997,0.8504,0.8475,0.8039,0.7288,0.744,0.7349,0.7117,0.7925,0.0,0.7991,0.8705,0.8931,0.8791,0.8679,0.8559,0.84,0.8065,0.8447,0.9387,0.9261,1.0244,1.2144,1.2505,1.3591,1.5516,1.7539,1.804,1.7043,1.6999,1.656,1.5671,1.4519,1.3734,1.328,1.2489,1.2102,1.2156,1.1784,1.156,1.1567,1.1441,1.0712,0.9266,0.9026,0.8148,0.635,0.0,0.0,0.0,0.0,0.0,0.0,0.0,0.0,0.0,0.0,0.0,0.0,0.0,0.0,0.0,-0.0533,0.0,-0.1893,-0.2984,0.0,0.0,0.0,-0.4599,-0.5084,-0.5318,-0.5882,-0.7066,0.0,0.0,-0.9916,0.0,-1.0579,-0.9932,-1.0573,-1.1059,-1.1059,-1.1083,-1.1097,-1.1122,-1.1129,-1.1129,-1.1122,-1.1055,-1.1017,-1.1087,-1.1244,-1.1274,-1.1118,-1.1055,-1.1097,-1.1216,-1.1272,-1.1334,-1.1536,-1.156,-1.1435,-1.0996,-1.0541,-1.0091,-0.9556,-0.8958,-0.8544,0.7609,0.8638,0.8997,0.9309,0.9586,0.9486,0.9366,0.9249,0.9214,0.9084,0.8878,0.914,0.9319,0.9424,0.9707,0.9389,0.8608,0.9142,0.9113,0.8665,0.8726,0.8714,0.8686,0.825,0.8524,0.9342,0.9164,1.0153,1.2215,1.2693,1.3516,1.4728,1.6398,1.7158,1.701,1.699,1.6693,1.6079,1.5477,1.4809,1.4027,1.3105,1.2609,1.2638,1.2287,1.2112,1.2121,1.2006,1.164,1.0884,1.0514,0.9722,0.8423,0.707,0.0,0.0,0.0,0.0,0.0,0.0,0.0,0.0,0.0,0.4866,0.3498,0.0,0.2811,0.0,-0.0067,-0.102,-0.1149,-0.2261,0.0,0.0,-0.4292,-0.4853,-0.5425,-0.5954,-0.6717,-0.7801,-0.8724,-0.9538,-1.0345,-1.0647,-1.0706,-1.046,-1.0674,-1.0863,-1.087,-1.0996,-1.1097,-1.1097,-1.109,-1.1097,-1.1069,-1.0801,-1.0602,-1.0679,-1.0559,-1.0498,-1.0692,-1.0719,-1.0776,-1.0902,-1.1059,-1.1185,-1.1341,-1.1498,-1.156,-1.1373,-1.0604,-0.9958,-0.9996,-0.9134,-0.8339,0.7163,0.7961,0.8196,0.8584,0.9171,0.9789,1.0074,1.0104,1.0164,1.0114,0.9943,1.0064,1.0228,1.0401,1.0451,1.0099,0.9437,0.9641,0.9541,0.9107,0.9106,0.9028,0.8878,0.8437,0.8675,0.9465,0.9392,1.0347,1.22,1.2842,1.3558,1.4368,1.5549,1.6244,1.6514,1.6917,1.6917,1.6477,1.5518,1.4702,1.4037,1.3208,1.267,1.25,1.2413,1.2321,1.2275,1.2388,1.2199,1.162,1.1201,1.0588,0.9725,0.8289,0.7413,0.0,0.0,0.0,0.0,0.0,0.0,0.0,0.0,0.0,0.0,0.0,0.3181,0.1489,0.0287,-0.058,-0.103,-0.2169,-0.3107,-0.3702,-0.4361,-0.4996,-0.5527,-0.5978,-0.6819,-0.8273,-0.8775,-0.9472,-1.0645,-1.0666,-1.0555,-1.046,-1.0385,-1.0383,-1.0566,-1.0681,-1.0744,-1.0744,-1.0744,-1.0721,-1.0667,-1.0356,-1.0129,-1.0188,-1.0147,-1.014,-1.0211,-1.0425,-1.0616,-1.065,-1.0874,-1.116,-1.1272,-1.1459,-1.1591,-1.1466,-1.08,-1.0313,-1.0534,-0.9614,-0.8753,0.6496,0.7159,0.7122,0.7576,0.8378,0.9902,1.0581,1.0713,1.0965,1.0936,1.0669,1.0536,1.0559,1.0711,1.0711,1.0567,1.0247,1.0205,1.0045,0.9845,0.9642,0.9391,0.9032,0.8683,0.8893,0.9621,0.9791,1.0753,1.2414,1.3081,1.3818,1.4583,1.5143,1.5646,1.6045,1.6873,1.71,1.6635,1.5178,1.418,1.373,1.311,1.2611,1.2194,1.2348,1.2365,1.2227,1.2663,1.2575,1.1928,1.1647,1.1204,1.0609,0.9251,0.8497,0.0,0.7832,0.0,0.0,0.0,0.0,0.0,0.0,0.0,0.0,0.4152,0.3366,0.1497,0.0591,-0.0214,-0.1069,-0.2169,-0.3098,-0.3674,-0.437,-0.4983,-0.5449,-0.5681,-0.6509,-0.8311,-0.844,-0.9046,-1.0512,-1.0521,-1.0276,-1.0256,-0.998,-0.9871,-1.0083,-1.0159,-1.0145,-1.0159,-1.0159,-1.014,-0.999,-0.9754,-0.9568,-0.9595,-0.9718,-0.9854,-0.965,-1.0083,-1.0477,-1.0428,-1.0739,-1.1083,-1.1247,-1.1435,-1.1567,-1.1591,-1.109,-1.0706,-1.0667,-0.9939,-0.9332,0.6329,0.6537,0.704,0.7404,0.767,0.8687,0.9438,1.0034,1.0776,1.1118,1.1157,1.1001,1.1128,1.1401,1.1415,1.1285,1.1048,1.0685,1.0525,1.0567,1.0062,0.9685,0.9411,0.916,0.9292,0.9758,1.0108,1.1447,1.3647,1.3902,1.475,1.6144,1.6175,1.6329,1.6652,0.0,0.0,0.0,1.5324,1.4643,1.3805,1.3494,1.3098,1.2597,1.2531,0.0,1.2314,1.2981,1.3077,1.2414,1.2773,0.0,0.0,0.0,0.0,0.0,0.0,0.0,0.0,0.0,0.0,0.0,0.7994,0.6848,0.4844,0.3559,0.2343,0.1123,0.084,0.0472,-0.0194,-0.1086,-0.1789,-0.2207,-0.3398,-0.4395,-0.4956,-0.5485,-0.6267,-0.7422,-0.8039,-0.8705,-0.9511,-0.9988,-1.0231,-1.0066,-0.9843,-0.9672,-0.9562,-0.9519,-0.9498,-0.9485,-0.9487,-0.9472,-0.9437,-0.9198,-0.9011,-0.8961,-0.898,-0.9082,-0.9208,-0.9649,-1.0085,-1.0157,-1.054,-1.0926,-1.109,-1.1247,-1.1435,-1.1553,-1.1466,-1.1146,-1.037,-0.9582,-0.8985,0.63,0.0,0.6682,0.6803,0.0,0.7834,0.8429,0.8871,1.0148,1.0989,1.1452,1.1385,1.1437,1.1591,1.1591,1.1498,1.1296,1.1046,1.0936,1.0919,1.0626,1.0228,0.9686,0.9528,0.966,1.0002,1.0538,1.1818,1.3782,1.4416,1.5209,1.6262,1.6334,1.6516,1.6694,1.6751,1.6746,1.6589,1.567,1.4932,1.4357,1.4001,1.351,1.2928,0.0,0.0,0.0,0.0,0.0,0.0,0.0,0.0,0.0,0.0,0.0,1.0693,1.0519,1.0334,1.0128,1.004,0.9763,0.9214,0.823,0.6894,0.5177,0.3783,0.2639,0.1778,0.1498,0.1064,0.0393,-0.0643,-0.1426,-0.1818,-0.3121,-0.4174,-0.4673,-0.5289,-0.6078,-0.6992,-0.7388,-0.7898,-0.895,-0.9229,-0.9451,-0.9463,-0.9035,-0.8747,-0.8834,-0.8769,-0.8727,-0.8721,-0.8918,-0.9055,-0.9029,-0.8796,-0.8611,-0.8624,-0.8807,-0.8965,-0.8987,-0.9499,-0.9945,-1.0097,-1.0394,-1.0684,-1.093,-1.1146,-1.1334,-1.1435,-1.1529,-1.1209,-1.018,-0.9614,-0.9428,0.63,0.6286,0.6345,0.6331,0.6362,0.716,0.7573,0.7832,0.0,0.0,0.0,1.1591,1.1591,1.1591,1.1591,1.1498,1.1303,1.1279,1.1178,1.1059,1.1028,1.0643,0.9942,0.9789,0.989,1.0192,1.091,1.2096,1.3643,1.4723,1.5526,1.6079,1.6357,1.6545,1.6609,1.6438,1.6701,1.7307,1.6061,1.5233,1.4955,1.4503,1.3963,1.3391,1.3575,1.363,1.3486,1.3442,1.3424,1.336,1.3147,1.2952,1.2807,1.224,1.1841,1.17,1.1522,1.1355,1.1191,1.0711,1.0166,0.9683,0.7959,0.6489,0.5461,0.4351,0.3362,0.2585,0.2071,0.1511,0.0813,-0.0392,-0.1258,-0.1595,-0.2954,-0.395,-0.434,-0.5117,-0.5926,-0.666,-0.6724,-0.7037,-0.8166,-0.8286,-0.8315,-0.8427,-0.7911,-0.7459,-0.7711,-0.7801,-0.7925,-0.7965,-0.8196,-0.8484,-0.857,-0.8471,-0.8328,-0.83,-0.8727,-0.9058,-0.9073,-0.9434,-0.9868,-1.0029,-1.0211,-1.0462,-1.0739,-1.1052,-1.1272,-1.1303,-1.1341,-1.1115,-1.0193,-0.9741,-0.9614,0.63,0.6335,0.65,0.6469,0.6333,0.6639,0.713,0.7842,0.9532,1.0787,1.1591,1.1591,1.1591,1.1591,1.1591,1.149,1.131,1.1178,1.1021,0.0,1.0744,1.0474,1.0097,0.9939,0.9903,1.0087,1.1066,1.2314,1.3747,1.4844,1.5863,1.6704,1.6775,1.6761,1.6751,1.6637,1.674,1.7039,1.6355,1.5697,1.5086,1.4938,1.4738,1.439,1.3934,1.3649,1.3523,1.3793,1.3856,1.3592,1.3743,1.3523,1.2833,1.2036,1.1282,1.0624,1.0865,1.0967,1.0713,1.0972,1.0563,0.92,0.7603,0.6379,0.5783,0.4931,0.3909,0.2643,0.2099,0.1539,0.0897,0.0028,-0.0616,-0.0952,-0.2287,-0.3367,-0.3732,-0.4846,-0.5662,-0.5835,-0.6304,-0.6516,-0.6687,-0.7013,-0.7181,-0.7096,-0.6822,-0.626,-0.5962,-0.6544,-0.7176,-0.7231,-0.7291,-0.7545,-0.7919,-0.8018,-0.8014,-0.7949,-0.8452,-0.8783,-0.8767,-0.9248,-0.9712,-0.9908,-1.006,-1.0319,-1.0694,-1.0965,-1.1139,-1.1233,-1.1007,-1.0591,-1.0275,-0.9614,-0.8903,0.63,0.6338,0.6525,0.6491,0.6326,0.6433,0.6966,0.7809,0.9052,1.0078,1.0881,1.1272,1.1435,1.1397,1.1247,1.1178,1.1192,1.117,1.1182,1.1189,1.125,1.1014,1.0505,1.033,1.0235,1.0178,1.069,1.1813,1.3393,1.4402,1.5472,1.6557,1.6814,1.6825,1.6694,1.6694,1.674,1.6768,1.64,1.6022,1.5605,1.5351,1.5063,1.4721,1.44,1.4223,1.4166,1.3841,1.3608,1.3452,1.3047,1.2593,1.2116,1.1548,1.1025,1.0625,1.0591,1.0581,1.0427,1.019,0.9532,0.8388,0.7511,0.6741,0.6053,0.4912,0.3817,0.2921,0.2434,0.1987,0.1428,0.0588,-0.0112,-0.0505,-0.2065,-0.3146,-0.3453,-0.4567,-0.5407,-0.5466,-0.5548,-0.5765,-0.5965,-0.6105,-0.6254,-0.6311,-0.6108,-0.5584,-0.4601,-0.525,-0.5932,-0.6041,-0.6529,-0.7047,-0.7348,-0.7681,-0.7928,-0.8075,-0.8423,-0.878,-0.8974,-0.9379,-0.9632,-0.9853,-1.0029,-1.0167,-1.0438,-1.0592,-1.0815,-1.1055,-1.0574,-1.0205,-1.0002,-0.923,-0.849,0.6255,0.6197,0.6535,0.6603,0.6461,0.6445,0.6838,0.755,0.8565,0.9408,1.0136,1.0915,1.1296,1.1272,1.0933,1.0905,1.1065,1.1142,1.1246,1.1441,1.1661,1.1477,1.0936,1.0695,1.047,1.032,1.0445,1.1405,1.3029,1.4181,1.5409,1.661,1.6913,1.6899,1.6684,1.6779,1.6722,1.6609,1.6467,1.6385,1.628,1.5883,1.5445,1.5075,1.4859,1.4686,1.4499,1.3692,1.323,1.3139,1.2297,1.1671,1.1392,1.0986,1.0703,1.049,1.0237,1.0053,0.9926,0.9346,0.8581,0.7717,0.7446,0.7007,0.6203,0.4907,0.3877,0.334,0.2854,0.2324,0.1762,0.0924,0.0196,-0.0393,-0.1871,-0.2871,-0.3174,-0.426,-0.5128,-0.5187,-0.5042,-0.5093,-0.5392,-0.535,-0.5265,-0.5408,-0.5386,-0.4838,-0.4073,-0.4294,-0.4649,-0.5167,-0.5982,-0.6794,-0.7047,-0.7568,-0.7952,-0.8183,-0.8465,-0.8787,-0.9125,-0.9363,-0.9654,-0.987,-0.9977,-1.0119,-1.02,-1.0312,-1.0598,-1.0923,-1.0261,-0.9449,-0.9223,-0.8709,-0.8231,0.6098,0.5978,0.6587,0.6899,0.6904,0.6745,0.6732,0.7014,0.8347,0.9125,0.9528,1.075,1.1279,1.124,1.0958,1.0848,1.0994,1.1008,1.1069,1.1192,1.1341,1.139,1.1275,1.0749,1.0508,1.0496,1.0679,1.1464,1.2956,1.4728,1.6433,1.7763,1.734,1.6983,1.6927,1.6853,1.6751,1.6599,1.6694,1.6881,1.714,1.6729,1.6255,1.5795,1.5187,1.4636,1.416,1.339,1.2978,1.2795,1.2174,1.1547,1.1048,1.0426,0.9958,0.9646,0.9492,0.923,0.8898,0.8839,0.8425,0.7627,0.7288,0.6905,0.6254,0.5245,0.4418,0.3935,0.3183,0.2488,0.1818,0.098,0.0224,-0.0364,-0.1483,-0.2374,-0.3065,-0.3812,-0.4484,-0.5073,-0.5014,-0.4901,-0.4881,-0.4633,-0.432,-0.4242,-0.4184,-0.4021,-0.3855,-0.3799,-0.4159,-0.4814,-0.5601,-0.6529,-0.7375,-0.7821,-0.7943,-0.8003,-0.8357,-0.8697,-0.8883,-0.9192,-0.9506,-0.9753,-0.9959,-1.0054,-1.0318,-1.0506,-1.0485,-1.067,-0.9895,-0.8598,-0.8109,-0.8074,-0.8188,0.5969,0.5939,0.6412,0.6758,0.6971,0.6869,0.6818,0.7001,0.7928,0.8648,0.9192,1.0013,1.0663,1.1122,1.0586,1.0586,1.1002,1.0968,1.117,1.1585,1.1822,1.1779,1.1467,1.0658,1.0349,1.0483,1.0083,1.0568,1.2123,1.4168,1.5969,1.728,1.7241,1.7106,1.7039,1.729,1.7385,1.7251,1.7374,1.7523,1.7551,1.6853,1.64,1.6285,1.5787,1.5177,1.4529,1.3825,1.3053,1.2266,1.1469,1.0717,1.0021,0.9614,0.9332,0.9081,0.8818,0.8495,0.8139,0.8139,0.7944,0.7526,0.7145,0.6847,0.6674,0.5575,0.4763,0.457,0.3713,0.2768,0.193,0.1287,0.0587,-0.0364,-0.1651,-0.2681,-0.3063,-0.4064,-0.4873,-0.516,-0.5014,-0.4873,-0.4767,-0.4439,-0.4107,-0.3852,-0.3744,-0.3719,-0.3691,-0.3638,-0.3938,-0.4649,-0.5414,-0.6231,-0.716,-0.7681,-0.7907,-0.8145,-0.8325,-0.8493,-0.8733,-0.9077,-0.9444,-0.9522,-0.9717,-0.9873,-0.9987,-0.9892,-0.9831,-1.0107,-1.0285,-0.9277,-0.8264,-0.8434,-0.8629,0.5801,0.5891,0.6226,0.6662,0.7086,0.7078,0.708,0.7204,0.7729,0.8357,0.8994,0.9461,1.0119,1.0803,1.0339,1.0432,1.0976,1.0996,1.1316,1.1906,1.2175,1.2111,1.1631,1.0839,1.039,1.0313,0.9862,1.0412,1.1992,1.3835,1.5473,1.6487,1.7009,1.7066,1.6899,1.7429,1.765,1.7529,1.7623,1.765,1.754,1.6899,1.6513,1.6503,1.6179,1.569,1.504,1.4293,1.3399,1.2312,1.1305,1.0408,0.9614,0.9236,0.8888,0.8635,0.8371,0.8172,0.8047,0.7824,0.7727,0.7747,0.7202,0.6911,0.6835,0.5775,0.5022,0.5038,0.4107,0.3021,0.1958,0.1538,0.0867,-0.0308,-0.1733,-0.2651,-0.3093,-0.4147,-0.4873,-0.5156,-0.5042,-0.4869,-0.4759,-0.4408,-0.4052,-0.3907,-0.3771,-0.3716,-0.361,-0.361,-0.3858,-0.4591,-0.5195,-0.5878,-0.6718,-0.7488,-0.7928,-0.8117,-0.8219,-0.8403,-0.859,-0.8961,-0.93,-0.9303,-0.9582,-0.9725,-0.979,-0.9546,-0.9271,-0.9647,-0.9937,-0.9853,-0.8817,-0.9002,-0.8931,0.5748,0.5469,0.6104,0.6734,0.7313,0.7438,0.7487,0.7491,0.8003,0.8504,0.8991,0.9361,0.9935,1.062,1.0417,1.0581,1.1077,1.1162,1.1468,1.2004,1.2211,1.2181,1.197,1.1456,1.0743,1.0077,1.0305,1.1399,1.3293,1.4393,1.5254,1.5838,1.6497,1.6677,1.6459,1.6965,1.7239,1.7028,1.7017,1.7028,1.7011,1.6972,1.6662,1.6368,1.6301,1.6083,1.5478,1.4777,1.4109,1.3468,1.2219,1.1152,1.03,0.9454,0.8786,0.8333,0.8236,0.8452,0.8737,0.8236,0.8009,0.8366,0.7557,0.6941,0.7141,0.5848,0.5089,0.5254,0.4242,0.3077,0.2069,0.1679,0.1035,-0.0196,-0.1175,-0.2122,-0.3007,-0.3785,-0.437,-0.4932,-0.5014,-0.4818,-0.4546,-0.4242,-0.4049,-0.3938,-0.3774,-0.361,-0.3613,-0.3613,-0.3913,-0.4429,-0.4893,-0.5414,-0.661,-0.7348,-0.7741,-0.7979,-0.8129,-0.8267,-0.8375,-0.854,-0.8817,-0.9066,-0.9201,-0.9369,-0.9533,-0.9471,-0.9228,-0.9424,-0.9944,-0.9764,-0.9329,-0.9103,-0.9003,0.5668,0.5838,0.6386,0.6901,0.7488,0.8285,0.8208,0.7631,0.8656,0.8903,0.881,0.94,1.0039,1.0686,1.0764,1.0987,1.1292,1.1414,1.1709,1.2168,1.2268,1.2114,1.1768,1.1107,1.077,1.0629,1.0344,1.1077,1.2649,1.3301,1.399,1.4824,1.5327,1.5612,1.5808,1.6291,1.6564,1.6486,1.6497,1.6497,1.644,1.6159,1.6054,1.634,1.7062,1.7346,1.7064,1.6909,1.6149,1.4663,1.3821,1.269,1.1176,0.9761,0.8829,0.8501,0.8786,0.9069,0.9172,0.9192,0.9,0.8682,0.8111,0.7522,0.7121,0.6,0.5157,0.5065,0.427,0.3244,0.2516,0.1928,0.1202,0.0168,-0.1257,-0.2373,-0.3093,-0.3953,-0.4763,-0.5101,-0.5042,-0.4818,-0.4519,-0.4301,-0.4107,-0.3993,-0.3827,-0.3691,-0.3613,-0.3613,-0.3749,-0.4101,-0.4563,-0.5058,-0.5441,-0.6669,-0.744,-0.7779,-0.7991,-0.8,-0.8084,-0.8303,-0.8571,-0.8836,-0.8934,-0.9041,-0.9268,-0.9602,-0.9349,-0.954,-1.0038,-1.0283,-0.9997,-0.9693,-0.9472,0.5569,0.6122,0.6551,0.7049,0.7697,0.8611,0.8603,0.8067,0.8886,0.9135,0.9044,0.9479,1.0102,1.0729,1.1024,1.1327,1.1549,1.1636,1.1916,1.2291,1.2305,1.2083,1.1663,1.1136,1.0801,1.0657,1.018,1.0559,1.1707,1.2223,1.2731,1.3239,1.3857,1.4281,1.4538,1.5022,1.5283,1.5293,1.5293,1.5293,1.5235,1.4934,1.5148,1.5908,1.6746,1.7478,1.8008,1.8359,1.7707,1.6036,1.5186,1.3646,1.1224,0.9729,0.8861,0.8608,0.8894,0.9236,0.9364,0.9646,0.9602,0.9238,0.8615,0.8043,0.7568,0.6294,0.5535,0.5116,0.4463,0.3633,0.2991,0.2209,0.1343,0.042,-0.1228,-0.251,-0.2984,-0.4122,-0.4846,-0.5073,-0.5014,-0.4763,-0.4463,-0.4273,-0.4079,-0.3938,-0.3799,-0.3691,-0.361,-0.3613,-0.3688,-0.3851,-0.4316,-0.4777,-0.5223,-0.6084,-0.6531,-0.6867,-0.7652,-0.7726,-0.7796,-0.8033,-0.8373,-0.8595,-0.8749,-0.8852,-0.9097,-0.9515,-0.9764,-0.9904,-1.035,-1.0758,-1.0481,-1.0252,-0.9919,0.5438,0.6097,0.652,0.7114,0.7816,0.8482,0.8688,0.881,0.8948,0.9343,0.9561,0.9614,1.0165,1.0842,1.1172,1.1508,1.1806,1.1875,1.2058,1.2285,1.2268,1.2046,1.1706,1.1595,1.1037,1.018,0.9943,1.0207,1.0864,1.1495,1.1612,1.1354,1.2402,1.2853,1.2564,1.3176,1.3438,1.3468,1.3498,1.3438,1.3378,1.3387,1.3927,1.4936,1.5206,1.6082,1.7852,1.8673,1.8394,1.7141,1.5997,1.3738,1.0707,0.9422,0.8856,0.8576,0.8549,0.8899,0.939,0.9428,0.9709,0.9742,0.9064,0.831,0.7901,0.6842,0.5787,0.5163,0.4712,0.4187,0.3497,0.249,0.1512,0.0644,-0.1005,-0.2343,-0.2901,-0.4012,-0.4901,-0.4901,-0.4901,-0.4684,-0.4328,-0.4107,-0.3965,-0.3855,-0.3719,-0.361,-0.361,-0.3613,-0.3719,-0.3943,-0.4224,-0.4551,-0.5027,-0.5457,-0.558,-0.5851,-0.6855,-0.7421,-0.75,-0.77,-0.8281,-0.8586,-0.8764,-0.8894,-0.9252,-0.9659,-1.0044,-1.0278,-1.0805,-1.1219,-1.1108,-1.0822,-1.0261,0.5499,0.6086,0.6677,0.723,0.8001,0.9547,0.982,0.9205,1.0479,1.0644,0.9988,1.0352,1.0761,1.1024,1.1379,1.1726,1.1982,1.2098,1.2218,1.2248,1.215,1.1966,1.1744,1.1558,1.1223,1.0783,1.0557,1.057,1.0711,1.0794,1.0783,1.1033,1.1247,1.1543,1.1764,1.1897,1.1989,1.2081,1.2104,1.2074,1.2104,1.2074,1.2487,1.3279,1.3705,1.4627,1.6054,1.7652,1.8035,1.7191,1.649,1.4441,1.1286,0.9614,0.8861,0.8608,0.8958,0.9236,0.946,0.9646,0.9678,0.9538,0.8893,0.8209,0.764,0.686,0.5967,0.5234,0.4739,0.4242,0.3552,0.2516,0.1679,0.1343,-0.0753,-0.2343,-0.2875,-0.4012,-0.4736,-0.4767,-0.4767,-0.4605,-0.4273,-0.4079,-0.3938,-0.3796,-0.3663,-0.3613,-0.3613,-0.3593,-0.3744,-0.4079,-0.4226,-0.4397,-0.4914,-0.5165,-0.5151,-0.5486,-0.6316,-0.6932,-0.7071,-0.7654,-0.8217,-0.8686,-0.886,-0.9075,-0.9457,-0.9881,-1.0297,-1.0687,-1.112,-1.1442,-1.1653,-1.1214,-1.0419,0.5464,0.5966,0.6588,0.7198,0.7894,0.9766,1.0244,0.9906,1.1217,1.1434,1.0916,1.0889,1.1124,1.1298,1.1502,1.1744,1.2009,1.2187,1.2245,1.2184,1.205,1.1892,1.1669,1.1403,1.1156,1.0948,1.0761,1.0623,1.0438,1.0218,1.0202,1.0376,1.0186,1.0244,1.0629,1.0521,1.0514,1.064,1.0672,1.071,1.0748,1.0748,1.1055,1.1711,1.2066,1.2907,1.4166,1.5454,1.6346,1.6437,1.5628,1.3463,1.0846,0.955,0.8797,0.8673,0.8861,0.9113,0.9177,0.9518,0.9709,0.9364,0.8941,0.8432,0.7747,0.7126,0.6357,0.55,0.5038,0.4574,0.3938,0.2629,0.1874,0.1734,-0.0641,-0.2425,-0.332,-0.4236,-0.4708,-0.4712,-0.4715,-0.4522,-0.4218,-0.4052,-0.3882,-0.3716,-0.3635,-0.3557,-0.3566,-0.3626,-0.3906,-0.4151,-0.4342,-0.4587,-0.4904,-0.4928,-0.4758,-0.5258,-0.5888,-0.6241,-0.6461,-0.7532,-0.8354,-0.8986,-0.9304,-0.9454,-0.9759,-1.0337,-1.082,-1.1146,-1.126,-1.1333,-1.1346,-1.0774,-1.009,0.5354,0.5741,0.6396,0.7001,0.7721,0.9165,1.0158,1.0729,1.1185,1.1746,1.2075,1.1354,1.1191,1.1572,1.1527,1.1608,1.1929,1.215,1.2115,1.1995,1.1899,1.1827,1.1526,1.1187,1.0912,1.0719,1.0718,1.0499,1.018,0.9955,0.9682,0.9734,0.9388,0.9119,0.9428,0.9145,0.9274,0.9492,0.946,0.953,0.9606,0.9606,0.9856,1.0478,1.0598,1.1197,1.2311,1.2756,1.3764,1.5283,1.354,1.1665,1.0205,0.9236,0.8705,0.8549,0.8517,0.8576,0.8673,0.9043,0.9364,0.93,0.8956,0.8751,0.811,0.7472,0.675,0.5826,0.5391,0.5066,0.4408,0.2933,0.1902,0.1426,-0.0724,-0.2732,-0.4353,-0.466,-0.466,-0.4688,-0.466,-0.4522,-0.4079,-0.3993,-0.3827,-0.358,-0.3527,-0.3527,-0.3518,-0.3661,-0.3998,-0.4252,-0.4436,-0.4744,-0.5057,-0.5128,-0.4989,-0.5167,-0.5688,-0.586,-0.625,-0.7369,-0.83,-0.8993,-0.9567,-0.9764,-1.0115,-1.0659,-1.0873,-1.0907,-1.1002,-1.1063,-1.0763,-1.0258,-0.9609,0.5362,0.5461,0.6015,0.6614,0.7402,0.9238,1.0433,1.1053,1.1929,1.2357,1.2387,1.1745,1.1351,1.1379,1.1461,1.1582,1.1807,1.2009,1.2035,1.1882,1.1758,1.1401,1.1039,1.0852,1.0683,1.0505,1.0782,1.0803,1.0681,1.028,1.0147,1.0124,0.9253,0.8926,0.9049,0.9017,0.9113,0.9306,0.9408,0.9446,0.9478,0.9478,0.958,0.9734,0.9792,1.0193,1.0996,1.1313,1.2016,1.3159,1.1812,1.0602,0.9952,0.9204,0.8705,0.8549,0.8517,0.8517,0.8511,0.8533,0.863,0.87,0.8333,0.7943,0.7694,0.7379,0.6721,0.5957,0.5422,0.5042,0.4463,0.2959,0.1425,-0.0167,-0.1367,-0.276,-0.4098,-0.4546,-0.4546,-0.4574,-0.4574,-0.4353,-0.4132,-0.3965,-0.3827,-0.3524,-0.3471,-0.353,-0.3464,-0.3506,-0.3765,-0.4251,-0.4581,-0.4884,-0.515,-0.5235,-0.5272,-0.5301,-0.5524,-0.5688,-0.6276,-0.7174,-0.7964,-0.8639,-0.9308,-0.9632,-1.0242,-1.088,-1.0804,-1.0755,-1.064,-1.0627,-1.0278,-0.9805,-0.9003,0.5275,0.5153,0.5659,0.6369,0.7353,0.9247,1.0652,1.1655,1.2433,1.2909,1.2815,1.2005,1.1582,1.1529,1.1441,1.1526,1.174,1.1913,1.1811,1.1515,1.1238,1.1077,1.1042,1.1003,1.0928,1.1006,1.1195,1.1265,1.11,1.0515,1.0296,1.0167,0.9253,0.8835,0.8985,0.8861,0.892,0.9145,0.928,0.935,0.9484,0.9478,0.9478,0.9478,0.9472,0.9589,0.9862,1.0058,1.0611,1.1145,1.0594,0.9869,0.9512,0.899,0.8614,0.8517,0.8517,0.8517,0.8414,0.8144,0.7931,0.7918,0.7589,0.7223,0.7006,0.6953,0.6784,0.6289,0.5544,0.5156,0.4739,0.3153,0.1089,-0.0642,-0.148,-0.2371,-0.3815,-0.4294,-0.4463,-0.4491,-0.4436,-0.4298,-0.4021,-0.3965,-0.3688,-0.3441,-0.3388,-0.3388,-0.3314,-0.3405,-0.3618,-0.4127,-0.4443,-0.4672,-0.5068,-0.5266,-0.5338,-0.5382,-0.5507,-0.5661,-0.6225,-0.704,-0.7856,-0.853,-0.9067,-0.967,-1.0414,-1.0909,-1.0842,-1.0703,-1.046,-1.0,-0.9626,-0.9035,-0.8255,0.5136,0.4889,0.5312,0.618,0.7454,0.9001,1.0652,1.2247,1.2739,1.316,1.3233,1.219,1.177,1.1952,1.1507,1.1477,1.1812,1.1897,1.1558,1.119,1.0847,1.0916,1.1472,1.1241,1.133,1.1642,1.1866,1.1841,1.1473,1.0667,1.0345,1.0225,0.9253,0.8732,0.8926,0.8829,0.8861,0.9177,0.9364,0.9504,0.9638,0.9606,0.948,0.9376,0.921,0.9058,0.8948,0.8956,0.9248,1.007,0.9692,0.9302,0.8858,0.8608,0.8517,0.8517,0.8517,0.8517,0.8414,0.7912,0.7463,0.7375,0.7058,0.6597,0.6279,0.6422,0.6506,0.6179,0.5553,0.4932,0.4453,0.304,0.1284,-0.0447,-0.1006,-0.1758,-0.2843,-0.3846,-0.4377,-0.4405,-0.4242,-0.4162,-0.4021,-0.3852,-0.363,-0.3299,-0.3302,-0.333,-0.3271,-0.3256,-0.3559,-0.4033,-0.4253,-0.435,-0.482,-0.5322,-0.5355,-0.5425,-0.5587,-0.5793,-0.6167,-0.6923,-0.7829,-0.855,-0.8988,-0.9768,-1.0701,-1.0932,-1.0879,-1.0481,-1.01,-0.9455,-0.8819,-0.8074,-0.7342,0.5151,0.4558,0.5003,0.5892,0.7139,0.8558,1.0276,1.2069,1.2561,1.2962,1.305,1.2252,1.1958,1.2005,1.1787,1.1611,1.1835,1.1802,1.1532,1.1018,1.0927,1.1192,1.1568,1.1283,1.126,1.1682,1.2165,1.2305,1.205,1.1329,1.0892,1.0836,0.9434,0.8608,0.8861,0.9332,0.9703,0.9799,1.0002,1.0136,1.004,0.9709,0.939,0.9141,0.8865,0.8609,0.8409,0.8242,0.8329,0.8634,0.881,0.878,0.8672,0.8548,0.8506,0.8517,0.8517,0.8511,0.8382,0.7837,0.7394,0.7133,0.6499,0.5945,0.5608,0.5453,0.5418,0.5134,0.4591,0.395,0.2984,0.2374,0.123,0.0,-0.0755,-0.1146,-0.1703,-0.2815,-0.3539,-0.368,-0.3935,-0.4135,-0.3993,-0.3827,-0.3577,-0.3244,-0.319,-0.3274,-0.3229,-0.3106,-0.349,-0.3928,-0.4089,-0.4275,-0.4799,-0.5259,-0.5392,-0.5491,-0.5657,-0.5851,-0.6228,-0.6645,-0.7464,-0.8201,-0.8879,-0.9748,-1.0685,-1.1005,-1.0967,-1.034,-0.9659,-0.8836,-0.8052,-0.725,-0.6343,0.4989,0.4402,0.4678,0.5753,0.722,0.8244,0.995,1.1904,1.2591,1.2732,1.2796,1.2697,1.2685,1.2491,1.2622,1.2724,1.2286,1.1558,1.1242,1.1007,1.0787,1.109,1.1988,1.167,1.1575,1.2328,1.2795,1.294,1.2665,1.1826,1.1173,1.1142,0.9524,0.8765,0.8899,0.9524,0.9869,0.999,1.025,1.0446,1.0383,0.9712,0.9104,0.8787,0.8492,0.8293,0.8028,0.7892,0.7688,0.772,0.8097,0.8507,0.8581,0.8536,0.8565,0.8614,0.8549,0.8317,0.7982,0.7377,0.678,0.6373,0.5712,0.5304,0.5044,0.4897,0.4921,0.4728,0.4292,0.3498,0.2018,0.1512,0.0952,0.028,0.0,0.0,0.0,-0.1924,-0.2843,-0.2926,-0.3236,-0.3433,-0.3463,-0.3547,-0.3494,-0.316,-0.3051,-0.3109,-0.3021,-0.3019,-0.3409,-0.3775,-0.3955,-0.4264,-0.4787,-0.519,-0.5425,-0.5557,-0.5723,-0.5918,-0.6174,-0.6568,-0.7027,-0.78,-0.8592,-0.9564,-1.0368,-1.0666,-1.0792,-1.0224,-0.943,-0.8335,-0.7306,-0.6391,-0.5459,0.4812,0.4271,0.4465,0.5595,0.722,0.7775,0.9432,1.1763,1.2332,1.2286,1.2396,1.3247,1.3034,1.3134,1.3423,1.35,1.2732,1.1441,1.0776,1.089,1.049,1.1059,1.1942,1.2011,1.2243,1.339,1.342,1.342,1.3039,1.2074,1.1298,1.1017,0.9582,0.8829,0.8958,0.9466,0.9901,1.0021,1.0205,1.0376,1.0332,0.9644,0.8936,0.8408,0.8108,0.7937,0.7678,0.755,0.7322,0.6683,0.7537,0.8039,0.8251,0.8583,0.8641,0.877,0.8511,0.8076,0.7492,0.675,0.5925,0.5195,0.4835,0.4449,0.419,0.4097,0.4055,0.3928,0.3475,0.2965,0.18,0.1289,0.0701,0.0,0.0,0.0,0.0,-0.1146,-0.1703,-0.212,-0.2514,-0.2822,-0.3019,-0.313,-0.3132,-0.3105,-0.3023,-0.297,-0.2882,-0.296,-0.3341,-0.3468,-0.361,-0.3721,-0.4194,-0.4755,-0.5024,-0.5388,-0.5587,-0.5951,-0.6181,-0.6576,-0.7036,-0.7614,-0.8415,-0.9314,-0.9971,-1.0256,-1.0217,-0.989,-0.9174,-0.8095,-0.6879,-0.5613,-0.4648,0.4704,0.4092,0.451,0.5164,0.5953,0.652,0.8194,1.013,1.0804,1.1488,1.228,1.2247,1.2766,1.3093,1.2956,1.2751,1.2251,1.101,1.0263,1.0364,1.0303,1.1076,1.1555,1.2043,1.2604,1.329,1.348,1.348,1.3039,1.195,1.1236,1.0954,0.9518,0.87,0.9017,0.9518,0.9862,1.0021,1.0205,1.0376,1.0294,0.9668,0.8842,0.818,0.7807,0.7505,0.7307,0.7182,0.6954,0.6542,0.6779,0.6843,0.7106,0.8028,0.8608,0.8501,0.8049,0.7523,0.7072,0.6152,0.5471,0.496,0.4379,0.3632,0.3092,0.2704,0.2605,0.2116,0.1924,0.1623,0.1154,0.0814,0.0589,0.0,0.0,0.0,0.0,0.0,0.0,-0.1229,-0.1761,-0.2211,-0.2348,-0.2543,-0.2683,-0.2768,-0.2882,-0.2968,-0.3079,-0.3095,-0.3284,-0.3294,-0.3176,-0.3294,-0.3447,-0.4038,-0.4522,-0.4987,-0.5355,-0.5951,-0.6247,-0.6618,-0.7106,-0.7521,-0.8096,-0.8903,-0.9412,-0.9813,-0.9825,-0.9656,-0.8808,-0.7857,-0.643,-0.506,-0.4036,0.4723,0.4175,0.4438,0.4963,0.5607,0.6031,0.7554,0.9605,1.0072,1.0789,1.1714,1.229,1.2681,1.3071,1.3394,1.2876,1.1766,1.0657,0.994,0.9827,1.0014,1.0453,1.1024,1.1671,1.232,1.2887,1.329,1.326,1.2826,1.1772,1.1017,1.0332,0.9236,0.8705,0.8888,0.9518,0.9831,1.0021,1.0218,1.0415,1.0395,0.9573,0.8718,0.8027,0.7678,0.7395,0.7171,0.723,0.6791,0.628,0.6648,0.6515,0.6475,0.6935,0.7832,0.7618,0.7223,0.6728,0.6333,0.5517,0.5125,0.4604,0.3881,0.3218,0.2625,0.2117,0.1447,0.1173,0.0765,0.0672,0.0317,0.0142,-0.0168,-0.0364,-0.0449,-0.0308,0.0,0.0,0.0,0.0,-0.098,-0.1371,-0.1511,-0.1762,-0.2124,-0.2376,-0.2629,-0.2882,-0.3132,-0.3345,-0.3426,-0.3341,-0.3239,-0.3006,-0.3066,-0.3365,-0.3918,-0.442,-0.502,-0.5617,-0.6247,-0.6613,-0.6876,-0.7204,-0.7879,-0.8587,-0.916,-0.9641,-0.9538,-0.9366,-0.8652,-0.7643,-0.5958,-0.4579,-0.3632,0.468,0.4206,0.4303,0.4691,0.5226,0.55,0.6796,0.8666,0.9357,1.0101,1.1125,1.2168,1.2736,1.288,1.3043,1.2768,1.147,1.0436,0.9844,0.966,0.961,0.9888,1.051,1.1188,1.1888,1.2473,1.3147,1.3047,1.2389,1.1586,1.0742,0.999,0.9177,0.8738,0.8829,0.9344,0.9721,0.9945,1.0098,1.027,0.999,0.9358,0.85,0.7783,0.7677,0.7438,0.716,0.7272,0.6691,0.6191,0.6254,0.644,0.5503,0.5862,0.6238,0.6185,0.6073,0.5771,0.5385,0.5062,0.4673,0.4017,0.3403,0.2856,0.2098,0.1323,0.0761,0.0772,0.0494,0.0059,-0.0321,-0.0656,-0.09,-0.1009,-0.0925,-0.0729,-0.0364,0.0,0.0,0.0,0.0,-0.0644,-0.0952,-0.1036,-0.1398,-0.1956,-0.2209,-0.2627,-0.2935,-0.3524,-0.3657,-0.3555,-0.335,-0.2918,-0.2781,-0.2764,-0.3278,-0.3754,-0.445,-0.515,-0.5877,-0.6539,-0.6806,-0.7068,-0.7554,-0.8264,-0.8877,-0.923,-0.8941,-0.866,-0.837,-0.7375,-0.5621,-0.4497,-0.3681,0.4418,0.4209,0.4153,0.4116,0.4112,0.4499,0.527,0.6535,0.799,0.9125,1.0155,1.1149,1.1974,1.2388,1.2215,1.2031,1.146,1.0576,0.9925,0.9835,0.966,0.9809,1.0358,1.1149,1.1578,1.2074,1.2873,1.2873,1.2235,1.1454,1.0672,0.9901,0.9104,0.8652,0.8896,0.9157,0.9129,0.9362,0.9518,0.9458,0.9259,0.8931,0.8404,0.7887,0.7564,0.7365,0.7203,0.7303,0.6821,0.5877,0.5909,0.5419,0.4384,0.4148,0.4321,0.4638,0.5058,0.5478,0.5034,0.4644,0.4162,0.3516,0.3009,0.2289,0.1273,0.0232,-0.0398,-0.0324,-0.0406,-0.0634,-0.094,-0.0942,-0.1211,-0.1316,-0.1288,-0.1009,-0.0673,0.0,0.0,0.0,0.0,-0.0336,-0.0588,-0.0588,-0.07,-0.1286,-0.1843,-0.2263,-0.2766,-0.3383,-0.3539,-0.3312,-0.2909,-0.2491,-0.2215,-0.2221,-0.2676,-0.3151,-0.3851,-0.4646,-0.5444,-0.6174,-0.6732,-0.7027,-0.7484,-0.7842,-0.8328,-0.8458,-0.8231,-0.8135,-0.8068,-0.685,-0.5223,-0.4353,-0.3681,0.4392,0.4286,0.4137,0.3999,0.3841,0.4229,0.496,0.5964,0.6884,0.8033,0.9205,1.0008,1.0875,1.1495,1.1342,1.1222,1.1062,1.0425,1.013,1.0057,0.9859,0.9786,1.0043,1.0551,1.1048,1.1703,1.2174,1.2397,1.1888,1.1329,1.049,0.974,0.9121,0.8788,0.9025,0.9151,0.9265,0.9363,0.9342,0.9265,0.9056,0.8822,0.8457,0.7852,0.7669,0.7492,0.7369,0.7487,0.7244,0.6479,0.6359,0.5752,0.4868,0.4394,0.4156,0.4139,0.4481,0.4684,0.454,0.4249,0.3716,0.3135,0.2619,0.1739,0.0385,-0.0684,-0.1312,-0.1195,-0.1473,-0.1731,-0.1971,-0.1996,-0.2054,-0.204,-0.1762,-0.1288,-0.0925,-0.0336,0.0,0.0,0.0196,-0.0028,-0.0196,-0.0196,-0.028,-0.07,-0.1286,-0.1818,-0.2488,-0.3241,-0.3187,-0.2863,-0.2385,-0.1844,-0.1644,-0.1552,-0.2172,-0.2684,-0.3218,-0.4048,-0.4978,-0.5705,-0.6268,-0.6798,-0.7223,-0.7549,-0.7842,-0.7912,-0.7912,-0.7879,-0.7874,-0.6625,-0.5424,-0.4336,-0.3429,0.5115,0.4805,0.4309,0.3999,0.3841,0.427,0.4849,0.5538,0.6272,0.7149,0.8105,0.8908,0.9787,1.051,1.0551,1.0585,1.0803,1.0442,1.0322,1.0202,0.9964,0.9733,0.9821,1.0098,1.0679,1.1205,1.1803,1.2089,1.1996,1.1406,1.0593,0.9621,0.9406,0.9147,0.9138,0.9342,0.9497,0.9519,0.9407,0.9284,0.9097,0.8903,0.843,0.8028,0.7817,0.7747,0.7485,0.7752,0.7649,0.708,0.671,0.6101,0.519,0.4612,0.4207,0.408,0.4131,0.4153,0.4069,0.3864,0.3432,0.2803,0.1976,0.0874,-0.0285,-0.1344,-0.1885,-0.1779,-0.2036,-0.2523,-0.2907,-0.2764,-0.2781,-0.2599,-0.2404,-0.1792,-0.1177,-0.0645,-0.014,0.014,0.0224,0.028,0.0168,0.0224,0.0084,-0.0168,-0.07,-0.1344,-0.2097,-0.2935,-0.2796,-0.2456,-0.2168,-0.1642,-0.133,-0.1301,-0.1819,-0.2249,-0.275,-0.3382,-0.4314,-0.5147,-0.5844,-0.6371,-0.6929,-0.7195,-0.7428,-0.7526,-0.7587,-0.7554,-0.7423,-0.6798,-0.5791,-0.4609,-0.3112,0.6992,0.5957,0.4657,0.4038,0.388,0.4428,0.4621,0.4771,0.5928,0.65,0.6961,0.777,0.8761,0.9545,0.9868,1.0215,1.0971,1.0527,1.0388,1.0178,0.9835,0.9587,0.9639,0.9976,1.0465,1.0954,1.1399,1.1981,1.2398,1.1856,1.088,0.9994,0.9858,0.9656,0.9528,0.9521,0.9625,0.9602,0.9485,0.9264,0.9081,0.8837,0.848,0.8039,0.7998,0.7955,0.7464,0.7844,0.7896,0.7228,0.6908,0.6411,0.5505,0.4813,0.4367,0.4135,0.3846,0.3901,0.3872,0.3454,0.2796,0.1958,0.0968,-0.0031,-0.081,-0.1274,-0.1713,-0.2264,-0.2603,-0.2728,-0.2882,-0.2858,-0.3058,-0.3049,-0.2768,-0.2181,-0.1567,-0.1037,-0.0505,0.0,0.0224,0.0308,0.0504,0.0532,0.0336,0.0056,-0.0588,-0.1231,-0.1734,-0.2376,-0.2293,-0.2083,-0.1975,-0.1599,-0.1213,-0.1342,-0.1727,-0.2016,-0.2418,-0.2952,-0.3618,-0.445,-0.5448,-0.6042,-0.6605,-0.6806,-0.7007,-0.7199,-0.733,-0.7265,-0.6966,-0.642,-0.5499,-0.4233,-0.2651,0.7145,0.615,0.5613,0.4921,0.419,0.4543,0.4662,0.4659,0.5279,0.5973,0.6503,0.7126,0.7851,0.8609,0.941,0.9787,1.0217,1.071,1.0605,1.0466,1.0184,0.9825,0.9754,0.957,0.9767,1.0395,1.0874,1.1421,1.2027,1.2058,1.2008,1.1387,1.0562,0.9921,0.9702,0.9679,0.9712,0.9597,0.9384,0.9136,0.898,0.8728,0.8445,0.8137,0.8095,0.8106,0.7944,0.7922,0.7863,0.7644,0.7134,0.6508,0.5899,0.5148,0.4604,0.4281,0.3893,0.369,0.3687,0.3228,0.2493,0.1272,0.0149,-0.0784,-0.1196,-0.2053,-0.2587,-0.3019,-0.3274,-0.3502,-0.3501,-0.3411,-0.336,-0.3388,-0.3132,-0.2569,-0.1956,-0.14,-0.0729,-0.0168,0.0196,0.042,0.0644,0.084,0.056,0.0252,-0.0448,-0.1063,-0.1454,-0.1761,-0.1677,-0.1649,-0.1548,-0.1469,-0.1084,-0.1255,-0.1575,-0.1848,-0.2116,-0.2714,-0.3345,-0.4251,-0.518,-0.5745,-0.6346,-0.6679,-0.6909,-0.704,-0.7073,-0.704,-0.6678,-0.6155,-0.5047,-0.3838,-0.2442,0.8161,0.7214,0.6877,0.5844,0.454,0.4701,0.4779,0.474,0.4937,0.5359,0.6086,0.6286,0.6822,0.7655,0.8262,0.9178,0.9605,1.0153,1.0434,1.0408,1.0244,0.9972,0.9606,0.943,0.9486,0.999,1.0395,1.1,1.1864,1.2344,1.2343,1.1966,1.1402,1.0742,1.0168,0.9858,0.9757,0.9558,0.9322,0.9045,0.8895,0.8635,0.8398,0.823,0.8252,0.823,0.8133,0.8052,0.8047,0.7842,0.7451,0.6929,0.6323,0.5679,0.4916,0.4412,0.3934,0.3509,0.3386,0.2892,0.2006,0.0733,-0.0328,-0.0962,-0.1586,-0.2724,-0.3279,-0.3457,-0.3998,-0.4363,-0.4188,-0.4049,-0.3885,-0.3938,-0.3799,-0.3292,-0.2374,-0.1706,-0.098,-0.0308,0.014,0.0699,0.098,0.1203,0.1064,0.0644,-0.0028,-0.0532,-0.0812,-0.1036,-0.1091,-0.1089,-0.1099,-0.1032,-0.0959,-0.1249,-0.1552,-0.1738,-0.2071,-0.2634,-0.333,-0.4171,-0.4915,-0.5547,-0.6079,-0.6581,-0.6749,-0.6745,-0.6811,-0.6843,-0.6453,-0.6098,-0.4804,-0.3648,-0.2559,1.0284,0.947,0.8456,0.6657,0.4693,0.482,0.4898,0.4779,0.4898,0.5057,0.5207,0.5249,0.567,0.6461,0.6904,0.7867,0.9088,0.9406,0.971,1.0124,1.016,0.9796,0.9468,0.9285,0.939,1.0117,1.0521,1.1,1.1802,1.2375,1.2511,1.2502,1.214,1.1653,1.1051,1.0276,0.983,0.9608,0.9344,0.9111,0.889,0.8701,0.8558,0.8496,0.8699,0.8756,0.8482,0.8304,0.8262,0.807,0.7584,0.7089,0.6683,0.5655,0.4891,0.4399,0.3604,0.3172,0.3056,0.2298,0.1373,0.0295,-0.0633,-0.1217,-0.1842,-0.2805,-0.3727,-0.3887,-0.4284,-0.4541,-0.4594,-0.4684,-0.4546,-0.4325,-0.4184,-0.371,-0.2764,-0.193,-0.1203,-0.0533,0.0364,0.1118,0.137,0.1567,0.1512,0.112,0.042,-0.0028,-0.0308,-0.0476,-0.0644,-0.0741,-0.0794,-0.0839,-0.0888,-0.1234,-0.1495,-0.1681,-0.1999,-0.25,-0.3201,-0.401,-0.4716,-0.5315,-0.5881,-0.6416,-0.6453,-0.642,-0.6515,-0.6613,-0.6552,-0.6013,-0.4681,-0.3526,-0.2568,1.0462,0.9593,0.9253,0.7842,0.589,0.5204,0.4979,0.4937,0.4979,0.5018,0.5018,0.5018,0.5132,0.5607,0.6218,0.708,0.8092,0.9243,0.9633,0.9843,1.0025,0.9798,0.9441,0.921,0.939,1.0021,1.049,1.1062,1.1809,1.2406,1.2767,1.2814,1.2677,1.2089,1.1169,1.0351,0.9809,0.9577,0.933,0.9093,0.8934,0.9061,0.9137,0.9101,0.9501,0.9483,0.9048,0.8832,0.8516,0.8199,0.7666,0.7227,0.6839,0.5912,0.5054,0.4508,0.3766,0.2828,0.2519,0.1912,0.1181,0.0208,-0.0671,-0.1358,-0.2062,-0.3069,-0.3825,-0.4399,-0.4782,-0.5002,-0.5027,-0.5175,-0.5046,-0.4546,-0.4239,-0.371,-0.2931,-0.2179,-0.1455,-0.084,-0.0056,0.1007,0.1566,0.2151,0.2237,0.1874,0.1231,0.0392,-0.0028,-0.0224,-0.0364,-0.0482,-0.0579,-0.065,-0.0786,-0.1093,-0.1372,-0.1584,-0.188,-0.2312,-0.305,-0.3808,-0.442,-0.4984,-0.565,-0.6214,-0.6218,-0.6218,-0.635,-0.6383,-0.6251,-0.5734,-0.4511,-0.358,-0.2871,1.0659,1.0074,0.9788,0.8908,0.746,0.6086,0.5362,0.5054,0.5093,0.5054,0.5018,0.5054,0.5093,0.522,0.5619,0.6596,0.743,0.8411,0.9319,0.9581,1.004,0.9724,0.9317,0.9081,0.9358,0.9958,1.0584,1.1156,1.188,1.249,1.2924,1.3142,1.31,1.2671,1.1832,1.1118,1.0101,0.9854,0.9644,0.9672,0.9597,0.9688,0.9963,0.997,1.0142,1.0255,0.9825,0.9382,0.8912,0.8369,0.7863,0.7351,0.6922,0.6197,0.5273,0.4673,0.3683,0.2717,0.2184,0.1737,0.1065,0.039,-0.0549,-0.1396,-0.2226,-0.3166,-0.3953,-0.4628,-0.5267,-0.5507,-0.5538,-0.5697,-0.5626,-0.5152,-0.4704,-0.4202,-0.3514,-0.2764,-0.1902,-0.1259,-0.0168,0.0811,0.1873,0.2541,0.3072,0.2571,0.2041,0.1175,0.0336,0.0084,-0.0056,-0.017,-0.0315,-0.0439,-0.0629,-0.0893,-0.1191,-0.1458,-0.1782,-0.2125,-0.2762,-0.3511,-0.4094,-0.4619,-0.5117,-0.5583,-0.5885,-0.602,-0.605,-0.5984,-0.5818,-0.5127,-0.4232,-0.3549,-0.2907,1.1074,1.0881,1.0244,0.9825,0.921,0.7268,0.5935,0.5132,0.5246,0.5207,0.5057,0.5207,0.5168,0.5015,0.504,0.5936,0.7159,0.7875,0.8613,0.9279,0.9759,0.9431,0.9219,0.9017,0.9518,1.0053,1.071,1.1492,1.205,1.2544,1.3059,1.3424,1.3339,1.316,1.271,1.2,1.0948,1.0579,1.0182,1.0212,1.0184,1.0607,1.0708,1.0715,1.0742,1.0773,1.0447,1.006,0.9531,0.8957,0.8351,0.7724,0.7052,0.626,0.5536,0.4563,0.338,0.2768,0.2184,0.1765,0.1304,0.0734,-0.0211,-0.1222,-0.2156,-0.2968,-0.3761,-0.464,-0.5387,-0.5795,-0.6111,-0.629,-0.6455,-0.6032,-0.5609,-0.5003,-0.4263,-0.343,-0.2514,-0.1509,-0.0196,0.0977,0.2207,0.3016,0.3436,0.3074,0.2573,0.2068,0.123,0.0421,0.0281,0.0225,0.0029,-0.0233,-0.0446,-0.0665,-0.0957,-0.1218,-0.1565,-0.1924,-0.2582,-0.307,-0.3498,-0.3954,-0.445,-0.4885,-0.5322,-0.5554,-0.5653,-0.5521,-0.5286,-0.4731,-0.3873,-0.3385,-0.2743,1.1032,1.0995,1.096,1.0421,0.9367,0.7579,0.6591,0.6325,0.5825,0.5401,0.5204,0.5282,0.5309,0.5012,0.4925,0.5817,0.6657,0.7395,0.8122,0.8776,0.9456,0.9223,0.9158,0.93,0.9901,1.0584,1.1267,1.1872,1.2451,1.2805,1.3067,1.348,1.3555,1.3562,1.3393,1.3011,1.2241,1.1582,1.1047,1.0849,1.098,1.1348,1.1358,1.1367,1.1646,1.1569,1.1191,1.079,1.0343,0.9953,0.9411,0.8824,0.8286,0.738,0.6379,0.4301,0.3602,0.3269,0.2689,0.2214,0.175,0.1347,0.0615,-0.0452,-0.1479,-0.2521,-0.3398,-0.4387,-0.567,-0.6344,-0.6633,-0.6804,-0.6841,-0.6554,-0.61,-0.5464,-0.4725,-0.3871,-0.2899,-0.1536,-0.0223,0.1146,0.2432,0.3241,0.3547,0.3327,0.3049,0.2655,0.2096,0.1259,0.0673,0.0618,0.0423,0.0143,-0.0116,-0.0322,-0.0662,-0.1016,-0.1327,-0.1652,-0.2106,-0.2528,-0.288,-0.3286,-0.3718,-0.4253,-0.4791,-0.4957,-0.5014,-0.4882,-0.4643,-0.4127,-0.3579,-0.3066,-0.2621,1.1179,1.1175,1.1408,1.0993,1.0051,0.8694,0.7936,0.7437,0.6289,0.5747,0.5893,0.5838,0.5816,0.5974,0.5848,0.6219,0.7136,0.7619,0.8147,0.859,0.9097,0.9188,0.9291,0.9556,1.025,1.1024,1.1686,1.2166,1.2713,1.2915,1.3129,1.3437,1.3648,1.3773,1.3707,1.35,1.3345,1.2812,1.2342,1.1871,1.1901,1.2167,1.2238,1.2194,1.257,1.2321,1.2012,1.1594,1.1202,1.0817,1.0243,0.9731,0.9009,0.7955,0.7068,0.526,0.455,0.4044,0.3432,0.2961,0.2461,0.1884,0.1263,0.0319,-0.0775,-0.1864,-0.2956,-0.4128,-0.5763,-0.7018,-0.717,-0.7276,-0.7105,-0.6971,-0.6404,-0.5842,-0.5046,-0.4223,-0.295,-0.1563,-0.0168,0.1258,0.2348,0.3183,0.3688,0.3524,0.3469,0.338,0.2794,0.204,0.1398,0.1064,0.0812,0.0536,0.0255,-0.0086,-0.0414,-0.0763,-0.1103,-0.1422,-0.175,-0.1938,-0.2213,-0.2549,-0.295,-0.3538,-0.4106,-0.4237,-0.4276,-0.4122,-0.3802,-0.3269,-0.2909,-0.2692,-0.2278,1.1379,1.1348,1.1573,1.1415,1.1031,1.011,0.9362,0.8623,0.6973,0.6398,0.6796,0.6584,0.6634,0.6685,0.6586,0.6773,0.7311,0.7716,0.8118,0.8495,0.8876,0.9084,0.9385,0.964,1.0471,1.1327,1.1988,1.239,1.2797,1.2969,1.3023,1.3292,1.346,1.3696,1.3939,1.3604,1.3592,1.4042,1.3674,1.3294,1.3128,1.3315,1.3524,1.3156,1.3056,1.2876,1.2724,1.2372,1.1925,1.1507,1.1188,1.0784,0.9735,0.8665,0.7827,0.6895,0.598,0.5159,0.4388,0.3797,0.3112,0.2382,0.149,0.077,-0.0204,-0.1672,-0.2954,-0.3958,-0.5464,-0.6611,-0.6939,-0.7762,-0.8015,-0.7622,-0.7079,-0.6172,-0.5109,-0.4033,-0.2593,-0.1202,0.0223,0.151,0.2069,0.2877,0.3688,0.3635,0.3827,0.3907,0.3599,0.2903,0.2289,0.1704,0.1174,0.084,0.0423,0.0114,-0.0175,-0.0482,-0.0813,-0.1129,-0.1452,-0.1501,-0.1477,-0.1908,-0.2366,-0.2858,-0.3327,-0.3498,-0.3517,-0.3198,-0.2838,-0.2379,-0.2132,-0.2104,-0.2141,1.1697,1.1514,1.1261,1.1217,1.118,1.0081,0.9638,0.9496,0.8508,0.7693,0.713,0.6772,0.6637,0.6903,0.6972,0.7081,0.7125,0.7777,0.8047,0.8363,0.8706,0.9163,0.9568,1.0015,1.0748,1.1483,1.2151,1.2674,1.292,1.296,1.2967,1.3164,1.3307,1.3583,1.3947,1.3561,1.3985,1.4807,1.478,1.4396,1.4085,1.4129,1.4234,1.4083,1.3975,1.4066,1.3934,1.3695,1.3348,1.3024,1.3288,1.2693,1.1554,1.0473,0.9416,0.8416,0.7544,0.6696,0.5787,0.4897,0.4064,0.3223,0.2356,0.1374,0.0115,-0.1639,-0.2966,-0.39,-0.4975,-0.603,-0.6998,-0.8037,-0.8741,-0.819,-0.7643,-0.6394,-0.514,-0.3647,-0.2207,-0.0838,0.0587,0.1397,0.1928,0.2627,0.3383,0.391,0.4319,0.4481,0.4401,0.3929,0.3289,0.2621,0.162,0.1147,0.0731,0.0454,0.026,-0.0089,-0.0432,-0.0766,-0.112,-0.1267,-0.1343,-0.1467,-0.1786,-0.2278,-0.2686,-0.2933,-0.2826,-0.2469,-0.2199,-0.1872,-0.1738,-0.1706,-0.1887,1.1522,1.1342,1.1038,1.1092,1.1206,1.0494,1.0058,0.9793,0.9313,0.8739,0.8179,0.7722,0.7483,0.7522,0.7614,0.7412,0.7415,0.7836,0.8202,0.8451,0.8641,0.9215,0.9767,1.0325,1.1188,1.1926,1.2742,1.3238,1.3307,1.3316,1.3411,1.3191,1.3232,1.3457,1.3858,1.4061,1.442,1.5316,1.548,1.5342,1.501,1.5118,1.5077,1.497,1.4785,1.4814,1.4558,1.4312,1.4064,1.3855,1.3909,1.3737,1.2852,1.2109,1.1216,1.0349,0.9443,0.8561,0.7537,0.6441,0.5396,0.4643,0.3238,0.2256,0.1261,-0.0407,-0.2182,-0.3283,-0.5599,-0.684,-0.7084,-0.7897,-0.8218,-0.8,-0.7473,-0.6605,-0.4824,-0.3007,-0.1815,-0.0728,0.0559,0.1538,0.2153,0.2933,0.3658,0.4291,0.4701,0.4862,0.4838,0.4787,0.4205,0.3483,0.2426,0.1676,0.1232,0.0988,0.08,0.0413,0.0061,-0.0413,-0.0788,-0.1065,-0.1241,-0.1234,-0.1316,-0.1639,-0.202,-0.2234,-0.2225,-0.1939,-0.1679,-0.1449,-0.1378,-0.1339,-0.1539,1.1276,1.1188,1.0962,1.106,1.1353,1.1148,1.0634,1.0025,0.9778,0.9616,0.9349,0.8856,0.8907,0.8705,0.869,0.8451,0.8262,0.8211,0.8398,0.849,0.8517,0.9268,0.9983,1.0546,1.1492,1.242,1.3274,1.3786,1.4064,1.4034,1.3833,1.3338,1.3397,1.3682,1.4299,1.4661,1.496,1.5629,1.6002,1.6249,1.6215,1.6169,1.6011,1.5655,1.53,1.4922,1.4809,1.4597,1.4478,1.4471,1.4478,1.4267,1.4022,1.3482,1.2957,1.2098,1.1195,1.0367,0.9475,0.834,0.7478,0.6415,0.4568,0.3197,0.2237,0.0656,-0.1123,-0.3179,-0.5502,-0.7012,-0.7219,-0.788,-0.8114,-0.7853,-0.7344,-0.6551,-0.4542,-0.2591,-0.1536,-0.0532,0.0532,0.1595,0.232,0.31,0.3904,0.4536,0.4944,0.5054,0.5136,0.5113,0.4838,0.4036,0.3123,0.2428,0.1873,0.1658,0.1502,0.1252,0.0874,0.0158,-0.0392,-0.0526,-0.0697,-0.087,-0.102,-0.1281,-0.1313,-0.1442,-0.1386,-0.1385,-0.1267,-0.1097,-0.1006,-0.1002,-0.1186,1.1654,1.1735,1.1294,1.1281,1.1481,1.1299,1.0955,1.0561,1.0611,1.0355,0.9702,0.931,0.8799,0.7706,0.8346,0.822,0.7652,0.8052,0.8447,0.8517,0.8517,0.9364,1.0268,1.0899,1.1842,1.2885,1.3798,1.4106,1.4698,1.4787,1.4678,1.4442,1.4471,1.4577,1.4684,1.4995,1.5309,1.5989,1.6457,1.6698,1.7185,1.7159,1.7113,1.6982,1.6959,1.6748,1.6477,1.588,1.5743,1.5671,1.5519,1.5158,1.489,1.4614,1.425,1.3579,1.2699,1.2027,1.11,0.9844,0.8865,0.7583,0.5843,0.4487,0.3176,0.1387,-0.0447,-0.2423,-0.4581,-0.6469,-0.7236,-0.8725,-0.9248,-0.8146,-0.7398,-0.5955,-0.422,-0.2674,-0.1399,-0.0336,0.0728,0.151,0.2069,0.3014,0.4101,0.4756,0.546,0.5597,0.5628,0.5523,0.5469,0.4697,0.3871,0.3181,0.2653,0.243,0.2257,0.2054,0.1691,0.0956,0.0444,0.0161,-0.0033,-0.0363,-0.0686,-0.0957,-0.0966,-0.1035,-0.0914,-0.0923,-0.0883,-0.0767,-0.0683,-0.0687,-0.0895]}]]